<?xml version="1.0" encoding="UTF-8"?>
<gpx version="1.1" creator="RoadTrp.org" xmlns="http://www.topografix.com/GPX/1/1">
<trk><name>Biology Trails — Southern Adventist University — August 3, 2026</name><trkseg>
<trkpt lat="35.042734" lon="-85.054143"><ele>256.0</ele><time>2026-08-03T18:56:32Z</time></trkpt>
<trkpt lat="35.042733" lon="-85.054144"><ele>256.3</ele><time>2026-08-03T18:57:12Z</time></trkpt>
<trkpt lat="35.042732" lon="-85.054145"><ele>256.3</ele><time>2026-08-03T18:57:13Z</time></trkpt>
<trkpt lat="35.042726" lon="-85.054146"><ele>255.7</ele><time>2026-08-03T18:57:15Z</time></trkpt>
<trkpt lat="35.042724" lon="-85.054149"><ele>256.0</ele><time>2026-08-03T18:57:16Z</time></trkpt>
<trkpt lat="35.042722" lon="-85.05415"><ele>255.4</ele><time>2026-08-03T18:57:18Z</time></trkpt>
<trkpt lat="35.042722" lon="-85.054144"><ele>254.8</ele><time>2026-08-03T18:57:19Z</time></trkpt>
<trkpt lat="35.042729" lon="-85.054124"><ele>253.6</ele><time>2026-08-03T18:57:22Z</time></trkpt>
<trkpt lat="35.042729" lon="-85.054119"><ele>253.6</ele><time>2026-08-03T18:57:23Z</time></trkpt>
<trkpt lat="35.042739" lon="-85.054116"><ele>254.2</ele><time>2026-08-03T18:57:24Z</time></trkpt>
<trkpt lat="35.042763" lon="-85.05413"><ele>254.8</ele><time>2026-08-03T18:57:26Z</time></trkpt>
<trkpt lat="35.042784" lon="-85.054167"><ele>256.3</ele><time>2026-08-03T18:57:29Z</time></trkpt>
<trkpt lat="35.042801" lon="-85.054209"><ele>256.0</ele><time>2026-08-03T18:57:32Z</time></trkpt>
<trkpt lat="35.042819" lon="-85.054246"><ele>256.3</ele><time>2026-08-03T18:57:35Z</time></trkpt>
<trkpt lat="35.042836" lon="-85.054288"><ele>255.7</ele><time>2026-08-03T18:57:38Z</time></trkpt>
<trkpt lat="35.042843" lon="-85.054322"><ele>256.0</ele><time>2026-08-03T18:57:40Z</time></trkpt>
<trkpt lat="35.042858" lon="-85.054363"><ele>256.6</ele><time>2026-08-03T18:57:43Z</time></trkpt>
<trkpt lat="35.042874" lon="-85.054404"><ele>257.9</ele><time>2026-08-03T18:57:46Z</time></trkpt>
<trkpt lat="35.042887" lon="-85.054449"><ele>260.0</ele><time>2026-08-03T18:57:49Z</time></trkpt>
<trkpt lat="35.042913" lon="-85.054484"><ele>260.9</ele><time>2026-08-03T18:57:52Z</time></trkpt>
<trkpt lat="35.042937" lon="-85.054511"><ele>260.6</ele><time>2026-08-03T18:57:55Z</time></trkpt>
<trkpt lat="35.042968" lon="-85.054521"><ele>258.5</ele><time>2026-08-03T18:57:58Z</time></trkpt>
<trkpt lat="35.042957" lon="-85.054559"><ele>259.1</ele><time>2026-08-03T18:58:01Z</time></trkpt>
<trkpt lat="35.042923" lon="-85.054558"><ele>257.6</ele><time>2026-08-03T18:58:04Z</time></trkpt>
<trkpt lat="35.042912" lon="-85.054543"><ele>259.4</ele><time>2026-08-03T18:58:05Z</time></trkpt>
<trkpt lat="35.042905" lon="-85.054529"><ele>259.4</ele><time>2026-08-03T18:58:07Z</time></trkpt>
<trkpt lat="35.042904" lon="-85.054528"><ele>259.4</ele><time>2026-08-03T18:58:08Z</time></trkpt>
<trkpt lat="35.042882" lon="-85.054512"><ele>259.1</ele><time>2026-08-03T18:58:10Z</time></trkpt>
<trkpt lat="35.042871" lon="-85.054494"><ele>260.9</ele><time>2026-08-03T18:58:11Z</time></trkpt>
<trkpt lat="35.042865" lon="-85.054476"><ele>260.6</ele><time>2026-08-03T18:58:21Z</time></trkpt>
<trkpt lat="35.042852" lon="-85.054442"><ele>260.9</ele><time>2026-08-03T18:58:22Z</time></trkpt>
<trkpt lat="35.042841" lon="-85.054431"><ele>264.0</ele><time>2026-08-03T18:58:23Z</time></trkpt>
<trkpt lat="35.042832" lon="-85.054419"><ele>264.3</ele><time>2026-08-03T18:58:27Z</time></trkpt>
<trkpt lat="35.042835" lon="-85.054423"><ele>264.6</ele><time>2026-08-03T18:58:28Z</time></trkpt>
<trkpt lat="35.042839" lon="-85.054431"><ele>265.5</ele><time>2026-08-03T18:58:29Z</time></trkpt>
<trkpt lat="35.042841" lon="-85.054445"><ele>266.4</ele><time>2026-08-03T18:58:42Z</time></trkpt>
<trkpt lat="35.042843" lon="-85.054445"><ele>266.1</ele><time>2026-08-03T18:58:43Z</time></trkpt>
<trkpt lat="35.042843" lon="-85.054452"><ele>267.0</ele><time>2026-08-03T18:58:44Z</time></trkpt>
<trkpt lat="35.042843" lon="-85.054454"><ele>267.0</ele><time>2026-08-03T18:58:45Z</time></trkpt>
<trkpt lat="35.042844" lon="-85.054456"><ele>266.4</ele><time>2026-08-03T18:58:46Z</time></trkpt>
<trkpt lat="35.042846" lon="-85.05445"><ele>264.0</ele><time>2026-08-03T18:58:47Z</time></trkpt>
<trkpt lat="35.042845" lon="-85.054448"><ele>264.0</ele><time>2026-08-03T18:58:52Z</time></trkpt>
<trkpt lat="35.042846" lon="-85.05445"><ele>263.0</ele><time>2026-08-03T18:58:53Z</time></trkpt>
<trkpt lat="35.042852" lon="-85.054457"><ele>262.4</ele><time>2026-08-03T18:58:55Z</time></trkpt>
<trkpt lat="35.042858" lon="-85.054457"><ele>262.7</ele><time>2026-08-03T18:58:56Z</time></trkpt>
<trkpt lat="35.04286" lon="-85.054458"><ele>262.7</ele><time>2026-08-03T18:58:59Z</time></trkpt>
<trkpt lat="35.04286" lon="-85.054459"><ele>262.7</ele><time>2026-08-03T18:59:00Z</time></trkpt>
<trkpt lat="35.042859" lon="-85.054458"><ele>262.4</ele><time>2026-08-03T18:59:01Z</time></trkpt>
<trkpt lat="35.042861" lon="-85.054454"><ele>262.4</ele><time>2026-08-03T18:59:02Z</time></trkpt>
<trkpt lat="35.04289" lon="-85.054436"><ele>261.8</ele><time>2026-08-03T18:59:06Z</time></trkpt>
<trkpt lat="35.042841" lon="-85.05444"><ele>260.6</ele><time>2026-08-03T18:59:09Z</time></trkpt>
<trkpt lat="35.042813" lon="-85.054449"><ele>258.8</ele><time>2026-08-03T18:59:11Z</time></trkpt>
<trkpt lat="35.042842" lon="-85.054432"><ele>261.8</ele><time>2026-08-03T18:59:14Z</time></trkpt>
<trkpt lat="35.042863" lon="-85.054409"><ele>262.7</ele><time>2026-08-03T18:59:18Z</time></trkpt>
<trkpt lat="35.042873" lon="-85.054407"><ele>263.7</ele><time>2026-08-03T18:59:19Z</time></trkpt>
<trkpt lat="35.042878" lon="-85.054408"><ele>263.7</ele><time>2026-08-03T18:59:20Z</time></trkpt>
<trkpt lat="35.042883" lon="-85.05441"><ele>262.7</ele><time>2026-08-03T18:59:21Z</time></trkpt>
<trkpt lat="35.042883" lon="-85.054412"><ele>263.0</ele><time>2026-08-03T18:59:22Z</time></trkpt>
<trkpt lat="35.042883" lon="-85.054457"><ele>262.1</ele><time>2026-08-03T18:59:26Z</time></trkpt>
<trkpt lat="35.042889" lon="-85.054496"><ele>261.2</ele><time>2026-08-03T18:59:28Z</time></trkpt>
<trkpt lat="35.042886" lon="-85.054531"><ele>261.5</ele><time>2026-08-03T18:59:30Z</time></trkpt>
<trkpt lat="35.04289" lon="-85.054576"><ele>260.6</ele><time>2026-08-03T18:59:33Z</time></trkpt>
<trkpt lat="35.042896" lon="-85.054597"><ele>259.7</ele><time>2026-08-03T18:59:35Z</time></trkpt>
<trkpt lat="35.042896" lon="-85.054604"><ele>259.7</ele><time>2026-08-03T18:59:36Z</time></trkpt>
<trkpt lat="35.042889" lon="-85.054599"><ele>259.1</ele><time>2026-08-03T18:59:47Z</time></trkpt>
<trkpt lat="35.042886" lon="-85.054602"><ele>258.5</ele><time>2026-08-03T18:59:48Z</time></trkpt>
<trkpt lat="35.042908" lon="-85.054576"><ele>257.3</ele><time>2026-08-03T18:59:56Z</time></trkpt>
<trkpt lat="35.042928" lon="-85.054609"><ele>253.6</ele><time>2026-08-03T19:00:00Z</time></trkpt>
<trkpt lat="35.042921" lon="-85.054651"><ele>252.7</ele><time>2026-08-03T19:00:02Z</time></trkpt>
<trkpt lat="35.042909" lon="-85.054684"><ele>250.9</ele><time>2026-08-03T19:00:04Z</time></trkpt>
<trkpt lat="35.042897" lon="-85.054716"><ele>252.1</ele><time>2026-08-03T19:00:06Z</time></trkpt>
<trkpt lat="35.042886" lon="-85.054757"><ele>250.9</ele><time>2026-08-03T19:00:09Z</time></trkpt>
<trkpt lat="35.042892" lon="-85.054801"><ele>249.9</ele><time>2026-08-03T19:00:13Z</time></trkpt>
<trkpt lat="35.042887" lon="-85.05484"><ele>250.2</ele><time>2026-08-03T19:00:16Z</time></trkpt>
<trkpt lat="35.042882" lon="-85.05488"><ele>249.9</ele><time>2026-08-03T19:00:19Z</time></trkpt>
<trkpt lat="35.042875" lon="-85.054922"><ele>251.2</ele><time>2026-08-03T19:00:22Z</time></trkpt>
<trkpt lat="35.042875" lon="-85.054964"><ele>252.7</ele><time>2026-08-03T19:00:25Z</time></trkpt>
<trkpt lat="35.042886" lon="-85.055007"><ele>252.1</ele><time>2026-08-03T19:00:28Z</time></trkpt>
<trkpt lat="35.042887" lon="-85.055041"><ele>251.2</ele><time>2026-08-03T19:00:30Z</time></trkpt>
<trkpt lat="35.042884" lon="-85.055077"><ele>252.1</ele><time>2026-08-03T19:00:32Z</time></trkpt>
<trkpt lat="35.042886" lon="-85.055113"><ele>250.9</ele><time>2026-08-03T19:00:34Z</time></trkpt>
<trkpt lat="35.042894" lon="-85.055158"><ele>252.4</ele><time>2026-08-03T19:00:37Z</time></trkpt>
<trkpt lat="35.042903" lon="-85.055207"><ele>251.2</ele><time>2026-08-03T19:00:40Z</time></trkpt>
<trkpt lat="35.0429" lon="-85.055243"><ele>251.8</ele><time>2026-08-03T19:00:42Z</time></trkpt>
<trkpt lat="35.042899" lon="-85.055278"><ele>252.7</ele><time>2026-08-03T19:00:44Z</time></trkpt>
<trkpt lat="35.042897" lon="-85.055315"><ele>252.4</ele><time>2026-08-03T19:00:46Z</time></trkpt>
<trkpt lat="35.042886" lon="-85.055351"><ele>253.3</ele><time>2026-08-03T19:00:48Z</time></trkpt>
<trkpt lat="35.042888" lon="-85.055391"><ele>253.6</ele><time>2026-08-03T19:00:50Z</time></trkpt>
<trkpt lat="35.042891" lon="-85.055428"><ele>254.2</ele><time>2026-08-03T19:00:52Z</time></trkpt>
<trkpt lat="35.042894" lon="-85.055463"><ele>254.5</ele><time>2026-08-03T19:00:54Z</time></trkpt>
<trkpt lat="35.042898" lon="-85.055512"><ele>254.8</ele><time>2026-08-03T19:00:57Z</time></trkpt>
<trkpt lat="35.042901" lon="-85.055546"><ele>254.5</ele><time>2026-08-03T19:00:59Z</time></trkpt>
<trkpt lat="35.042913" lon="-85.055581"><ele>257.9</ele><time>2026-08-03T19:01:01Z</time></trkpt>
<trkpt lat="35.042916" lon="-85.055615"><ele>259.4</ele><time>2026-08-03T19:01:03Z</time></trkpt>
<trkpt lat="35.042922" lon="-85.055653"><ele>260.9</ele><time>2026-08-03T19:01:05Z</time></trkpt>
<trkpt lat="35.042929" lon="-85.055689"><ele>263.0</ele><time>2026-08-03T19:01:07Z</time></trkpt>
<trkpt lat="35.04294" lon="-85.055736"><ele>263.7</ele><time>2026-08-03T19:01:10Z</time></trkpt>
<trkpt lat="35.042945" lon="-85.055772"><ele>267.6</ele><time>2026-08-03T19:01:12Z</time></trkpt>
<trkpt lat="35.042951" lon="-85.055804"><ele>267.6</ele><time>2026-08-03T19:01:14Z</time></trkpt>
<trkpt lat="35.042965" lon="-85.055835"><ele>266.7</ele><time>2026-08-03T19:01:16Z</time></trkpt>
<trkpt lat="35.042979" lon="-85.055866"><ele>267.0</ele><time>2026-08-03T19:01:18Z</time></trkpt>
<trkpt lat="35.042996" lon="-85.055893"><ele>267.6</ele><time>2026-08-03T19:01:20Z</time></trkpt>
<trkpt lat="35.043014" lon="-85.055934"><ele>268.5</ele><time>2026-08-03T19:01:23Z</time></trkpt>
<trkpt lat="35.043035" lon="-85.055976"><ele>268.8</ele><time>2026-08-03T19:01:26Z</time></trkpt>
<trkpt lat="35.043055" lon="-85.056015"><ele>270.4</ele><time>2026-08-03T19:01:29Z</time></trkpt>
<trkpt lat="35.04307" lon="-85.056058"><ele>268.8</ele><time>2026-08-03T19:01:32Z</time></trkpt>
<trkpt lat="35.043085" lon="-85.056096"><ele>269.4</ele><time>2026-08-03T19:01:35Z</time></trkpt>
<trkpt lat="35.043094" lon="-85.056146"><ele>270.7</ele><time>2026-08-03T19:01:38Z</time></trkpt>
<trkpt lat="35.04307" lon="-85.056186"><ele>271.9</ele><time>2026-08-03T19:01:40Z</time></trkpt>
<trkpt lat="35.043045" lon="-85.056215"><ele>271.6</ele><time>2026-08-03T19:01:42Z</time></trkpt>
<trkpt lat="35.043036" lon="-85.056248"><ele>273.4</ele><time>2026-08-03T19:01:44Z</time></trkpt>
<trkpt lat="35.043014" lon="-85.056277"><ele>274.6</ele><time>2026-08-03T19:01:48Z</time></trkpt>
<trkpt lat="35.042988" lon="-85.056306"><ele>274.6</ele><time>2026-08-03T19:01:51Z</time></trkpt>
<trkpt lat="35.042969" lon="-85.05635"><ele>273.7</ele><time>2026-08-03T19:01:54Z</time></trkpt>
<trkpt lat="35.042967" lon="-85.056386"><ele>273.1</ele><time>2026-08-03T19:01:56Z</time></trkpt>
<trkpt lat="35.042967" lon="-85.056421"><ele>272.8</ele><time>2026-08-03T19:01:58Z</time></trkpt>
<trkpt lat="35.042975" lon="-85.056459"><ele>271.9</ele><time>2026-08-03T19:02:00Z</time></trkpt>
<trkpt lat="35.042995" lon="-85.056488"><ele>272.5</ele><time>2026-08-03T19:02:02Z</time></trkpt>
<trkpt lat="35.043024" lon="-85.056522"><ele>273.1</ele><time>2026-08-03T19:02:05Z</time></trkpt>
<trkpt lat="35.043051" lon="-85.056557"><ele>277.7</ele><time>2026-08-03T19:02:08Z</time></trkpt>
<trkpt lat="35.043058" lon="-85.056605"><ele>276.8</ele><time>2026-08-03T19:02:11Z</time></trkpt>
<trkpt lat="35.04306" lon="-85.05664"><ele>276.1</ele><time>2026-08-03T19:02:13Z</time></trkpt>
<trkpt lat="35.043064" lon="-85.056686"><ele>275.5</ele><time>2026-08-03T19:02:16Z</time></trkpt>
<trkpt lat="35.043041" lon="-85.056731"><ele>275.8</ele><time>2026-08-03T19:02:19Z</time></trkpt>
<trkpt lat="35.043025" lon="-85.056758"><ele>277.7</ele><time>2026-08-03T19:02:21Z</time></trkpt>
<trkpt lat="35.043004" lon="-85.056793"><ele>275.8</ele><time>2026-08-03T19:02:24Z</time></trkpt>
<trkpt lat="35.042982" lon="-85.056816"><ele>277.1</ele><time>2026-08-03T19:02:26Z</time></trkpt>
<trkpt lat="35.042967" lon="-85.056855"><ele>278.0</ele><time>2026-08-03T19:02:29Z</time></trkpt>
<trkpt lat="35.04293" lon="-85.056879"><ele>278.3</ele><time>2026-08-03T19:02:32Z</time></trkpt>
<trkpt lat="35.042896" lon="-85.056902"><ele>279.5</ele><time>2026-08-03T19:02:35Z</time></trkpt>
<trkpt lat="35.042879" lon="-85.056946"><ele>279.8</ele><time>2026-08-03T19:02:38Z</time></trkpt>
<trkpt lat="35.042878" lon="-85.056979"><ele>278.6</ele><time>2026-08-03T19:02:40Z</time></trkpt>
<trkpt lat="35.042886" lon="-85.057015"><ele>278.6</ele><time>2026-08-03T19:02:43Z</time></trkpt>
<trkpt lat="35.042918" lon="-85.057031"><ele>278.6</ele><time>2026-08-03T19:02:46Z</time></trkpt>
<trkpt lat="35.042952" lon="-85.057029"><ele>278.6</ele><time>2026-08-03T19:02:49Z</time></trkpt>
<trkpt lat="35.042984" lon="-85.057011"><ele>279.8</ele><time>2026-08-03T19:02:51Z</time></trkpt>
<trkpt lat="35.043014" lon="-85.057008"><ele>281.9</ele><time>2026-08-03T19:02:53Z</time></trkpt>
<trkpt lat="35.043049" lon="-85.05701"><ele>281.9</ele><time>2026-08-03T19:02:57Z</time></trkpt>
<trkpt lat="35.043075" lon="-85.057032"><ele>282.9</ele><time>2026-08-03T19:03:00Z</time></trkpt>
<trkpt lat="35.043097" lon="-85.057057"><ele>284.1</ele><time>2026-08-03T19:03:02Z</time></trkpt>
<trkpt lat="35.043126" lon="-85.05709"><ele>283.8</ele><time>2026-08-03T19:03:05Z</time></trkpt>
<trkpt lat="35.04314" lon="-85.057129"><ele>284.1</ele><time>2026-08-03T19:03:08Z</time></trkpt>
<trkpt lat="35.043148" lon="-85.057162"><ele>283.8</ele><time>2026-08-03T19:03:10Z</time></trkpt>
<trkpt lat="35.043172" lon="-85.0572"><ele>285.9</ele><time>2026-08-03T19:03:13Z</time></trkpt>
<trkpt lat="35.043191" lon="-85.05724"><ele>285.0</ele><time>2026-08-03T19:03:16Z</time></trkpt>
<trkpt lat="35.043205" lon="-85.05727"><ele>283.5</ele><time>2026-08-03T19:03:18Z</time></trkpt>
<trkpt lat="35.043219" lon="-85.057301"><ele>281.9</ele><time>2026-08-03T19:03:20Z</time></trkpt>
<trkpt lat="35.043236" lon="-85.057345"><ele>281.0</ele><time>2026-08-03T19:03:23Z</time></trkpt>
<trkpt lat="35.043263" lon="-85.05738"><ele>283.5</ele><time>2026-08-03T19:03:26Z</time></trkpt>
<trkpt lat="35.043296" lon="-85.057403"><ele>282.5</ele><time>2026-08-03T19:03:29Z</time></trkpt>
<trkpt lat="35.043333" lon="-85.057421"><ele>282.5</ele><time>2026-08-03T19:03:32Z</time></trkpt>
<trkpt lat="35.043364" lon="-85.057437"><ele>284.1</ele><time>2026-08-03T19:03:35Z</time></trkpt>
<trkpt lat="35.043396" lon="-85.057453"><ele>287.1</ele><time>2026-08-03T19:03:38Z</time></trkpt>
<trkpt lat="35.043414" lon="-85.057486"><ele>287.4</ele><time>2026-08-03T19:03:40Z</time></trkpt>
<trkpt lat="35.043438" lon="-85.057511"><ele>286.8</ele><time>2026-08-03T19:03:42Z</time></trkpt>
<trkpt lat="35.043456" lon="-85.057541"><ele>284.7</ele><time>2026-08-03T19:03:44Z</time></trkpt>
<trkpt lat="35.04348" lon="-85.057579"><ele>283.5</ele><time>2026-08-03T19:03:47Z</time></trkpt>
<trkpt lat="35.043492" lon="-85.05761"><ele>282.5</ele><time>2026-08-03T19:03:49Z</time></trkpt>
<trkpt lat="35.043502" lon="-85.057646"><ele>283.5</ele><time>2026-08-03T19:03:51Z</time></trkpt>
<trkpt lat="35.043524" lon="-85.057684"><ele>284.1</ele><time>2026-08-03T19:03:54Z</time></trkpt>
<trkpt lat="35.043543" lon="-85.057724"><ele>283.5</ele><time>2026-08-03T19:03:57Z</time></trkpt>
<trkpt lat="35.043544" lon="-85.057762"><ele>285.6</ele><time>2026-08-03T19:04:00Z</time></trkpt>
<trkpt lat="35.04356" lon="-85.057803"><ele>286.2</ele><time>2026-08-03T19:04:03Z</time></trkpt>
<trkpt lat="35.043559" lon="-85.057841"><ele>284.4</ele><time>2026-08-03T19:04:05Z</time></trkpt>
<trkpt lat="35.043561" lon="-85.057877"><ele>285.6</ele><time>2026-08-03T19:04:07Z</time></trkpt>
<trkpt lat="35.043561" lon="-85.057917"><ele>284.7</ele><time>2026-08-03T19:04:09Z</time></trkpt>
<trkpt lat="35.043572" lon="-85.057961"><ele>285.9</ele><time>2026-08-03T19:04:12Z</time></trkpt>
<trkpt lat="35.043585" lon="-85.058"><ele>286.8</ele><time>2026-08-03T19:04:15Z</time></trkpt>
<trkpt lat="35.043608" lon="-85.058033"><ele>287.7</ele><time>2026-08-03T19:04:18Z</time></trkpt>
<trkpt lat="35.043632" lon="-85.058064"><ele>287.4</ele><time>2026-08-03T19:04:21Z</time></trkpt>
<trkpt lat="35.043654" lon="-85.0581"><ele>289.0</ele><time>2026-08-03T19:04:24Z</time></trkpt>
<trkpt lat="35.04366" lon="-85.058142"><ele>288.6</ele><time>2026-08-03T19:04:27Z</time></trkpt>
<trkpt lat="35.043658" lon="-85.058175"><ele>288.3</ele><time>2026-08-03T19:04:29Z</time></trkpt>
<trkpt lat="35.043649" lon="-85.058225"><ele>288.0</ele><time>2026-08-03T19:04:32Z</time></trkpt>
<trkpt lat="35.04365" lon="-85.05826"><ele>287.4</ele><time>2026-08-03T19:04:34Z</time></trkpt>
<trkpt lat="35.043672" lon="-85.058297"><ele>289.9</ele><time>2026-08-03T19:04:37Z</time></trkpt>
<trkpt lat="35.043699" lon="-85.0583"><ele>290.8</ele><time>2026-08-03T19:04:40Z</time></trkpt>
<trkpt lat="35.043734" lon="-85.05831"><ele>290.5</ele><time>2026-08-03T19:04:43Z</time></trkpt>
<trkpt lat="35.043759" lon="-85.058323"><ele>291.4</ele><time>2026-08-03T19:04:45Z</time></trkpt>
<trkpt lat="35.043766" lon="-85.058367"><ele>289.6</ele><time>2026-08-03T19:04:47Z</time></trkpt>
<trkpt lat="35.043755" lon="-85.058399"><ele>291.7</ele><time>2026-08-03T19:04:49Z</time></trkpt>
<trkpt lat="35.043744" lon="-85.058437"><ele>293.5</ele><time>2026-08-03T19:04:52Z</time></trkpt>
<trkpt lat="35.043733" lon="-85.058475"><ele>295.4</ele><time>2026-08-03T19:04:55Z</time></trkpt>
<trkpt lat="35.043744" lon="-85.058519"><ele>296.6</ele><time>2026-08-03T19:04:58Z</time></trkpt>
<trkpt lat="35.043776" lon="-85.058543"><ele>298.1</ele><time>2026-08-03T19:05:01Z</time></trkpt>
<trkpt lat="35.043806" lon="-85.05855"><ele>298.7</ele><time>2026-08-03T19:05:04Z</time></trkpt>
<trkpt lat="35.043833" lon="-85.058571"><ele>296.9</ele><time>2026-08-03T19:05:07Z</time></trkpt>
<trkpt lat="35.043862" lon="-85.05859"><ele>299.6</ele><time>2026-08-03T19:05:10Z</time></trkpt>
<trkpt lat="35.043886" lon="-85.058623"><ele>299.0</ele><time>2026-08-03T19:05:13Z</time></trkpt>
<trkpt lat="35.043907" lon="-85.058663"><ele>299.3</ele><time>2026-08-03T19:05:16Z</time></trkpt>
<trkpt lat="35.04393" lon="-85.058702"><ele>299.6</ele><time>2026-08-03T19:05:19Z</time></trkpt>
<trkpt lat="35.043936" lon="-85.058747"><ele>299.3</ele><time>2026-08-03T19:05:22Z</time></trkpt>
<trkpt lat="35.043932" lon="-85.058784"><ele>299.0</ele><time>2026-08-03T19:05:25Z</time></trkpt>
<trkpt lat="35.043948" lon="-85.05882"><ele>299.0</ele><time>2026-08-03T19:05:28Z</time></trkpt>
<trkpt lat="35.043973" lon="-85.058842"><ele>301.1</ele><time>2026-08-03T19:05:31Z</time></trkpt>
<trkpt lat="35.043995" lon="-85.058864"><ele>301.4</ele><time>2026-08-03T19:05:34Z</time></trkpt>
<trkpt lat="35.044011" lon="-85.058905"><ele>301.8</ele><time>2026-08-03T19:05:37Z</time></trkpt>
<trkpt lat="35.044026" lon="-85.058937"><ele>301.1</ele><time>2026-08-03T19:05:39Z</time></trkpt>
<trkpt lat="35.044033" lon="-85.058969"><ele>302.1</ele><time>2026-08-03T19:05:41Z</time></trkpt>
<trkpt lat="35.044046" lon="-85.059"><ele>302.4</ele><time>2026-08-03T19:05:43Z</time></trkpt>
<trkpt lat="35.044057" lon="-85.059044"><ele>303.6</ele><time>2026-08-03T19:05:46Z</time></trkpt>
<trkpt lat="35.044068" lon="-85.05909"><ele>303.6</ele><time>2026-08-03T19:05:49Z</time></trkpt>
<trkpt lat="35.044087" lon="-85.05913"><ele>303.9</ele><time>2026-08-03T19:05:52Z</time></trkpt>
<trkpt lat="35.044089" lon="-85.059166"><ele>303.0</ele><time>2026-08-03T19:05:54Z</time></trkpt>
<trkpt lat="35.044099" lon="-85.059212"><ele>301.8</ele><time>2026-08-03T19:05:57Z</time></trkpt>
<trkpt lat="35.044104" lon="-85.059255"><ele>300.5</ele><time>2026-08-03T19:06:00Z</time></trkpt>
<trkpt lat="35.044076" lon="-85.059284"><ele>302.1</ele><time>2026-08-03T19:06:03Z</time></trkpt>
<trkpt lat="35.044049" lon="-85.059269"><ele>303.3</ele><time>2026-08-03T19:06:05Z</time></trkpt>
<trkpt lat="35.04403" lon="-85.059234"><ele>303.6</ele><time>2026-08-03T19:06:07Z</time></trkpt>
<trkpt lat="35.044022" lon="-85.059195"><ele>305.7</ele><time>2026-08-03T19:06:09Z</time></trkpt>
<trkpt lat="35.044017" lon="-85.059152"><ele>308.8</ele><time>2026-08-03T19:06:12Z</time></trkpt>
<trkpt lat="35.043988" lon="-85.059117"><ele>310.9</ele><time>2026-08-03T19:06:15Z</time></trkpt>
<trkpt lat="35.043964" lon="-85.059073"><ele>310.0</ele><time>2026-08-03T19:06:18Z</time></trkpt>
<trkpt lat="35.043945" lon="-85.059044"><ele>310.9</ele><time>2026-08-03T19:06:20Z</time></trkpt>
<trkpt lat="35.043924" lon="-85.059013"><ele>311.2</ele><time>2026-08-03T19:06:23Z</time></trkpt>
<trkpt lat="35.043888" lon="-85.058986"><ele>311.8</ele><time>2026-08-03T19:06:26Z</time></trkpt>
<trkpt lat="35.043852" lon="-85.058974"><ele>311.2</ele><time>2026-08-03T19:06:29Z</time></trkpt>
<trkpt lat="35.043815" lon="-85.058955"><ele>310.9</ele><time>2026-08-03T19:06:32Z</time></trkpt>
<trkpt lat="35.043788" lon="-85.058955"><ele>311.5</ele><time>2026-08-03T19:06:34Z</time></trkpt>
<trkpt lat="35.043756" lon="-85.058969"><ele>309.7</ele><time>2026-08-03T19:06:37Z</time></trkpt>
<trkpt lat="35.043746" lon="-85.059004"><ele>309.4</ele><time>2026-08-03T19:06:40Z</time></trkpt>
<trkpt lat="35.043768" lon="-85.059036"><ele>309.7</ele><time>2026-08-03T19:06:43Z</time></trkpt>
<trkpt lat="35.043797" lon="-85.059058"><ele>308.8</ele><time>2026-08-03T19:06:46Z</time></trkpt>
<trkpt lat="35.043825" lon="-85.059076"><ele>308.2</ele><time>2026-08-03T19:06:49Z</time></trkpt>
<trkpt lat="35.043847" lon="-85.059101"><ele>309.1</ele><time>2026-08-03T19:06:52Z</time></trkpt>
<trkpt lat="35.043851" lon="-85.059141"><ele>309.1</ele><time>2026-08-03T19:06:55Z</time></trkpt>
<trkpt lat="35.043824" lon="-85.059173"><ele>310.6</ele><time>2026-08-03T19:06:58Z</time></trkpt>
<trkpt lat="35.043789" lon="-85.059188"><ele>310.6</ele><time>2026-08-03T19:07:01Z</time></trkpt>
<trkpt lat="35.043769" lon="-85.059211"><ele>312.7</ele><time>2026-08-03T19:07:04Z</time></trkpt>
<trkpt lat="35.043768" lon="-85.059253"><ele>312.1</ele><time>2026-08-03T19:07:07Z</time></trkpt>
<trkpt lat="35.043784" lon="-85.059292"><ele>312.1</ele><time>2026-08-03T19:07:10Z</time></trkpt>
<trkpt lat="35.043817" lon="-85.059307"><ele>312.4</ele><time>2026-08-03T19:07:13Z</time></trkpt>
<trkpt lat="35.043853" lon="-85.059299"><ele>313.3</ele><time>2026-08-03T19:07:16Z</time></trkpt>
<trkpt lat="35.043887" lon="-85.059292"><ele>312.7</ele><time>2026-08-03T19:07:19Z</time></trkpt>
<trkpt lat="35.043917" lon="-85.059318"><ele>312.1</ele><time>2026-08-03T19:07:22Z</time></trkpt>
<trkpt lat="35.043932" lon="-85.059355"><ele>310.9</ele><time>2026-08-03T19:07:24Z</time></trkpt>
<trkpt lat="35.043942" lon="-85.059387"><ele>310.9</ele><time>2026-08-03T19:07:26Z</time></trkpt>
<trkpt lat="35.043949" lon="-85.059425"><ele>311.8</ele><time>2026-08-03T19:07:29Z</time></trkpt>
<trkpt lat="35.043938" lon="-85.059458"><ele>313.3</ele><time>2026-08-03T19:07:32Z</time></trkpt>
<trkpt lat="35.043917" lon="-85.059494"><ele>313.9</ele><time>2026-08-03T19:07:35Z</time></trkpt>
<trkpt lat="35.043886" lon="-85.059518"><ele>314.6</ele><time>2026-08-03T19:07:38Z</time></trkpt>
<trkpt lat="35.043858" lon="-85.059546"><ele>313.6</ele><time>2026-08-03T19:07:41Z</time></trkpt>
<trkpt lat="35.043848" lon="-85.059583"><ele>314.9</ele><time>2026-08-03T19:07:44Z</time></trkpt>
<trkpt lat="35.043866" lon="-85.05961"><ele>316.7</ele><time>2026-08-03T19:07:47Z</time></trkpt>
<trkpt lat="35.043897" lon="-85.059629"><ele>319.7</ele><time>2026-08-03T19:07:51Z</time></trkpt>
<trkpt lat="35.043923" lon="-85.05966"><ele>318.5</ele><time>2026-08-03T19:07:55Z</time></trkpt>
<trkpt lat="35.043926" lon="-85.059701"><ele>317.0</ele><time>2026-08-03T19:07:58Z</time></trkpt>
<trkpt lat="35.043912" lon="-85.059735"><ele>317.9</ele><time>2026-08-03T19:08:00Z</time></trkpt>
<trkpt lat="35.043888" lon="-85.059771"><ele>317.9</ele><time>2026-08-03T19:08:03Z</time></trkpt>
<trkpt lat="35.043873" lon="-85.059814"><ele>318.2</ele><time>2026-08-03T19:08:06Z</time></trkpt>
<trkpt lat="35.043876" lon="-85.05985"><ele>318.2</ele><time>2026-08-03T19:08:08Z</time></trkpt>
<trkpt lat="35.0439" lon="-85.059886"><ele>317.9</ele><time>2026-08-03T19:08:11Z</time></trkpt>
<trkpt lat="35.043916" lon="-85.059915"><ele>318.5</ele><time>2026-08-03T19:08:13Z</time></trkpt>
<trkpt lat="35.043929" lon="-85.059953"><ele>316.7</ele><time>2026-08-03T19:08:16Z</time></trkpt>
<trkpt lat="35.043922" lon="-85.059989"><ele>319.7</ele><time>2026-08-03T19:08:19Z</time></trkpt>
<trkpt lat="35.043914" lon="-85.060027"><ele>321.6</ele><time>2026-08-03T19:08:22Z</time></trkpt>
<trkpt lat="35.043897" lon="-85.06006"><ele>321.6</ele><time>2026-08-03T19:08:25Z</time></trkpt>
<trkpt lat="35.043909" lon="-85.060096"><ele>321.9</ele><time>2026-08-03T19:08:28Z</time></trkpt>
<trkpt lat="35.043911" lon="-85.060132"><ele>322.5</ele><time>2026-08-03T19:08:31Z</time></trkpt>
<trkpt lat="35.043905" lon="-85.060178"><ele>321.3</ele><time>2026-08-03T19:08:34Z</time></trkpt>
<trkpt lat="35.043895" lon="-85.06021"><ele>323.4</ele><time>2026-08-03T19:08:36Z</time></trkpt>
<trkpt lat="35.043876" lon="-85.060252"><ele>324.9</ele><time>2026-08-03T19:08:39Z</time></trkpt>
<trkpt lat="35.04386" lon="-85.060284"><ele>324.3</ele><time>2026-08-03T19:08:41Z</time></trkpt>
<trkpt lat="35.043854" lon="-85.060327"><ele>324.6</ele><time>2026-08-03T19:08:44Z</time></trkpt>
<trkpt lat="35.04387" lon="-85.060362"><ele>325.8</ele><time>2026-08-03T19:08:47Z</time></trkpt>
<trkpt lat="35.043894" lon="-85.060382"><ele>327.4</ele><time>2026-08-03T19:08:50Z</time></trkpt>
<trkpt lat="35.043927" lon="-85.060378"><ele>327.4</ele><time>2026-08-03T19:08:53Z</time></trkpt>
<trkpt lat="35.043957" lon="-85.060399"><ele>328.3</ele><time>2026-08-03T19:08:56Z</time></trkpt>
<trkpt lat="35.04398" lon="-85.060435"><ele>329.2</ele><time>2026-08-03T19:08:59Z</time></trkpt>
<trkpt lat="35.04399" lon="-85.060478"><ele>328.9</ele><time>2026-08-03T19:09:02Z</time></trkpt>
<trkpt lat="35.043976" lon="-85.060527"><ele>328.3</ele><time>2026-08-03T19:09:05Z</time></trkpt>
<trkpt lat="35.043956" lon="-85.060552"><ele>329.5</ele><time>2026-08-03T19:09:07Z</time></trkpt>
<trkpt lat="35.043925" lon="-85.060575"><ele>328.0</ele><time>2026-08-03T19:09:10Z</time></trkpt>
<trkpt lat="35.043892" lon="-85.060569"><ele>328.9</ele><time>2026-08-03T19:09:13Z</time></trkpt>
<trkpt lat="35.043868" lon="-85.060551"><ele>329.2</ele><time>2026-08-03T19:09:15Z</time></trkpt>
<trkpt lat="35.043843" lon="-85.060531"><ele>329.2</ele><time>2026-08-03T19:09:17Z</time></trkpt>
<trkpt lat="35.04382" lon="-85.060511"><ele>329.2</ele><time>2026-08-03T19:09:19Z</time></trkpt>
<trkpt lat="35.043793" lon="-85.060504"><ele>330.7</ele><time>2026-08-03T19:09:21Z</time></trkpt>
<trkpt lat="35.043762" lon="-85.06047"><ele>331.3</ele><time>2026-08-03T19:09:24Z</time></trkpt>
<trkpt lat="35.043751" lon="-85.060438"><ele>332.2</ele><time>2026-08-03T19:09:26Z</time></trkpt>
<trkpt lat="35.043743" lon="-85.060393"><ele>332.5</ele><time>2026-08-03T19:09:29Z</time></trkpt>
<trkpt lat="35.043736" lon="-85.060358"><ele>332.2</ele><time>2026-08-03T19:09:31Z</time></trkpt>
<trkpt lat="35.043729" lon="-85.060318"><ele>333.5</ele><time>2026-08-03T19:09:33Z</time></trkpt>
<trkpt lat="35.043717" lon="-85.060285"><ele>334.1</ele><time>2026-08-03T19:09:35Z</time></trkpt>
<trkpt lat="35.043702" lon="-85.060253"><ele>335.3</ele><time>2026-08-03T19:09:37Z</time></trkpt>
<trkpt lat="35.043687" lon="-85.060209"><ele>335.0</ele><time>2026-08-03T19:09:40Z</time></trkpt>
<trkpt lat="35.043674" lon="-85.060164"><ele>332.8</ele><time>2026-08-03T19:09:43Z</time></trkpt>
<trkpt lat="35.043666" lon="-85.060128"><ele>332.5</ele><time>2026-08-03T19:09:45Z</time></trkpt>
<trkpt lat="35.043657" lon="-85.060094"><ele>332.5</ele><time>2026-08-03T19:09:47Z</time></trkpt>
<trkpt lat="35.043651" lon="-85.06006"><ele>333.1</ele><time>2026-08-03T19:09:49Z</time></trkpt>
<trkpt lat="35.043646" lon="-85.060027"><ele>333.5</ele><time>2026-08-03T19:09:51Z</time></trkpt>
<trkpt lat="35.043635" lon="-85.059983"><ele>332.8</ele><time>2026-08-03T19:09:54Z</time></trkpt>
<trkpt lat="35.043622" lon="-85.059952"><ele>332.5</ele><time>2026-08-03T19:09:56Z</time></trkpt>
<trkpt lat="35.043612" lon="-85.059919"><ele>330.7</ele><time>2026-08-03T19:09:58Z</time></trkpt>
<trkpt lat="35.043601" lon="-85.059884"><ele>330.4</ele><time>2026-08-03T19:10:00Z</time></trkpt>
<trkpt lat="35.043585" lon="-85.05985"><ele>329.5</ele><time>2026-08-03T19:10:02Z</time></trkpt>
<trkpt lat="35.043573" lon="-85.059813"><ele>331.0</ele><time>2026-08-03T19:10:05Z</time></trkpt>
<trkpt lat="35.043552" lon="-85.059778"><ele>332.5</ele><time>2026-08-03T19:10:08Z</time></trkpt>
<trkpt lat="35.043522" lon="-85.059758"><ele>332.5</ele><time>2026-08-03T19:10:11Z</time></trkpt>
<trkpt lat="35.043508" lon="-85.059728"><ele>331.6</ele><time>2026-08-03T19:10:13Z</time></trkpt>
<trkpt lat="35.0435" lon="-85.059694"><ele>331.6</ele><time>2026-08-03T19:10:15Z</time></trkpt>
<trkpt lat="35.043491" lon="-85.059659"><ele>332.2</ele><time>2026-08-03T19:10:17Z</time></trkpt>
<trkpt lat="35.04348" lon="-85.059621"><ele>332.5</ele><time>2026-08-03T19:10:19Z</time></trkpt>
<trkpt lat="35.043467" lon="-85.059578"><ele>332.8</ele><time>2026-08-03T19:10:21Z</time></trkpt>
<trkpt lat="35.043451" lon="-85.059538"><ele>331.9</ele><time>2026-08-03T19:10:23Z</time></trkpt>
<trkpt lat="35.043428" lon="-85.059504"><ele>330.4</ele><time>2026-08-03T19:10:25Z</time></trkpt>
<trkpt lat="35.043411" lon="-85.059466"><ele>329.8</ele><time>2026-08-03T19:10:27Z</time></trkpt>
<trkpt lat="35.043401" lon="-85.059423"><ele>328.9</ele><time>2026-08-03T19:10:29Z</time></trkpt>
<trkpt lat="35.043391" lon="-85.059378"><ele>331.0</ele><time>2026-08-03T19:10:31Z</time></trkpt>
<trkpt lat="35.043376" lon="-85.059346"><ele>331.3</ele><time>2026-08-03T19:10:33Z</time></trkpt>
<trkpt lat="35.043363" lon="-85.059307"><ele>329.8</ele><time>2026-08-03T19:10:36Z</time></trkpt>
<trkpt lat="35.043344" lon="-85.059281"><ele>328.9</ele><time>2026-08-03T19:10:39Z</time></trkpt>
<trkpt lat="35.043338" lon="-85.059239"><ele>328.6</ele><time>2026-08-03T19:10:42Z</time></trkpt>
<trkpt lat="35.043334" lon="-85.059196"><ele>327.1</ele><time>2026-08-03T19:10:45Z</time></trkpt>
<trkpt lat="35.043317" lon="-85.059169"><ele>325.8</ele><time>2026-08-03T19:10:47Z</time></trkpt>
<trkpt lat="35.043303" lon="-85.059136"><ele>325.2</ele><time>2026-08-03T19:10:49Z</time></trkpt>
<trkpt lat="35.043287" lon="-85.059108"><ele>323.7</ele><time>2026-08-03T19:10:51Z</time></trkpt>
<trkpt lat="35.043269" lon="-85.059082"><ele>323.7</ele><time>2026-08-03T19:10:53Z</time></trkpt>
<trkpt lat="35.043242" lon="-85.059069"><ele>324.3</ele><time>2026-08-03T19:10:55Z</time></trkpt>
<trkpt lat="35.043211" lon="-85.059079"><ele>325.5</ele><time>2026-08-03T19:10:57Z</time></trkpt>
<trkpt lat="35.043187" lon="-85.059108"><ele>325.2</ele><time>2026-08-03T19:10:59Z</time></trkpt>
<trkpt lat="35.043165" lon="-85.059132"><ele>324.0</ele><time>2026-08-03T19:11:01Z</time></trkpt>
<trkpt lat="35.043144" lon="-85.059172"><ele>324.0</ele><time>2026-08-03T19:11:04Z</time></trkpt>
<trkpt lat="35.043135" lon="-85.059216"><ele>324.9</ele><time>2026-08-03T19:11:07Z</time></trkpt>
<trkpt lat="35.043115" lon="-85.059252"><ele>325.5</ele><time>2026-08-03T19:11:10Z</time></trkpt>
<trkpt lat="35.043079" lon="-85.059279"><ele>324.3</ele><time>2026-08-03T19:11:13Z</time></trkpt>
<trkpt lat="35.043042" lon="-85.059299"><ele>323.4</ele><time>2026-08-03T19:11:16Z</time></trkpt>
<trkpt lat="35.043017" lon="-85.059312"><ele>324.3</ele><time>2026-08-03T19:11:18Z</time></trkpt>
<trkpt lat="35.042984" lon="-85.059314"><ele>325.2</ele><time>2026-08-03T19:11:20Z</time></trkpt>
<trkpt lat="35.042956" lon="-85.059329"><ele>325.8</ele><time>2026-08-03T19:11:22Z</time></trkpt>
<trkpt lat="35.042928" lon="-85.059344"><ele>324.3</ele><time>2026-08-03T19:11:24Z</time></trkpt>
<trkpt lat="35.042907" lon="-85.059371"><ele>323.7</ele><time>2026-08-03T19:11:26Z</time></trkpt>
<trkpt lat="35.042892" lon="-85.059401"><ele>323.4</ele><time>2026-08-03T19:11:28Z</time></trkpt>
<trkpt lat="35.042863" lon="-85.059432"><ele>326.1</ele><time>2026-08-03T19:11:31Z</time></trkpt>
<trkpt lat="35.042837" lon="-85.059468"><ele>325.5</ele><time>2026-08-03T19:11:34Z</time></trkpt>
<trkpt lat="35.042811" lon="-85.059482"><ele>327.7</ele><time>2026-08-03T19:11:36Z</time></trkpt>
<trkpt lat="35.04279" lon="-85.059504"><ele>328.6</ele><time>2026-08-03T19:11:38Z</time></trkpt>
<trkpt lat="35.042764" lon="-85.059541"><ele>331.0</ele><time>2026-08-03T19:11:41Z</time></trkpt>
<trkpt lat="35.042737" lon="-85.059578"><ele>330.7</ele><time>2026-08-03T19:11:44Z</time></trkpt>
<trkpt lat="35.042716" lon="-85.059614"><ele>331.3</ele><time>2026-08-03T19:11:47Z</time></trkpt>
<trkpt lat="35.042688" lon="-85.059622"><ele>331.3</ele><time>2026-08-03T19:11:49Z</time></trkpt>
<trkpt lat="35.042653" lon="-85.05964"><ele>329.8</ele><time>2026-08-03T19:11:52Z</time></trkpt>
<trkpt lat="35.042618" lon="-85.059659"><ele>328.9</ele><time>2026-08-03T19:11:55Z</time></trkpt>
<trkpt lat="35.042587" lon="-85.059667"><ele>332.2</ele><time>2026-08-03T19:11:57Z</time></trkpt>
<trkpt lat="35.042559" lon="-85.059669"><ele>333.1</ele><time>2026-08-03T19:11:59Z</time></trkpt>
<trkpt lat="35.042532" lon="-85.059678"><ele>333.5</ele><time>2026-08-03T19:12:01Z</time></trkpt>
<trkpt lat="35.042506" lon="-85.059692"><ele>334.1</ele><time>2026-08-03T19:12:03Z</time></trkpt>
<trkpt lat="35.042478" lon="-85.059704"><ele>333.1</ele><time>2026-08-03T19:12:05Z</time></trkpt>
<trkpt lat="35.042451" lon="-85.059719"><ele>331.9</ele><time>2026-08-03T19:12:07Z</time></trkpt>
<trkpt lat="35.042421" lon="-85.059748"><ele>333.8</ele><time>2026-08-03T19:12:10Z</time></trkpt>
<trkpt lat="35.042395" lon="-85.059781"><ele>333.1</ele><time>2026-08-03T19:12:13Z</time></trkpt>
<trkpt lat="35.042404" lon="-85.059829"><ele>333.1</ele><time>2026-08-03T19:12:16Z</time></trkpt>
<trkpt lat="35.042433" lon="-85.059843"><ele>333.1</ele><time>2026-08-03T19:12:18Z</time></trkpt>
<trkpt lat="35.042463" lon="-85.059841"><ele>331.6</ele><time>2026-08-03T19:12:21Z</time></trkpt>
<trkpt lat="35.042492" lon="-85.059827"><ele>332.5</ele><time>2026-08-03T19:12:24Z</time></trkpt>
<trkpt lat="35.042528" lon="-85.05982"><ele>332.8</ele><time>2026-08-03T19:12:27Z</time></trkpt>
<trkpt lat="35.042559" lon="-85.059799"><ele>331.6</ele><time>2026-08-03T19:12:30Z</time></trkpt>
<trkpt lat="35.04259" lon="-85.059786"><ele>331.6</ele><time>2026-08-03T19:12:33Z</time></trkpt>
<trkpt lat="35.042629" lon="-85.059772"><ele>331.3</ele><time>2026-08-03T19:12:36Z</time></trkpt>
<trkpt lat="35.042658" lon="-85.059768"><ele>331.9</ele><time>2026-08-03T19:12:38Z</time></trkpt>
<trkpt lat="35.042686" lon="-85.059765"><ele>332.5</ele><time>2026-08-03T19:12:40Z</time></trkpt>
<trkpt lat="35.042729" lon="-85.059753"><ele>332.2</ele><time>2026-08-03T19:12:43Z</time></trkpt>
<trkpt lat="35.042768" lon="-85.059748"><ele>333.5</ele><time>2026-08-03T19:12:46Z</time></trkpt>
<trkpt lat="35.042806" lon="-85.059744"><ele>335.6</ele><time>2026-08-03T19:12:49Z</time></trkpt>
<trkpt lat="35.042844" lon="-85.059741"><ele>336.2</ele><time>2026-08-03T19:12:52Z</time></trkpt>
<trkpt lat="35.042883" lon="-85.059732"><ele>335.6</ele><time>2026-08-03T19:12:55Z</time></trkpt>
<trkpt lat="35.042919" lon="-85.059728"><ele>332.2</ele><time>2026-08-03T19:12:58Z</time></trkpt>
<trkpt lat="35.042945" lon="-85.059739"><ele>332.5</ele><time>2026-08-03T19:13:00Z</time></trkpt>
<trkpt lat="35.042967" lon="-85.059769"><ele>334.4</ele><time>2026-08-03T19:13:03Z</time></trkpt>
<trkpt lat="35.042981" lon="-85.059815"><ele>336.8</ele><time>2026-08-03T19:13:06Z</time></trkpt>
<trkpt lat="35.042955" lon="-85.059837"><ele>338.6</ele><time>2026-08-03T19:13:09Z</time></trkpt>
<trkpt lat="35.042923" lon="-85.059856"><ele>338.0</ele><time>2026-08-03T19:13:12Z</time></trkpt>
<trkpt lat="35.042895" lon="-85.059861"><ele>340.8</ele><time>2026-08-03T19:13:14Z</time></trkpt>
<trkpt lat="35.04286" lon="-85.059886"><ele>338.9</ele><time>2026-08-03T19:13:17Z</time></trkpt>
<trkpt lat="35.04283" lon="-85.05991"><ele>340.8</ele><time>2026-08-03T19:13:19Z</time></trkpt>
<trkpt lat="35.042809" lon="-85.059938"><ele>340.5</ele><time>2026-08-03T19:13:21Z</time></trkpt>
<trkpt lat="35.042788" lon="-85.05996"><ele>342.3</ele><time>2026-08-03T19:13:23Z</time></trkpt>
<trkpt lat="35.042759" lon="-85.059991"><ele>342.6</ele><time>2026-08-03T19:13:25Z</time></trkpt>
<trkpt lat="35.042725" lon="-85.060021"><ele>342.9</ele><time>2026-08-03T19:13:28Z</time></trkpt>
<trkpt lat="35.042697" lon="-85.060028"><ele>342.3</ele><time>2026-08-03T19:13:30Z</time></trkpt>
<trkpt lat="35.042668" lon="-85.060035"><ele>342.3</ele><time>2026-08-03T19:13:32Z</time></trkpt>
<trkpt lat="35.04264" lon="-85.060047"><ele>342.9</ele><time>2026-08-03T19:13:34Z</time></trkpt>
<trkpt lat="35.042614" lon="-85.060064"><ele>343.2</ele><time>2026-08-03T19:13:36Z</time></trkpt>
<trkpt lat="35.042579" lon="-85.060091"><ele>345.9</ele><time>2026-08-03T19:13:39Z</time></trkpt>
<trkpt lat="35.042553" lon="-85.060108"><ele>347.2</ele><time>2026-08-03T19:13:41Z</time></trkpt>
<trkpt lat="35.042545" lon="-85.060155"><ele>346.3</ele><time>2026-08-03T19:13:44Z</time></trkpt>
<trkpt lat="35.042543" lon="-85.060192"><ele>346.9</ele><time>2026-08-03T19:13:46Z</time></trkpt>
<trkpt lat="35.04254" lon="-85.06023"><ele>346.3</ele><time>2026-08-03T19:13:48Z</time></trkpt>
<trkpt lat="35.042512" lon="-85.060261"><ele>346.6</ele><time>2026-08-03T19:13:50Z</time></trkpt>
<trkpt lat="35.042491" lon="-85.060287"><ele>345.3</ele><time>2026-08-03T19:13:53Z</time></trkpt>
<trkpt lat="35.04248" lon="-85.060322"><ele>345.6</ele><time>2026-08-03T19:13:57Z</time></trkpt>
<trkpt lat="35.042458" lon="-85.060364"><ele>345.6</ele><time>2026-08-03T19:14:00Z</time></trkpt>
<trkpt lat="35.042431" lon="-85.060382"><ele>345.3</ele><time>2026-08-03T19:14:02Z</time></trkpt>
<trkpt lat="35.04241" lon="-85.060414"><ele>346.6</ele><time>2026-08-03T19:14:05Z</time></trkpt>
<trkpt lat="35.042405" lon="-85.060457"><ele>347.5</ele><time>2026-08-03T19:14:08Z</time></trkpt>
<trkpt lat="35.042425" lon="-85.060486"><ele>346.9</ele><time>2026-08-03T19:14:11Z</time></trkpt>
<trkpt lat="35.042455" lon="-85.060463"><ele>346.9</ele><time>2026-08-03T19:14:14Z</time></trkpt>
<trkpt lat="35.04248" lon="-85.060438"><ele>346.3</ele><time>2026-08-03T19:14:17Z</time></trkpt>
<trkpt lat="35.042514" lon="-85.060419"><ele>347.2</ele><time>2026-08-03T19:14:20Z</time></trkpt>
<trkpt lat="35.042547" lon="-85.060405"><ele>345.9</ele><time>2026-08-03T19:14:23Z</time></trkpt>
<trkpt lat="35.04258" lon="-85.060375"><ele>344.1</ele><time>2026-08-03T19:14:26Z</time></trkpt>
<trkpt lat="35.042605" lon="-85.060337"><ele>345.0</ele><time>2026-08-03T19:14:29Z</time></trkpt>
<trkpt lat="35.04263" lon="-85.060321"><ele>342.9</ele><time>2026-08-03T19:14:31Z</time></trkpt>
<trkpt lat="35.04267" lon="-85.06031"><ele>342.9</ele><time>2026-08-03T19:14:34Z</time></trkpt>
<trkpt lat="35.042699" lon="-85.060311"><ele>343.5</ele><time>2026-08-03T19:14:36Z</time></trkpt>
<trkpt lat="35.042713" lon="-85.060347"><ele>344.1</ele><time>2026-08-03T19:14:39Z</time></trkpt>
<trkpt lat="35.042694" lon="-85.060379"><ele>345.6</ele><time>2026-08-03T19:14:41Z</time></trkpt>
<trkpt lat="35.042668" lon="-85.060406"><ele>346.9</ele><time>2026-08-03T19:14:44Z</time></trkpt>
<trkpt lat="35.042649" lon="-85.060432"><ele>346.3</ele><time>2026-08-03T19:14:47Z</time></trkpt>
<trkpt lat="35.042657" lon="-85.060473"><ele>348.7</ele><time>2026-08-03T19:14:50Z</time></trkpt>
<trkpt lat="35.042644" lon="-85.060517"><ele>348.7</ele><time>2026-08-03T19:14:53Z</time></trkpt>
<trkpt lat="35.042631" lon="-85.060554"><ele>348.1</ele><time>2026-08-03T19:14:55Z</time></trkpt>
<trkpt lat="35.042616" lon="-85.060587"><ele>350.2</ele><time>2026-08-03T19:14:57Z</time></trkpt>
<trkpt lat="35.042598" lon="-85.060616"><ele>349.6</ele><time>2026-08-03T19:14:59Z</time></trkpt>
<trkpt lat="35.042575" lon="-85.060643"><ele>349.6</ele><time>2026-08-03T19:15:01Z</time></trkpt>
<trkpt lat="35.042556" lon="-85.060685"><ele>350.5</ele><time>2026-08-03T19:15:04Z</time></trkpt>
<trkpt lat="35.042554" lon="-85.060727"><ele>350.5</ele><time>2026-08-03T19:15:07Z</time></trkpt>
<trkpt lat="35.042567" lon="-85.060771"><ele>351.4</ele><time>2026-08-03T19:15:10Z</time></trkpt>
<trkpt lat="35.042589" lon="-85.060795"><ele>351.4</ele><time>2026-08-03T19:15:12Z</time></trkpt>
<trkpt lat="35.042618" lon="-85.060807"><ele>350.5</ele><time>2026-08-03T19:15:14Z</time></trkpt>
<trkpt lat="35.042638" lon="-85.060782"><ele>350.2</ele><time>2026-08-03T19:15:17Z</time></trkpt>
<trkpt lat="35.042651" lon="-85.060742"><ele>349.6</ele><time>2026-08-03T19:15:20Z</time></trkpt>
<trkpt lat="35.042659" lon="-85.06071"><ele>350.2</ele><time>2026-08-03T19:15:22Z</time></trkpt>
<trkpt lat="35.042675" lon="-85.06068"><ele>352.0</ele><time>2026-08-03T19:15:24Z</time></trkpt>
<trkpt lat="35.042707" lon="-85.060662"><ele>353.3</ele><time>2026-08-03T19:15:26Z</time></trkpt>
<trkpt lat="35.042736" lon="-85.060657"><ele>354.2</ele><time>2026-08-03T19:15:28Z</time></trkpt>
<trkpt lat="35.042776" lon="-85.060664"><ele>355.1</ele><time>2026-08-03T19:15:31Z</time></trkpt>
<trkpt lat="35.042804" lon="-85.060678"><ele>355.7</ele><time>2026-08-03T19:15:33Z</time></trkpt>
<trkpt lat="35.04283" lon="-85.060701"><ele>355.7</ele><time>2026-08-03T19:15:36Z</time></trkpt>
<trkpt lat="35.042855" lon="-85.060734"><ele>356.6</ele><time>2026-08-03T19:15:39Z</time></trkpt>
<trkpt lat="35.042866" lon="-85.060766"><ele>355.7</ele><time>2026-08-03T19:15:42Z</time></trkpt>
<trkpt lat="35.042874" lon="-85.060808"><ele>354.8</ele><time>2026-08-03T19:15:45Z</time></trkpt>
<trkpt lat="35.042872" lon="-85.060843"><ele>352.7</ele><time>2026-08-03T19:15:48Z</time></trkpt>
<trkpt lat="35.042864" lon="-85.060878"><ele>352.3</ele><time>2026-08-03T19:15:51Z</time></trkpt>
<trkpt lat="35.042858" lon="-85.06092"><ele>353.0</ele><time>2026-08-03T19:15:54Z</time></trkpt>
<trkpt lat="35.042857" lon="-85.060968"><ele>353.6</ele><time>2026-08-03T19:15:57Z</time></trkpt>
<trkpt lat="35.04287" lon="-85.061009"><ele>353.9</ele><time>2026-08-03T19:16:00Z</time></trkpt>
<trkpt lat="35.0429" lon="-85.061021"><ele>354.8</ele><time>2026-08-03T19:16:02Z</time></trkpt>
<trkpt lat="35.042933" lon="-85.061047"><ele>355.4</ele><time>2026-08-03T19:16:05Z</time></trkpt>
<trkpt lat="35.042952" lon="-85.061083"><ele>351.7</ele><time>2026-08-03T19:16:10Z</time></trkpt>
<trkpt lat="35.042953" lon="-85.061091"><ele>352.7</ele><time>2026-08-03T19:16:11Z</time></trkpt>
<trkpt lat="35.042945" lon="-85.061083"><ele>351.1</ele><time>2026-08-03T19:16:12Z</time></trkpt>
<trkpt lat="35.042933" lon="-85.061069"><ele>348.7</ele><time>2026-08-03T19:16:26Z</time></trkpt>
<trkpt lat="35.042935" lon="-85.06108"><ele>348.7</ele><time>2026-08-03T19:16:27Z</time></trkpt>
<trkpt lat="35.042932" lon="-85.061091"><ele>349.6</ele><time>2026-08-03T19:16:29Z</time></trkpt>
<trkpt lat="35.042933" lon="-85.06109"><ele>349.6</ele><time>2026-08-03T19:16:30Z</time></trkpt>
<trkpt lat="35.042934" lon="-85.061093"><ele>352.0</ele><time>2026-08-03T19:16:38Z</time></trkpt>
<trkpt lat="35.042932" lon="-85.0611"><ele>352.7</ele><time>2026-08-03T19:16:39Z</time></trkpt>
<trkpt lat="35.042927" lon="-85.061142"><ele>353.3</ele><time>2026-08-03T19:16:42Z</time></trkpt>
<trkpt lat="35.04292" lon="-85.06119"><ele>354.8</ele><time>2026-08-03T19:16:45Z</time></trkpt>
<trkpt lat="35.042913" lon="-85.061229"><ele>355.7</ele><time>2026-08-03T19:16:47Z</time></trkpt>
<trkpt lat="35.042913" lon="-85.061271"><ele>356.3</ele><time>2026-08-03T19:16:49Z</time></trkpt>
<trkpt lat="35.042926" lon="-85.061306"><ele>355.7</ele><time>2026-08-03T19:16:51Z</time></trkpt>
<trkpt lat="35.042917" lon="-85.06135"><ele>353.9</ele><time>2026-08-03T19:16:54Z</time></trkpt>
<trkpt lat="35.042915" lon="-85.061386"><ele>355.1</ele><time>2026-08-03T19:16:57Z</time></trkpt>
<trkpt lat="35.04293" lon="-85.061342"><ele>353.3</ele><time>2026-08-03T19:16:58Z</time></trkpt>
<trkpt lat="35.042918" lon="-85.061379"><ele>355.1</ele><time>2026-08-03T19:16:59Z</time></trkpt>
<trkpt lat="35.042906" lon="-85.061416"><ele>355.1</ele><time>2026-08-03T19:17:02Z</time></trkpt>
<trkpt lat="35.042891" lon="-85.061448"><ele>354.2</ele><time>2026-08-03T19:17:04Z</time></trkpt>
<trkpt lat="35.042888" lon="-85.061485"><ele>354.2</ele><time>2026-08-03T19:17:06Z</time></trkpt>
<trkpt lat="35.042884" lon="-85.061525"><ele>354.8</ele><time>2026-08-03T19:17:08Z</time></trkpt>
<trkpt lat="35.04288" lon="-85.061561"><ele>354.5</ele><time>2026-08-03T19:17:10Z</time></trkpt>
<trkpt lat="35.042872" lon="-85.061597"><ele>354.5</ele><time>2026-08-03T19:17:12Z</time></trkpt>
<trkpt lat="35.042853" lon="-85.061638"><ele>354.2</ele><time>2026-08-03T19:17:15Z</time></trkpt>
<trkpt lat="35.042839" lon="-85.061669"><ele>353.3</ele><time>2026-08-03T19:17:17Z</time></trkpt>
<trkpt lat="35.042827" lon="-85.061702"><ele>353.6</ele><time>2026-08-03T19:17:19Z</time></trkpt>
<trkpt lat="35.042816" lon="-85.061749"><ele>353.9</ele><time>2026-08-03T19:17:22Z</time></trkpt>
<trkpt lat="35.042807" lon="-85.061784"><ele>354.5</ele><time>2026-08-03T19:17:24Z</time></trkpt>
<trkpt lat="35.042797" lon="-85.061819"><ele>354.5</ele><time>2026-08-03T19:17:26Z</time></trkpt>
<trkpt lat="35.042788" lon="-85.061851"><ele>354.2</ele><time>2026-08-03T19:17:28Z</time></trkpt>
<trkpt lat="35.042775" lon="-85.061886"><ele>355.4</ele><time>2026-08-03T19:17:30Z</time></trkpt>
<trkpt lat="35.042765" lon="-85.061921"><ele>355.1</ele><time>2026-08-03T19:17:32Z</time></trkpt>
<trkpt lat="35.042752" lon="-85.061955"><ele>355.1</ele><time>2026-08-03T19:17:34Z</time></trkpt>
<trkpt lat="35.042746" lon="-85.061994"><ele>353.6</ele><time>2026-08-03T19:17:36Z</time></trkpt>
<trkpt lat="35.042744" lon="-85.062029"><ele>353.3</ele><time>2026-08-03T19:17:38Z</time></trkpt>
<trkpt lat="35.042735" lon="-85.062066"><ele>352.7</ele><time>2026-08-03T19:17:40Z</time></trkpt>
<trkpt lat="35.042732" lon="-85.062104"><ele>351.7</ele><time>2026-08-03T19:17:42Z</time></trkpt>
<trkpt lat="35.042731" lon="-85.062138"><ele>351.7</ele><time>2026-08-03T19:17:44Z</time></trkpt>
<trkpt lat="35.042727" lon="-85.062185"><ele>351.4</ele><time>2026-08-03T19:17:47Z</time></trkpt>
<trkpt lat="35.042721" lon="-85.062231"><ele>350.8</ele><time>2026-08-03T19:17:50Z</time></trkpt>
<trkpt lat="35.042714" lon="-85.062282"><ele>349.6</ele><time>2026-08-03T19:17:53Z</time></trkpt>
<trkpt lat="35.042704" lon="-85.062314"><ele>347.8</ele><time>2026-08-03T19:17:55Z</time></trkpt>
<trkpt lat="35.042703" lon="-85.062349"><ele>346.9</ele><time>2026-08-03T19:17:57Z</time></trkpt>
<trkpt lat="35.042696" lon="-85.062382"><ele>346.6</ele><time>2026-08-03T19:17:59Z</time></trkpt>
<trkpt lat="35.042684" lon="-85.062427"><ele>345.9</ele><time>2026-08-03T19:18:02Z</time></trkpt>
<trkpt lat="35.042676" lon="-85.062476"><ele>346.3</ele><time>2026-08-03T19:18:05Z</time></trkpt>
<trkpt lat="35.042671" lon="-85.062511"><ele>345.0</ele><time>2026-08-03T19:18:07Z</time></trkpt>
<trkpt lat="35.042666" lon="-85.062548"><ele>343.5</ele><time>2026-08-03T19:18:09Z</time></trkpt>
<trkpt lat="35.042663" lon="-85.062584"><ele>341.4</ele><time>2026-08-03T19:18:11Z</time></trkpt>
<trkpt lat="35.042657" lon="-85.062632"><ele>342.0</ele><time>2026-08-03T19:18:14Z</time></trkpt>
<trkpt lat="35.042659" lon="-85.062666"><ele>342.0</ele><time>2026-08-03T19:18:16Z</time></trkpt>
<trkpt lat="35.042655" lon="-85.0627"><ele>341.4</ele><time>2026-08-03T19:18:18Z</time></trkpt>
<trkpt lat="35.042658" lon="-85.062734"><ele>341.1</ele><time>2026-08-03T19:18:20Z</time></trkpt>
<trkpt lat="35.042668" lon="-85.062767"><ele>341.7</ele><time>2026-08-03T19:18:22Z</time></trkpt>
<trkpt lat="35.042667" lon="-85.062819"><ele>340.8</ele><time>2026-08-03T19:18:25Z</time></trkpt>
<trkpt lat="35.042666" lon="-85.062855"><ele>339.2</ele><time>2026-08-03T19:18:27Z</time></trkpt>
<trkpt lat="35.042668" lon="-85.062891"><ele>337.4</ele><time>2026-08-03T19:18:29Z</time></trkpt>
<trkpt lat="35.042665" lon="-85.062926"><ele>337.7</ele><time>2026-08-03T19:18:31Z</time></trkpt>
<trkpt lat="35.042667" lon="-85.062962"><ele>337.7</ele><time>2026-08-03T19:18:33Z</time></trkpt>
<trkpt lat="35.042673" lon="-85.062996"><ele>338.0</ele><time>2026-08-03T19:18:35Z</time></trkpt>
<trkpt lat="35.042673" lon="-85.06303"><ele>337.7</ele><time>2026-08-03T19:18:37Z</time></trkpt>
<trkpt lat="35.042672" lon="-85.063065"><ele>338.3</ele><time>2026-08-03T19:18:39Z</time></trkpt>
<trkpt lat="35.042673" lon="-85.063099"><ele>337.7</ele><time>2026-08-03T19:18:41Z</time></trkpt>
<trkpt lat="35.042681" lon="-85.063134"><ele>336.8</ele><time>2026-08-03T19:18:43Z</time></trkpt>
<trkpt lat="35.042692" lon="-85.063169"><ele>335.9</ele><time>2026-08-03T19:18:45Z</time></trkpt>
<trkpt lat="35.042706" lon="-85.063218"><ele>335.0</ele><time>2026-08-03T19:18:48Z</time></trkpt>
<trkpt lat="35.042715" lon="-85.063253"><ele>335.3</ele><time>2026-08-03T19:18:50Z</time></trkpt>
<trkpt lat="35.042725" lon="-85.063288"><ele>335.3</ele><time>2026-08-03T19:18:52Z</time></trkpt>
<trkpt lat="35.042731" lon="-85.063324"><ele>335.6</ele><time>2026-08-03T19:18:54Z</time></trkpt>
<trkpt lat="35.042733" lon="-85.06336"><ele>334.7</ele><time>2026-08-03T19:18:56Z</time></trkpt>
<trkpt lat="35.042738" lon="-85.063396"><ele>334.7</ele><time>2026-08-03T19:18:58Z</time></trkpt>
<trkpt lat="35.042744" lon="-85.063431"><ele>333.5</ele><time>2026-08-03T19:19:00Z</time></trkpt>
<trkpt lat="35.042747" lon="-85.063479"><ele>333.5</ele><time>2026-08-03T19:19:03Z</time></trkpt>
<trkpt lat="35.042752" lon="-85.063527"><ele>335.9</ele><time>2026-08-03T19:19:06Z</time></trkpt>
<trkpt lat="35.042748" lon="-85.063572"><ele>334.7</ele><time>2026-08-03T19:19:09Z</time></trkpt>
<trkpt lat="35.04274" lon="-85.063618"><ele>333.5</ele><time>2026-08-03T19:19:12Z</time></trkpt>
<trkpt lat="35.042738" lon="-85.063652"><ele>331.6</ele><time>2026-08-03T19:19:14Z</time></trkpt>
<trkpt lat="35.042729" lon="-85.063685"><ele>331.3</ele><time>2026-08-03T19:19:16Z</time></trkpt>
<trkpt lat="35.042705" lon="-85.063719"><ele>329.8</ele><time>2026-08-03T19:19:19Z</time></trkpt>
<trkpt lat="35.042677" lon="-85.063744"><ele>326.7</ele><time>2026-08-03T19:19:22Z</time></trkpt>
<trkpt lat="35.042653" lon="-85.063761"><ele>328.9</ele><time>2026-08-03T19:19:24Z</time></trkpt>
<trkpt lat="35.042629" lon="-85.063783"><ele>329.2</ele><time>2026-08-03T19:19:26Z</time></trkpt>
<trkpt lat="35.042605" lon="-85.063803"><ele>328.0</ele><time>2026-08-03T19:19:28Z</time></trkpt>
<trkpt lat="35.042571" lon="-85.06383"><ele>327.7</ele><time>2026-08-03T19:19:31Z</time></trkpt>
<trkpt lat="35.042549" lon="-85.063852"><ele>326.4</ele><time>2026-08-03T19:19:33Z</time></trkpt>
<trkpt lat="35.042523" lon="-85.063866"><ele>327.4</ele><time>2026-08-03T19:19:35Z</time></trkpt>
<trkpt lat="35.042496" lon="-85.063885"><ele>328.6</ele><time>2026-08-03T19:19:37Z</time></trkpt>
<trkpt lat="35.042464" lon="-85.063903"><ele>331.3</ele><time>2026-08-03T19:19:39Z</time></trkpt>
<trkpt lat="35.042439" lon="-85.063926"><ele>330.4</ele><time>2026-08-03T19:19:41Z</time></trkpt>
<trkpt lat="35.042416" lon="-85.063947"><ele>330.4</ele><time>2026-08-03T19:19:43Z</time></trkpt>
<trkpt lat="35.042383" lon="-85.063978"><ele>332.2</ele><time>2026-08-03T19:19:46Z</time></trkpt>
<trkpt lat="35.042363" lon="-85.064005"><ele>331.3</ele><time>2026-08-03T19:19:48Z</time></trkpt>
<trkpt lat="35.042338" lon="-85.064025"><ele>332.2</ele><time>2026-08-03T19:19:50Z</time></trkpt>
<trkpt lat="35.042313" lon="-85.064041"><ele>332.2</ele><time>2026-08-03T19:19:52Z</time></trkpt>
<trkpt lat="35.042293" lon="-85.064067"><ele>329.5</ele><time>2026-08-03T19:19:54Z</time></trkpt>
<trkpt lat="35.042259" lon="-85.064096"><ele>330.1</ele><time>2026-08-03T19:19:57Z</time></trkpt>
<trkpt lat="35.042235" lon="-85.064112"><ele>331.3</ele><time>2026-08-03T19:19:59Z</time></trkpt>
<trkpt lat="35.042202" lon="-85.06414"><ele>330.7</ele><time>2026-08-03T19:20:02Z</time></trkpt>
<trkpt lat="35.042214" lon="-85.06418"><ele>335.6</ele><time>2026-08-03T19:20:04Z</time></trkpt>
<trkpt lat="35.042203" lon="-85.064229"><ele>340.5</ele><time>2026-08-03T19:20:07Z</time></trkpt>
<trkpt lat="35.042223" lon="-85.064204"><ele>335.6</ele><time>2026-08-03T19:20:08Z</time></trkpt>
<trkpt lat="35.042236" lon="-85.064185"><ele>335.0</ele><time>2026-08-03T19:20:14Z</time></trkpt>
<trkpt lat="35.042225" lon="-85.06418"><ele>335.3</ele><time>2026-08-03T19:20:15Z</time></trkpt>
<trkpt lat="35.042195" lon="-85.064184"><ele>336.5</ele><time>2026-08-03T19:20:18Z</time></trkpt>
<trkpt lat="35.04217" lon="-85.064204"><ele>335.0</ele><time>2026-08-03T19:20:20Z</time></trkpt>
<trkpt lat="35.04214" lon="-85.064233"><ele>335.3</ele><time>2026-08-03T19:20:22Z</time></trkpt>
<trkpt lat="35.042116" lon="-85.064261"><ele>335.0</ele><time>2026-08-03T19:20:24Z</time></trkpt>
<trkpt lat="35.042104" lon="-85.064292"><ele>335.9</ele><time>2026-08-03T19:20:26Z</time></trkpt>
<trkpt lat="35.04209" lon="-85.064319"><ele>337.1</ele><time>2026-08-03T19:20:29Z</time></trkpt>
<trkpt lat="35.042118" lon="-85.064309"><ele>333.5</ele><time>2026-08-03T19:20:30Z</time></trkpt>
<trkpt lat="35.042125" lon="-85.064306"><ele>333.5</ele><time>2026-08-03T19:20:31Z</time></trkpt>
<trkpt lat="35.042128" lon="-85.064317"><ele>333.5</ele><time>2026-08-03T19:20:32Z</time></trkpt>
<trkpt lat="35.042164" lon="-85.06433"><ele>332.5</ele><time>2026-08-03T19:20:34Z</time></trkpt>
<trkpt lat="35.042178" lon="-85.064294"><ele>331.0</ele><time>2026-08-03T19:20:36Z</time></trkpt>
<trkpt lat="35.042184" lon="-85.064252"><ele>331.3</ele><time>2026-08-03T19:20:38Z</time></trkpt>
<trkpt lat="35.042197" lon="-85.064214"><ele>332.2</ele><time>2026-08-03T19:20:40Z</time></trkpt>
<trkpt lat="35.042217" lon="-85.064186"><ele>332.5</ele><time>2026-08-03T19:20:42Z</time></trkpt>
<trkpt lat="35.042253" lon="-85.064179"><ele>333.1</ele><time>2026-08-03T19:20:45Z</time></trkpt>
<trkpt lat="35.042245" lon="-85.064215"><ele>331.3</ele><time>2026-08-03T19:20:48Z</time></trkpt>
<trkpt lat="35.04223" lon="-85.064244"><ele>329.2</ele><time>2026-08-03T19:20:51Z</time></trkpt>
<trkpt lat="35.04223" lon="-85.064286"><ele>328.9</ele><time>2026-08-03T19:20:55Z</time></trkpt>
<trkpt lat="35.042204" lon="-85.064303"><ele>329.5</ele><time>2026-08-03T19:20:58Z</time></trkpt>
<trkpt lat="35.042198" lon="-85.064341"><ele>329.8</ele><time>2026-08-03T19:21:01Z</time></trkpt>
<trkpt lat="35.042204" lon="-85.064383"><ele>329.8</ele><time>2026-08-03T19:21:04Z</time></trkpt>
<trkpt lat="35.042203" lon="-85.064431"><ele>330.4</ele><time>2026-08-03T19:21:07Z</time></trkpt>
<trkpt lat="35.042203" lon="-85.064476"><ele>330.1</ele><time>2026-08-03T19:21:10Z</time></trkpt>
<trkpt lat="35.042212" lon="-85.064522"><ele>329.2</ele><time>2026-08-03T19:21:13Z</time></trkpt>
<trkpt lat="35.042213" lon="-85.064567"><ele>330.7</ele><time>2026-08-03T19:21:16Z</time></trkpt>
<trkpt lat="35.042219" lon="-85.064604"><ele>329.8</ele><time>2026-08-03T19:21:19Z</time></trkpt>
<trkpt lat="35.042225" lon="-85.064647"><ele>328.9</ele><time>2026-08-03T19:21:22Z</time></trkpt>
<trkpt lat="35.042233" lon="-85.064692"><ele>331.0</ele><time>2026-08-03T19:21:25Z</time></trkpt>
<trkpt lat="35.042226" lon="-85.064737"><ele>332.5</ele><time>2026-08-03T19:21:28Z</time></trkpt>
<trkpt lat="35.042221" lon="-85.064782"><ele>334.7</ele><time>2026-08-03T19:21:31Z</time></trkpt>
<trkpt lat="35.042217" lon="-85.064827"><ele>337.1</ele><time>2026-08-03T19:21:34Z</time></trkpt>
<trkpt lat="35.042229" lon="-85.064863"><ele>337.7</ele><time>2026-08-03T19:21:36Z</time></trkpt>
<trkpt lat="35.042239" lon="-85.064905"><ele>337.1</ele><time>2026-08-03T19:21:39Z</time></trkpt>
<trkpt lat="35.042252" lon="-85.064943"><ele>336.2</ele><time>2026-08-03T19:21:42Z</time></trkpt>
<trkpt lat="35.042263" lon="-85.064981"><ele>337.1</ele><time>2026-08-03T19:21:45Z</time></trkpt>
<trkpt lat="35.042282" lon="-85.065014"><ele>338.0</ele><time>2026-08-03T19:21:48Z</time></trkpt>
<trkpt lat="35.042297" lon="-85.065051"><ele>340.2</ele><time>2026-08-03T19:21:51Z</time></trkpt>
<trkpt lat="35.042306" lon="-85.065089"><ele>338.6</ele><time>2026-08-03T19:21:54Z</time></trkpt>
<trkpt lat="35.042298" lon="-85.065095"><ele>338.0</ele><time>2026-08-03T19:21:55Z</time></trkpt>
<trkpt lat="35.042293" lon="-85.065075"><ele>338.6</ele><time>2026-08-03T19:21:56Z</time></trkpt>
<trkpt lat="35.042291" lon="-85.065067"><ele>338.9</ele><time>2026-08-03T19:21:58Z</time></trkpt>
<trkpt lat="35.042286" lon="-85.065067"><ele>339.5</ele><time>2026-08-03T19:21:59Z</time></trkpt>
<trkpt lat="35.042333" lon="-85.065101"><ele>335.6</ele><time>2026-08-03T19:22:00Z</time></trkpt>
<trkpt lat="35.042349" lon="-85.065129"><ele>336.8</ele><time>2026-08-03T19:22:02Z</time></trkpt>
<trkpt lat="35.042362" lon="-85.065161"><ele>341.4</ele><time>2026-08-03T19:22:05Z</time></trkpt>
<trkpt lat="35.042382" lon="-85.065199"><ele>341.4</ele><time>2026-08-03T19:22:08Z</time></trkpt>
<trkpt lat="35.042404" lon="-85.065229"><ele>343.2</ele><time>2026-08-03T19:22:11Z</time></trkpt>
<trkpt lat="35.042428" lon="-85.065258"><ele>341.4</ele><time>2026-08-03T19:22:14Z</time></trkpt>
<trkpt lat="35.042424" lon="-85.065292"><ele>345.0</ele><time>2026-08-03T19:22:17Z</time></trkpt>
<trkpt lat="35.04241" lon="-85.065325"><ele>347.5</ele><time>2026-08-03T19:22:20Z</time></trkpt>
<trkpt lat="35.0424" lon="-85.06536"><ele>346.3</ele><time>2026-08-03T19:22:25Z</time></trkpt>
<trkpt lat="35.04239" lon="-85.065394"><ele>345.6</ele><time>2026-08-03T19:22:29Z</time></trkpt>
<trkpt lat="35.042359" lon="-85.065411"><ele>346.6</ele><time>2026-08-03T19:22:34Z</time></trkpt>
<trkpt lat="35.04232" lon="-85.065406"><ele>346.9</ele><time>2026-08-03T19:22:37Z</time></trkpt>
<trkpt lat="35.042292" lon="-85.0654"><ele>346.3</ele><time>2026-08-03T19:22:39Z</time></trkpt>
<trkpt lat="35.042263" lon="-85.065391"><ele>345.9</ele><time>2026-08-03T19:22:41Z</time></trkpt>
<trkpt lat="35.04223" lon="-85.065391"><ele>346.3</ele><time>2026-08-03T19:22:44Z</time></trkpt>
<trkpt lat="35.042189" lon="-85.065392"><ele>346.3</ele><time>2026-08-03T19:22:47Z</time></trkpt>
<trkpt lat="35.042158" lon="-85.06539"><ele>346.3</ele><time>2026-08-03T19:22:49Z</time></trkpt>
<trkpt lat="35.042131" lon="-85.065387"><ele>346.3</ele><time>2026-08-03T19:22:51Z</time></trkpt>
<trkpt lat="35.042105" lon="-85.065403"><ele>346.9</ele><time>2026-08-03T19:22:53Z</time></trkpt>
<trkpt lat="35.042084" lon="-85.065427"><ele>348.1</ele><time>2026-08-03T19:22:55Z</time></trkpt>
<trkpt lat="35.04205" lon="-85.06545"><ele>349.9</ele><time>2026-08-03T19:22:58Z</time></trkpt>
<trkpt lat="35.042024" lon="-85.065459"><ele>350.2</ele><time>2026-08-03T19:23:00Z</time></trkpt>
<trkpt lat="35.041995" lon="-85.065457"><ele>351.4</ele><time>2026-08-03T19:23:02Z</time></trkpt>
<trkpt lat="35.041958" lon="-85.065444"><ele>349.6</ele><time>2026-08-03T19:23:05Z</time></trkpt>
<trkpt lat="35.041916" lon="-85.065438"><ele>349.3</ele><time>2026-08-03T19:23:08Z</time></trkpt>
<trkpt lat="35.041889" lon="-85.065441"><ele>349.3</ele><time>2026-08-03T19:23:10Z</time></trkpt>
<trkpt lat="35.041859" lon="-85.065448"><ele>349.3</ele><time>2026-08-03T19:23:12Z</time></trkpt>
<trkpt lat="35.04183" lon="-85.065462"><ele>349.6</ele><time>2026-08-03T19:23:14Z</time></trkpt>
<trkpt lat="35.041804" lon="-85.065475"><ele>350.8</ele><time>2026-08-03T19:23:16Z</time></trkpt>
<trkpt lat="35.041767" lon="-85.06549"><ele>351.7</ele><time>2026-08-03T19:23:19Z</time></trkpt>
<trkpt lat="35.041735" lon="-85.065484"><ele>349.0</ele><time>2026-08-03T19:23:22Z</time></trkpt>
<trkpt lat="35.04171" lon="-85.065468"><ele>346.6</ele><time>2026-08-03T19:23:25Z</time></trkpt>
<trkpt lat="35.041678" lon="-85.065455"><ele>345.0</ele><time>2026-08-03T19:23:28Z</time></trkpt>
<trkpt lat="35.04165" lon="-85.065463"><ele>344.7</ele><time>2026-08-03T19:23:30Z</time></trkpt>
<trkpt lat="35.041625" lon="-85.065479"><ele>344.7</ele><time>2026-08-03T19:23:32Z</time></trkpt>
<trkpt lat="35.041599" lon="-85.065493"><ele>346.6</ele><time>2026-08-03T19:23:34Z</time></trkpt>
<trkpt lat="35.041573" lon="-85.065514"><ele>346.3</ele><time>2026-08-03T19:23:36Z</time></trkpt>
<trkpt lat="35.041548" lon="-85.065531"><ele>345.9</ele><time>2026-08-03T19:23:38Z</time></trkpt>
<trkpt lat="35.041521" lon="-85.065547"><ele>345.9</ele><time>2026-08-03T19:23:40Z</time></trkpt>
<trkpt lat="35.041495" lon="-85.065564"><ele>345.6</ele><time>2026-08-03T19:23:42Z</time></trkpt>
<trkpt lat="35.04147" lon="-85.065576"><ele>346.6</ele><time>2026-08-03T19:23:44Z</time></trkpt>
<trkpt lat="35.041443" lon="-85.065588"><ele>347.2</ele><time>2026-08-03T19:23:46Z</time></trkpt>
<trkpt lat="35.041417" lon="-85.065601"><ele>346.3</ele><time>2026-08-03T19:23:48Z</time></trkpt>
<trkpt lat="35.041384" lon="-85.06562"><ele>346.6</ele><time>2026-08-03T19:23:51Z</time></trkpt>
<trkpt lat="35.041347" lon="-85.065641"><ele>348.1</ele><time>2026-08-03T19:23:54Z</time></trkpt>
<trkpt lat="35.041307" lon="-85.065645"><ele>346.3</ele><time>2026-08-03T19:23:57Z</time></trkpt>
<trkpt lat="35.041279" lon="-85.065645"><ele>345.6</ele><time>2026-08-03T19:23:59Z</time></trkpt>
<trkpt lat="35.041239" lon="-85.065647"><ele>344.7</ele><time>2026-08-03T19:24:02Z</time></trkpt>
<trkpt lat="35.041212" lon="-85.065659"><ele>345.3</ele><time>2026-08-03T19:24:04Z</time></trkpt>
<trkpt lat="35.041174" lon="-85.065673"><ele>345.0</ele><time>2026-08-03T19:24:07Z</time></trkpt>
<trkpt lat="35.041138" lon="-85.065684"><ele>346.6</ele><time>2026-08-03T19:24:10Z</time></trkpt>
<trkpt lat="35.041114" lon="-85.065705"><ele>345.3</ele><time>2026-08-03T19:24:12Z</time></trkpt>
<trkpt lat="35.04108" lon="-85.065735"><ele>346.9</ele><time>2026-08-03T19:24:15Z</time></trkpt>
<trkpt lat="35.041065" lon="-85.065767"><ele>346.9</ele><time>2026-08-03T19:24:17Z</time></trkpt>
<trkpt lat="35.041056" lon="-85.065801"><ele>346.9</ele><time>2026-08-03T19:24:19Z</time></trkpt>
<trkpt lat="35.04105" lon="-85.065839"><ele>345.0</ele><time>2026-08-03T19:24:21Z</time></trkpt>
<trkpt lat="35.041044" lon="-85.065874"><ele>343.5</ele><time>2026-08-03T19:24:23Z</time></trkpt>
<trkpt lat="35.04103" lon="-85.065904"><ele>343.2</ele><time>2026-08-03T19:24:25Z</time></trkpt>
<trkpt lat="35.040996" lon="-85.065923"><ele>344.1</ele><time>2026-08-03T19:24:28Z</time></trkpt>
<trkpt lat="35.040965" lon="-85.065924"><ele>345.0</ele><time>2026-08-03T19:24:30Z</time></trkpt>
<trkpt lat="35.040937" lon="-85.065929"><ele>345.6</ele><time>2026-08-03T19:24:32Z</time></trkpt>
<trkpt lat="35.040901" lon="-85.065947"><ele>344.4</ele><time>2026-08-03T19:24:35Z</time></trkpt>
<trkpt lat="35.040877" lon="-85.065982"><ele>343.8</ele><time>2026-08-03T19:24:38Z</time></trkpt>
<trkpt lat="35.040849" lon="-85.066015"><ele>342.0</ele><time>2026-08-03T19:24:41Z</time></trkpt>
<trkpt lat="35.040824" lon="-85.06603"><ele>342.9</ele><time>2026-08-03T19:24:43Z</time></trkpt>
<trkpt lat="35.040791" lon="-85.066045"><ele>345.0</ele><time>2026-08-03T19:24:46Z</time></trkpt>
<trkpt lat="35.040763" lon="-85.066062"><ele>344.7</ele><time>2026-08-03T19:24:49Z</time></trkpt>
<trkpt lat="35.040743" lon="-85.066096"><ele>345.9</ele><time>2026-08-03T19:24:52Z</time></trkpt>
<trkpt lat="35.040716" lon="-85.066126"><ele>345.9</ele><time>2026-08-03T19:24:55Z</time></trkpt>
<trkpt lat="35.040699" lon="-85.066164"><ele>343.8</ele><time>2026-08-03T19:24:58Z</time></trkpt>
<trkpt lat="35.040696" lon="-85.0662"><ele>344.7</ele><time>2026-08-03T19:25:00Z</time></trkpt>
<trkpt lat="35.040693" lon="-85.066234"><ele>344.4</ele><time>2026-08-03T19:25:02Z</time></trkpt>
<trkpt lat="35.040663" lon="-85.066265"><ele>345.6</ele><time>2026-08-03T19:25:05Z</time></trkpt>
<trkpt lat="35.040649" lon="-85.066296"><ele>345.3</ele><time>2026-08-03T19:25:08Z</time></trkpt>
<trkpt lat="35.040629" lon="-85.066328"><ele>345.9</ele><time>2026-08-03T19:25:11Z</time></trkpt>
<trkpt lat="35.040599" lon="-85.066344"><ele>345.6</ele><time>2026-08-03T19:25:14Z</time></trkpt>
<trkpt lat="35.040569" lon="-85.066369"><ele>344.4</ele><time>2026-08-03T19:25:17Z</time></trkpt>
<trkpt lat="35.040533" lon="-85.066383"><ele>346.3</ele><time>2026-08-03T19:25:20Z</time></trkpt>
<trkpt lat="35.040492" lon="-85.066383"><ele>346.6</ele><time>2026-08-03T19:25:23Z</time></trkpt>
<trkpt lat="35.040456" lon="-85.066392"><ele>348.1</ele><time>2026-08-03T19:25:26Z</time></trkpt>
<trkpt lat="35.040422" lon="-85.066411"><ele>348.7</ele><time>2026-08-03T19:25:29Z</time></trkpt>
<trkpt lat="35.040402" lon="-85.066437"><ele>348.1</ele><time>2026-08-03T19:25:31Z</time></trkpt>
<trkpt lat="35.040375" lon="-85.066473"><ele>349.6</ele><time>2026-08-03T19:25:34Z</time></trkpt>
<trkpt lat="35.040347" lon="-85.066507"><ele>349.3</ele><time>2026-08-03T19:25:37Z</time></trkpt>
<trkpt lat="35.040314" lon="-85.066533"><ele>351.7</ele><time>2026-08-03T19:25:40Z</time></trkpt>
<trkpt lat="35.040285" lon="-85.066559"><ele>352.3</ele><time>2026-08-03T19:25:43Z</time></trkpt>
<trkpt lat="35.040253" lon="-85.066572"><ele>351.7</ele><time>2026-08-03T19:25:46Z</time></trkpt>
<trkpt lat="35.040224" lon="-85.066586"><ele>351.4</ele><time>2026-08-03T19:25:49Z</time></trkpt>
<trkpt lat="35.040193" lon="-85.066613"><ele>351.1</ele><time>2026-08-03T19:25:52Z</time></trkpt>
<trkpt lat="35.040175" lon="-85.066638"><ele>350.8</ele><time>2026-08-03T19:25:54Z</time></trkpt>
<trkpt lat="35.040157" lon="-85.066663"><ele>352.0</ele><time>2026-08-03T19:25:56Z</time></trkpt>
<trkpt lat="35.040138" lon="-85.066702"><ele>351.7</ele><time>2026-08-03T19:25:59Z</time></trkpt>
<trkpt lat="35.040124" lon="-85.066746"><ele>353.0</ele><time>2026-08-03T19:26:02Z</time></trkpt>
<trkpt lat="35.040112" lon="-85.066782"><ele>354.2</ele><time>2026-08-03T19:26:05Z</time></trkpt>
<trkpt lat="35.040082" lon="-85.066807"><ele>356.0</ele><time>2026-08-03T19:26:08Z</time></trkpt>
<trkpt lat="35.040051" lon="-85.066819"><ele>355.7</ele><time>2026-08-03T19:26:11Z</time></trkpt>
<trkpt lat="35.040017" lon="-85.066824"><ele>355.4</ele><time>2026-08-03T19:26:14Z</time></trkpt>
<trkpt lat="35.039991" lon="-85.066849"><ele>354.8</ele><time>2026-08-03T19:26:17Z</time></trkpt>
<trkpt lat="35.039961" lon="-85.066874"><ele>353.9</ele><time>2026-08-03T19:26:20Z</time></trkpt>
<trkpt lat="35.039928" lon="-85.066891"><ele>353.6</ele><time>2026-08-03T19:26:23Z</time></trkpt>
<trkpt lat="35.039896" lon="-85.066916"><ele>353.9</ele><time>2026-08-03T19:26:26Z</time></trkpt>
<trkpt lat="35.039866" lon="-85.066943"><ele>353.6</ele><time>2026-08-03T19:26:29Z</time></trkpt>
<trkpt lat="35.039846" lon="-85.066983"><ele>352.7</ele><time>2026-08-03T19:26:32Z</time></trkpt>
<trkpt lat="35.039814" lon="-85.067002"><ele>353.3</ele><time>2026-08-03T19:26:35Z</time></trkpt>
<trkpt lat="35.039787" lon="-85.067036"><ele>353.6</ele><time>2026-08-03T19:26:38Z</time></trkpt>
<trkpt lat="35.039755" lon="-85.06706"><ele>356.0</ele><time>2026-08-03T19:26:41Z</time></trkpt>
<trkpt lat="35.039725" lon="-85.067079"><ele>356.6</ele><time>2026-08-03T19:26:44Z</time></trkpt>
<trkpt lat="35.039694" lon="-85.067088"><ele>356.9</ele><time>2026-08-03T19:26:47Z</time></trkpt>
<trkpt lat="35.039664" lon="-85.067113"><ele>357.2</ele><time>2026-08-03T19:26:50Z</time></trkpt>
<trkpt lat="35.03964" lon="-85.067146"><ele>356.9</ele><time>2026-08-03T19:26:53Z</time></trkpt>
<trkpt lat="35.039614" lon="-85.067181"><ele>357.2</ele><time>2026-08-03T19:26:56Z</time></trkpt>
<trkpt lat="35.03958" lon="-85.067202"><ele>357.8</ele><time>2026-08-03T19:26:59Z</time></trkpt>
<trkpt lat="35.039543" lon="-85.067209"><ele>358.7</ele><time>2026-08-03T19:27:02Z</time></trkpt>
<trkpt lat="35.039507" lon="-85.067224"><ele>358.7</ele><time>2026-08-03T19:27:05Z</time></trkpt>
<trkpt lat="35.039475" lon="-85.067245"><ele>357.5</ele><time>2026-08-03T19:27:08Z</time></trkpt>
<trkpt lat="35.039446" lon="-85.067267"><ele>359.7</ele><time>2026-08-03T19:27:11Z</time></trkpt>
<trkpt lat="35.039415" lon="-85.067282"><ele>359.4</ele><time>2026-08-03T19:27:14Z</time></trkpt>
<trkpt lat="35.039384" lon="-85.067302"><ele>360.3</ele><time>2026-08-03T19:27:17Z</time></trkpt>
<trkpt lat="35.039354" lon="-85.067325"><ele>359.7</ele><time>2026-08-03T19:27:20Z</time></trkpt>
<trkpt lat="35.039331" lon="-85.06736"><ele>360.6</ele><time>2026-08-03T19:27:23Z</time></trkpt>
<trkpt lat="35.039304" lon="-85.067392"><ele>360.6</ele><time>2026-08-03T19:27:26Z</time></trkpt>
<trkpt lat="35.039274" lon="-85.067411"><ele>360.3</ele><time>2026-08-03T19:27:29Z</time></trkpt>
<trkpt lat="35.03925" lon="-85.067441"><ele>361.5</ele><time>2026-08-03T19:27:32Z</time></trkpt>
<trkpt lat="35.039233" lon="-85.067478"><ele>361.2</ele><time>2026-08-03T19:27:35Z</time></trkpt>
<trkpt lat="35.039217" lon="-85.067518"><ele>363.0</ele><time>2026-08-03T19:27:38Z</time></trkpt>
<trkpt lat="35.039204" lon="-85.067556"><ele>363.0</ele><time>2026-08-03T19:27:41Z</time></trkpt>
<trkpt lat="35.03919" lon="-85.06759"><ele>364.5</ele><time>2026-08-03T19:27:44Z</time></trkpt>
<trkpt lat="35.039161" lon="-85.067602"><ele>366.1</ele><time>2026-08-03T19:27:47Z</time></trkpt>
<trkpt lat="35.039127" lon="-85.067619"><ele>365.5</ele><time>2026-08-03T19:27:50Z</time></trkpt>
<trkpt lat="35.039098" lon="-85.067647"><ele>365.8</ele><time>2026-08-03T19:27:53Z</time></trkpt>
<trkpt lat="35.03907" lon="-85.067662"><ele>364.8</ele><time>2026-08-03T19:27:56Z</time></trkpt>
<trkpt lat="35.039038" lon="-85.067681"><ele>366.4</ele><time>2026-08-03T19:27:59Z</time></trkpt>
<trkpt lat="35.039014" lon="-85.06771"><ele>366.1</ele><time>2026-08-03T19:28:02Z</time></trkpt>
<trkpt lat="35.039005" lon="-85.067754"><ele>367.0</ele><time>2026-08-03T19:28:05Z</time></trkpt>
<trkpt lat="35.038982" lon="-85.067781"><ele>367.6</ele><time>2026-08-03T19:28:08Z</time></trkpt>
<trkpt lat="35.038949" lon="-85.067794"><ele>365.2</ele><time>2026-08-03T19:28:11Z</time></trkpt>
<trkpt lat="35.038916" lon="-85.067811"><ele>364.2</ele><time>2026-08-03T19:28:14Z</time></trkpt>
<trkpt lat="35.038878" lon="-85.067821"><ele>367.0</ele><time>2026-08-03T19:28:17Z</time></trkpt>
<trkpt lat="35.038854" lon="-85.067842"><ele>367.3</ele><time>2026-08-03T19:28:19Z</time></trkpt>
<trkpt lat="35.038852" lon="-85.067891"><ele>367.3</ele><time>2026-08-03T19:28:23Z</time></trkpt>
<trkpt lat="35.03884" lon="-85.067932"><ele>366.7</ele><time>2026-08-03T19:28:26Z</time></trkpt>
<trkpt lat="35.038848" lon="-85.067969"><ele>366.7</ele><time>2026-08-03T19:28:29Z</time></trkpt>
<trkpt lat="35.038866" lon="-85.067995"><ele>367.6</ele><time>2026-08-03T19:28:32Z</time></trkpt>
<trkpt lat="35.038869" lon="-85.068"><ele>367.3</ele><time>2026-08-03T19:28:34Z</time></trkpt>
<trkpt lat="35.038872" lon="-85.067997"><ele>367.3</ele><time>2026-08-03T19:28:35Z</time></trkpt>
<trkpt lat="35.038875" lon="-85.067988"><ele>367.3</ele><time>2026-08-03T19:28:37Z</time></trkpt>
<trkpt lat="35.038874" lon="-85.067991"><ele>367.3</ele><time>2026-08-03T19:28:38Z</time></trkpt>
<trkpt lat="35.038872" lon="-85.067994"><ele>367.3</ele><time>2026-08-03T19:28:39Z</time></trkpt>
<trkpt lat="35.038872" lon="-85.067993"><ele>367.3</ele><time>2026-08-03T19:28:40Z</time></trkpt>
<trkpt lat="35.038871" lon="-85.067993"><ele>367.3</ele><time>2026-08-03T19:28:41Z</time></trkpt>
<trkpt lat="35.038871" lon="-85.067992"><ele>367.0</ele><time>2026-08-03T19:28:42Z</time></trkpt>
<trkpt lat="35.038875" lon="-85.067989"><ele>367.0</ele><time>2026-08-03T19:28:43Z</time></trkpt>
<trkpt lat="35.03888" lon="-85.06799"><ele>367.0</ele><time>2026-08-03T19:28:44Z</time></trkpt>
<trkpt lat="35.038886" lon="-85.067988"><ele>367.6</ele><time>2026-08-03T19:28:45Z</time></trkpt>
<trkpt lat="35.038914" lon="-85.067983"><ele>367.9</ele><time>2026-08-03T19:28:48Z</time></trkpt>
<trkpt lat="35.038947" lon="-85.06797"><ele>368.2</ele><time>2026-08-03T19:28:51Z</time></trkpt>
<trkpt lat="35.038979" lon="-85.067945"><ele>369.1</ele><time>2026-08-03T19:28:54Z</time></trkpt>
<trkpt lat="35.039011" lon="-85.067926"><ele>368.5</ele><time>2026-08-03T19:28:57Z</time></trkpt>
<trkpt lat="35.039052" lon="-85.067918"><ele>367.9</ele><time>2026-08-03T19:29:00Z</time></trkpt>
<trkpt lat="35.039088" lon="-85.067898"><ele>368.5</ele><time>2026-08-03T19:29:03Z</time></trkpt>
<trkpt lat="35.039123" lon="-85.067871"><ele>369.1</ele><time>2026-08-03T19:29:06Z</time></trkpt>
<trkpt lat="35.039153" lon="-85.067843"><ele>367.6</ele><time>2026-08-03T19:29:09Z</time></trkpt>
<trkpt lat="35.039163" lon="-85.067799"><ele>367.3</ele><time>2026-08-03T19:29:12Z</time></trkpt>
<trkpt lat="35.039175" lon="-85.067755"><ele>368.2</ele><time>2026-08-03T19:29:15Z</time></trkpt>
<trkpt lat="35.0392" lon="-85.067723"><ele>368.8</ele><time>2026-08-03T19:29:18Z</time></trkpt>
<trkpt lat="35.039236" lon="-85.0677"><ele>369.1</ele><time>2026-08-03T19:29:21Z</time></trkpt>
<trkpt lat="35.039253" lon="-85.06767"><ele>367.6</ele><time>2026-08-03T19:29:23Z</time></trkpt>
<trkpt lat="35.03927" lon="-85.067634"><ele>367.6</ele><time>2026-08-03T19:29:26Z</time></trkpt>
<trkpt lat="35.039298" lon="-85.067629"><ele>368.5</ele><time>2026-08-03T19:29:28Z</time></trkpt>
<trkpt lat="35.039337" lon="-85.067637"><ele>369.4</ele><time>2026-08-03T19:29:31Z</time></trkpt>
<trkpt lat="35.039364" lon="-85.067642"><ele>369.7</ele><time>2026-08-03T19:29:34Z</time></trkpt>
<trkpt lat="35.039386" lon="-85.067613"><ele>368.2</ele><time>2026-08-03T19:29:37Z</time></trkpt>
<trkpt lat="35.039408" lon="-85.067575"><ele>367.3</ele><time>2026-08-03T19:29:40Z</time></trkpt>
<trkpt lat="35.039443" lon="-85.067563"><ele>365.8</ele><time>2026-08-03T19:29:43Z</time></trkpt>
<trkpt lat="35.039475" lon="-85.067561"><ele>365.8</ele><time>2026-08-03T19:29:46Z</time></trkpt>
<trkpt lat="35.039509" lon="-85.067569"><ele>365.8</ele><time>2026-08-03T19:29:49Z</time></trkpt>
<trkpt lat="35.03954" lon="-85.067588"><ele>366.4</ele><time>2026-08-03T19:29:52Z</time></trkpt>
<trkpt lat="35.039566" lon="-85.067604"><ele>367.0</ele><time>2026-08-03T19:29:55Z</time></trkpt>
<trkpt lat="35.039599" lon="-85.067612"><ele>365.2</ele><time>2026-08-03T19:29:58Z</time></trkpt>
<trkpt lat="35.039628" lon="-85.067622"><ele>365.2</ele><time>2026-08-03T19:30:01Z</time></trkpt>
<trkpt lat="35.039664" lon="-85.067607"><ele>364.8</ele><time>2026-08-03T19:30:04Z</time></trkpt>
<trkpt lat="35.0397" lon="-85.067598"><ele>364.5</ele><time>2026-08-03T19:30:07Z</time></trkpt>
<trkpt lat="35.039734" lon="-85.067584"><ele>366.1</ele><time>2026-08-03T19:30:10Z</time></trkpt>
<trkpt lat="35.039766" lon="-85.067566"><ele>366.7</ele><time>2026-08-03T19:30:13Z</time></trkpt>
<trkpt lat="35.039796" lon="-85.067557"><ele>367.0</ele><time>2026-08-03T19:30:16Z</time></trkpt>
<trkpt lat="35.039824" lon="-85.067543"><ele>367.9</ele><time>2026-08-03T19:30:19Z</time></trkpt>
<trkpt lat="35.039847" lon="-85.067516"><ele>366.7</ele><time>2026-08-03T19:30:22Z</time></trkpt>
<trkpt lat="35.039875" lon="-85.0675"><ele>367.0</ele><time>2026-08-03T19:30:25Z</time></trkpt>
<trkpt lat="35.039911" lon="-85.067506"><ele>367.3</ele><time>2026-08-03T19:30:28Z</time></trkpt>
<trkpt lat="35.039948" lon="-85.06751"><ele>368.2</ele><time>2026-08-03T19:30:31Z</time></trkpt>
<trkpt lat="35.039983" lon="-85.067515"><ele>368.5</ele><time>2026-08-03T19:30:34Z</time></trkpt>
<trkpt lat="35.040018" lon="-85.067522"><ele>369.7</ele><time>2026-08-03T19:30:37Z</time></trkpt>
<trkpt lat="35.040047" lon="-85.067537"><ele>370.6</ele><time>2026-08-03T19:30:40Z</time></trkpt>
<trkpt lat="35.040079" lon="-85.067553"><ele>371.2</ele><time>2026-08-03T19:30:44Z</time></trkpt>
<trkpt lat="35.040108" lon="-85.067547"><ele>372.8</ele><time>2026-08-03T19:30:47Z</time></trkpt>
<trkpt lat="35.040136" lon="-85.067532"><ele>372.5</ele><time>2026-08-03T19:30:50Z</time></trkpt>
<trkpt lat="35.040164" lon="-85.067514"><ele>373.1</ele><time>2026-08-03T19:30:53Z</time></trkpt>
<trkpt lat="35.040194" lon="-85.067496"><ele>373.7</ele><time>2026-08-03T19:30:56Z</time></trkpt>
<trkpt lat="35.040229" lon="-85.067512"><ele>375.2</ele><time>2026-08-03T19:30:59Z</time></trkpt>
<trkpt lat="35.040249" lon="-85.067539"><ele>376.4</ele><time>2026-08-03T19:31:02Z</time></trkpt>
<trkpt lat="35.040278" lon="-85.067542"><ele>377.6</ele><time>2026-08-03T19:31:05Z</time></trkpt>
<trkpt lat="35.040301" lon="-85.067519"><ele>378.0</ele><time>2026-08-03T19:31:08Z</time></trkpt>
<trkpt lat="35.040329" lon="-85.067496"><ele>377.3</ele><time>2026-08-03T19:31:11Z</time></trkpt>
<trkpt lat="35.040363" lon="-85.067488"><ele>377.6</ele><time>2026-08-03T19:31:14Z</time></trkpt>
<trkpt lat="35.040397" lon="-85.067488"><ele>378.0</ele><time>2026-08-03T19:31:17Z</time></trkpt>
<trkpt lat="35.040427" lon="-85.067474"><ele>377.6</ele><time>2026-08-03T19:31:20Z</time></trkpt>
<trkpt lat="35.040459" lon="-85.067458"><ele>377.3</ele><time>2026-08-03T19:31:23Z</time></trkpt>
<trkpt lat="35.040489" lon="-85.067433"><ele>376.7</ele><time>2026-08-03T19:31:26Z</time></trkpt>
<trkpt lat="35.040523" lon="-85.067413"><ele>375.8</ele><time>2026-08-03T19:31:29Z</time></trkpt>
<trkpt lat="35.040559" lon="-85.067403"><ele>376.7</ele><time>2026-08-03T19:31:32Z</time></trkpt>
<trkpt lat="35.040598" lon="-85.067408"><ele>377.6</ele><time>2026-08-03T19:31:35Z</time></trkpt>
<trkpt lat="35.040632" lon="-85.067398"><ele>377.6</ele><time>2026-08-03T19:31:38Z</time></trkpt>
<trkpt lat="35.040664" lon="-85.067381"><ele>376.1</ele><time>2026-08-03T19:31:41Z</time></trkpt>
<trkpt lat="35.040699" lon="-85.067364"><ele>376.4</ele><time>2026-08-03T19:31:44Z</time></trkpt>
<trkpt lat="35.040729" lon="-85.067344"><ele>377.3</ele><time>2026-08-03T19:31:47Z</time></trkpt>
<trkpt lat="35.04076" lon="-85.067324"><ele>376.7</ele><time>2026-08-03T19:31:50Z</time></trkpt>
<trkpt lat="35.040794" lon="-85.067312"><ele>377.6</ele><time>2026-08-03T19:31:53Z</time></trkpt>
<trkpt lat="35.040831" lon="-85.067304"><ele>377.6</ele><time>2026-08-03T19:31:56Z</time></trkpt>
<trkpt lat="35.040866" lon="-85.067294"><ele>378.0</ele><time>2026-08-03T19:31:59Z</time></trkpt>
<trkpt lat="35.040898" lon="-85.067272"><ele>377.3</ele><time>2026-08-03T19:32:02Z</time></trkpt>
<trkpt lat="35.040934" lon="-85.067263"><ele>378.0</ele><time>2026-08-03T19:32:05Z</time></trkpt>
<trkpt lat="35.040968" lon="-85.067244"><ele>378.6</ele><time>2026-08-03T19:32:08Z</time></trkpt>
<trkpt lat="35.040993" lon="-85.067228"><ele>378.9</ele><time>2026-08-03T19:32:10Z</time></trkpt>
<trkpt lat="35.041031" lon="-85.067212"><ele>379.5</ele><time>2026-08-03T19:32:13Z</time></trkpt>
<trkpt lat="35.04107" lon="-85.067208"><ele>378.3</ele><time>2026-08-03T19:32:16Z</time></trkpt>
<trkpt lat="35.041108" lon="-85.067196"><ele>378.3</ele><time>2026-08-03T19:32:19Z</time></trkpt>
<trkpt lat="35.041141" lon="-85.06717"><ele>378.3</ele><time>2026-08-03T19:32:22Z</time></trkpt>
<trkpt lat="35.041171" lon="-85.067165"><ele>379.5</ele><time>2026-08-03T19:32:24Z</time></trkpt>
<trkpt lat="35.041207" lon="-85.06715"><ele>379.2</ele><time>2026-08-03T19:32:27Z</time></trkpt>
<trkpt lat="35.041246" lon="-85.067135"><ele>379.8</ele><time>2026-08-03T19:32:30Z</time></trkpt>
<trkpt lat="35.041275" lon="-85.06712"><ele>379.8</ele><time>2026-08-03T19:32:32Z</time></trkpt>
<trkpt lat="35.04131" lon="-85.067098"><ele>379.8</ele><time>2026-08-03T19:32:35Z</time></trkpt>
<trkpt lat="35.041337" lon="-85.067089"><ele>380.7</ele><time>2026-08-03T19:32:37Z</time></trkpt>
<trkpt lat="35.041377" lon="-85.067097"><ele>380.7</ele><time>2026-08-03T19:32:40Z</time></trkpt>
<trkpt lat="35.041416" lon="-85.067099"><ele>381.9</ele><time>2026-08-03T19:32:43Z</time></trkpt>
<trkpt lat="35.041438" lon="-85.067077"><ele>381.3</ele><time>2026-08-03T19:32:45Z</time></trkpt>
<trkpt lat="35.041461" lon="-85.067058"><ele>380.7</ele><time>2026-08-03T19:32:47Z</time></trkpt>
<trkpt lat="35.041496" lon="-85.067042"><ele>381.6</ele><time>2026-08-03T19:32:50Z</time></trkpt>
<trkpt lat="35.041531" lon="-85.067027"><ele>381.6</ele><time>2026-08-03T19:32:53Z</time></trkpt>
<trkpt lat="35.041567" lon="-85.06702"><ele>382.5</ele><time>2026-08-03T19:32:56Z</time></trkpt>
<trkpt lat="35.041601" lon="-85.067016"><ele>383.1</ele><time>2026-08-03T19:32:59Z</time></trkpt>
<trkpt lat="35.041631" lon="-85.067005"><ele>385.6</ele><time>2026-08-03T19:33:02Z</time></trkpt>
<trkpt lat="35.041641" lon="-85.06701"><ele>385.9</ele><time>2026-08-03T19:33:03Z</time></trkpt>
<trkpt lat="35.041639" lon="-85.067011"><ele>385.9</ele><time>2026-08-03T19:33:04Z</time></trkpt>
<trkpt lat="35.041639" lon="-85.067011"><ele>385.9</ele><time>2026-08-03T19:33:07Z</time></trkpt>
<trkpt lat="35.04164" lon="-85.067009"><ele>385.9</ele><time>2026-08-03T19:33:08Z</time></trkpt>
<trkpt lat="35.041664" lon="-85.066973"><ele>384.4</ele><time>2026-08-03T19:33:12Z</time></trkpt>
<trkpt lat="35.0417" lon="-85.066953"><ele>384.0</ele><time>2026-08-03T19:33:15Z</time></trkpt>
<trkpt lat="35.041731" lon="-85.066948"><ele>385.0</ele><time>2026-08-03T19:33:18Z</time></trkpt>
<trkpt lat="35.041758" lon="-85.066948"><ele>384.7</ele><time>2026-08-03T19:33:21Z</time></trkpt>
<trkpt lat="35.041787" lon="-85.066926"><ele>384.7</ele><time>2026-08-03T19:33:24Z</time></trkpt>
<trkpt lat="35.041813" lon="-85.066906"><ele>385.6</ele><time>2026-08-03T19:33:27Z</time></trkpt>
<trkpt lat="35.041838" lon="-85.066876"><ele>384.7</ele><time>2026-08-03T19:33:30Z</time></trkpt>
<trkpt lat="35.041871" lon="-85.066868"><ele>384.0</ele><time>2026-08-03T19:33:33Z</time></trkpt>
<trkpt lat="35.041905" lon="-85.06688"><ele>384.4</ele><time>2026-08-03T19:33:36Z</time></trkpt>
<trkpt lat="35.041936" lon="-85.066866"><ele>385.0</ele><time>2026-08-03T19:33:39Z</time></trkpt>
<trkpt lat="35.041966" lon="-85.066845"><ele>384.4</ele><time>2026-08-03T19:33:42Z</time></trkpt>
<trkpt lat="35.041998" lon="-85.066821"><ele>384.4</ele><time>2026-08-03T19:33:45Z</time></trkpt>
<trkpt lat="35.042032" lon="-85.066797"><ele>384.7</ele><time>2026-08-03T19:33:48Z</time></trkpt>
<trkpt lat="35.042062" lon="-85.066771"><ele>384.4</ele><time>2026-08-03T19:33:51Z</time></trkpt>
<trkpt lat="35.042093" lon="-85.066747"><ele>384.4</ele><time>2026-08-03T19:33:54Z</time></trkpt>
<trkpt lat="35.042119" lon="-85.066717"><ele>384.7</ele><time>2026-08-03T19:33:57Z</time></trkpt>
<trkpt lat="35.042155" lon="-85.066709"><ele>384.0</ele><time>2026-08-03T19:34:00Z</time></trkpt>
<trkpt lat="35.042193" lon="-85.066708"><ele>384.7</ele><time>2026-08-03T19:34:03Z</time></trkpt>
<trkpt lat="35.042216" lon="-85.066685"><ele>383.1</ele><time>2026-08-03T19:34:05Z</time></trkpt>
<trkpt lat="35.042237" lon="-85.066663"><ele>382.5</ele><time>2026-08-03T19:34:07Z</time></trkpt>
<trkpt lat="35.042271" lon="-85.066642"><ele>383.1</ele><time>2026-08-03T19:34:10Z</time></trkpt>
<trkpt lat="35.042302" lon="-85.066616"><ele>382.5</ele><time>2026-08-03T19:34:13Z</time></trkpt>
<trkpt lat="35.042335" lon="-85.066593"><ele>382.5</ele><time>2026-08-03T19:34:16Z</time></trkpt>
<trkpt lat="35.042367" lon="-85.066588"><ele>382.5</ele><time>2026-08-03T19:34:19Z</time></trkpt>
<trkpt lat="35.042402" lon="-85.066591"><ele>383.4</ele><time>2026-08-03T19:34:22Z</time></trkpt>
<trkpt lat="35.042429" lon="-85.066612"><ele>385.3</ele><time>2026-08-03T19:34:25Z</time></trkpt>
<trkpt lat="35.042451" lon="-85.066631"><ele>385.6</ele><time>2026-08-03T19:34:28Z</time></trkpt>
<trkpt lat="35.042478" lon="-85.066606"><ele>385.0</ele><time>2026-08-03T19:34:31Z</time></trkpt>
<trkpt lat="35.042502" lon="-85.066575"><ele>383.7</ele><time>2026-08-03T19:34:34Z</time></trkpt>
<trkpt lat="35.042525" lon="-85.066542"><ele>383.4</ele><time>2026-08-03T19:34:37Z</time></trkpt>
<trkpt lat="35.042555" lon="-85.066516"><ele>382.8</ele><time>2026-08-03T19:34:40Z</time></trkpt>
<trkpt lat="35.042585" lon="-85.066486"><ele>382.8</ele><time>2026-08-03T19:34:43Z</time></trkpt>
<trkpt lat="35.042619" lon="-85.066461"><ele>383.1</ele><time>2026-08-03T19:34:46Z</time></trkpt>
<trkpt lat="35.042647" lon="-85.066459"><ele>384.0</ele><time>2026-08-03T19:34:48Z</time></trkpt>
<trkpt lat="35.042676" lon="-85.066469"><ele>385.0</ele><time>2026-08-03T19:34:50Z</time></trkpt>
<trkpt lat="35.042702" lon="-85.066485"><ele>384.7</ele><time>2026-08-03T19:34:52Z</time></trkpt>
<trkpt lat="35.042734" lon="-85.066489"><ele>384.7</ele><time>2026-08-03T19:34:55Z</time></trkpt>
<trkpt lat="35.042772" lon="-85.066488"><ele>385.0</ele><time>2026-08-03T19:34:58Z</time></trkpt>
<trkpt lat="35.042805" lon="-85.066471"><ele>385.6</ele><time>2026-08-03T19:35:01Z</time></trkpt>
<trkpt lat="35.042841" lon="-85.066456"><ele>386.2</ele><time>2026-08-03T19:35:04Z</time></trkpt>
<trkpt lat="35.042869" lon="-85.066422"><ele>385.9</ele><time>2026-08-03T19:35:07Z</time></trkpt>
<trkpt lat="35.042898" lon="-85.066392"><ele>384.7</ele><time>2026-08-03T19:35:10Z</time></trkpt>
<trkpt lat="35.042935" lon="-85.066378"><ele>384.4</ele><time>2026-08-03T19:35:13Z</time></trkpt>
<trkpt lat="35.042974" lon="-85.066368"><ele>384.7</ele><time>2026-08-03T19:35:16Z</time></trkpt>
<trkpt lat="35.043013" lon="-85.066367"><ele>385.6</ele><time>2026-08-03T19:35:19Z</time></trkpt>
<trkpt lat="35.043049" lon="-85.066348"><ele>383.7</ele><time>2026-08-03T19:35:22Z</time></trkpt>
<trkpt lat="35.043075" lon="-85.06633"><ele>383.4</ele><time>2026-08-03T19:35:24Z</time></trkpt>
<trkpt lat="35.043111" lon="-85.066324"><ele>384.4</ele><time>2026-08-03T19:35:27Z</time></trkpt>
<trkpt lat="35.043149" lon="-85.066304"><ele>383.1</ele><time>2026-08-03T19:35:30Z</time></trkpt>
<trkpt lat="35.043187" lon="-85.066288"><ele>383.1</ele><time>2026-08-03T19:35:33Z</time></trkpt>
<trkpt lat="35.043209" lon="-85.066266"><ele>382.5</ele><time>2026-08-03T19:35:35Z</time></trkpt>
<trkpt lat="35.043227" lon="-85.06624"><ele>381.9</ele><time>2026-08-03T19:35:37Z</time></trkpt>
<trkpt lat="35.043263" lon="-85.066221"><ele>381.0</ele><time>2026-08-03T19:35:40Z</time></trkpt>
<trkpt lat="35.043291" lon="-85.066195"><ele>380.1</ele><time>2026-08-03T19:35:43Z</time></trkpt>
<trkpt lat="35.043327" lon="-85.066174"><ele>381.0</ele><time>2026-08-03T19:35:46Z</time></trkpt>
<trkpt lat="35.04335" lon="-85.066154"><ele>380.1</ele><time>2026-08-03T19:35:48Z</time></trkpt>
<trkpt lat="35.04337" lon="-85.066124"><ele>380.1</ele><time>2026-08-03T19:35:50Z</time></trkpt>
<trkpt lat="35.043389" lon="-85.066095"><ele>380.1</ele><time>2026-08-03T19:35:52Z</time></trkpt>
<trkpt lat="35.04341" lon="-85.066065"><ele>378.6</ele><time>2026-08-03T19:35:55Z</time></trkpt>
<trkpt lat="35.043445" lon="-85.066043"><ele>379.2</ele><time>2026-08-03T19:35:58Z</time></trkpt>
<trkpt lat="35.043483" lon="-85.066041"><ele>379.8</ele><time>2026-08-03T19:36:01Z</time></trkpt>
<trkpt lat="35.04352" lon="-85.066024"><ele>380.1</ele><time>2026-08-03T19:36:04Z</time></trkpt>
<trkpt lat="35.043553" lon="-85.066007"><ele>378.6</ele><time>2026-08-03T19:36:07Z</time></trkpt>
<trkpt lat="35.043582" lon="-85.065987"><ele>377.6</ele><time>2026-08-03T19:36:10Z</time></trkpt>
<trkpt lat="35.043615" lon="-85.06597"><ele>378.0</ele><time>2026-08-03T19:36:13Z</time></trkpt>
<trkpt lat="35.043634" lon="-85.065927"><ele>377.6</ele><time>2026-08-03T19:36:16Z</time></trkpt>
<trkpt lat="35.04366" lon="-85.065904"><ele>375.5</ele><time>2026-08-03T19:36:19Z</time></trkpt>
<trkpt lat="35.043693" lon="-85.065905"><ele>375.5</ele><time>2026-08-03T19:36:22Z</time></trkpt>
<trkpt lat="35.043722" lon="-85.065881"><ele>375.5</ele><time>2026-08-03T19:36:25Z</time></trkpt>
<trkpt lat="35.04375" lon="-85.065862"><ele>374.9</ele><time>2026-08-03T19:36:28Z</time></trkpt>
<trkpt lat="35.043775" lon="-85.065845"><ele>375.8</ele><time>2026-08-03T19:36:31Z</time></trkpt>
<trkpt lat="35.043804" lon="-85.065835"><ele>375.5</ele><time>2026-08-03T19:36:34Z</time></trkpt>
<trkpt lat="35.043837" lon="-85.065819"><ele>375.5</ele><time>2026-08-03T19:36:38Z</time></trkpt>
<trkpt lat="35.043853" lon="-85.065814"><ele>376.7</ele><time>2026-08-03T19:36:40Z</time></trkpt>
<trkpt lat="35.043849" lon="-85.065815"><ele>376.1</ele><time>2026-08-03T19:36:41Z</time></trkpt>
<trkpt lat="35.043847" lon="-85.065815"><ele>376.1</ele><time>2026-08-03T19:36:53Z</time></trkpt>
<trkpt lat="35.043849" lon="-85.065809"><ele>375.8</ele><time>2026-08-03T19:36:54Z</time></trkpt>
<trkpt lat="35.04387" lon="-85.065781"><ele>373.4</ele><time>2026-08-03T19:37:00Z</time></trkpt>
<trkpt lat="35.043897" lon="-85.065764"><ele>373.4</ele><time>2026-08-03T19:37:04Z</time></trkpt>
<trkpt lat="35.043908" lon="-85.065726"><ele>374.9</ele><time>2026-08-03T19:37:08Z</time></trkpt>
<trkpt lat="35.043922" lon="-85.065697"><ele>374.3</ele><time>2026-08-03T19:37:12Z</time></trkpt>
<trkpt lat="35.043916" lon="-85.065651"><ele>376.4</ele><time>2026-08-03T19:37:15Z</time></trkpt>
<trkpt lat="35.043885" lon="-85.065646"><ele>376.7</ele><time>2026-08-03T19:37:16Z</time></trkpt>
<trkpt lat="35.043858" lon="-85.065676"><ele>375.2</ele><time>2026-08-03T19:37:18Z</time></trkpt>
<trkpt lat="35.043821" lon="-85.065678"><ele>375.2</ele><time>2026-08-03T19:37:21Z</time></trkpt>
<trkpt lat="35.043794" lon="-85.06566"><ele>374.3</ele><time>2026-08-03T19:37:24Z</time></trkpt>
<trkpt lat="35.043761" lon="-85.065655"><ele>374.6</ele><time>2026-08-03T19:37:27Z</time></trkpt>
<trkpt lat="35.043724" lon="-85.065659"><ele>372.8</ele><time>2026-08-03T19:37:30Z</time></trkpt>
<trkpt lat="35.043686" lon="-85.065647"><ele>373.7</ele><time>2026-08-03T19:37:33Z</time></trkpt>
<trkpt lat="35.04365" lon="-85.065638"><ele>374.3</ele><time>2026-08-03T19:37:36Z</time></trkpt>
<trkpt lat="35.043612" lon="-85.065645"><ele>373.1</ele><time>2026-08-03T19:37:39Z</time></trkpt>
<trkpt lat="35.043584" lon="-85.06565"><ele>372.5</ele><time>2026-08-03T19:37:41Z</time></trkpt>
<trkpt lat="35.043546" lon="-85.065642"><ele>373.1</ele><time>2026-08-03T19:37:44Z</time></trkpt>
<trkpt lat="35.043509" lon="-85.065631"><ele>371.9</ele><time>2026-08-03T19:37:47Z</time></trkpt>
<trkpt lat="35.043474" lon="-85.065625"><ele>371.9</ele><time>2026-08-03T19:37:50Z</time></trkpt>
<trkpt lat="35.043434" lon="-85.065632"><ele>371.6</ele><time>2026-08-03T19:37:53Z</time></trkpt>
<trkpt lat="35.043418" lon="-85.065593"><ele>369.4</ele><time>2026-08-03T19:37:56Z</time></trkpt>
<trkpt lat="35.043442" lon="-85.065559"><ele>370.0</ele><time>2026-08-03T19:37:59Z</time></trkpt>
<trkpt lat="35.043476" lon="-85.065537"><ele>370.3</ele><time>2026-08-03T19:38:02Z</time></trkpt>
<trkpt lat="35.043504" lon="-85.065504"><ele>370.0</ele><time>2026-08-03T19:38:05Z</time></trkpt>
<trkpt lat="35.043538" lon="-85.065484"><ele>369.7</ele><time>2026-08-03T19:38:08Z</time></trkpt>
<trkpt lat="35.043576" lon="-85.065479"><ele>368.2</ele><time>2026-08-03T19:38:11Z</time></trkpt>
<trkpt lat="35.043612" lon="-85.065469"><ele>367.6</ele><time>2026-08-03T19:38:14Z</time></trkpt>
<trkpt lat="35.043644" lon="-85.065454"><ele>367.9</ele><time>2026-08-03T19:38:17Z</time></trkpt>
<trkpt lat="35.043674" lon="-85.065436"><ele>367.9</ele><time>2026-08-03T19:38:20Z</time></trkpt>
<trkpt lat="35.04371" lon="-85.065418"><ele>366.7</ele><time>2026-08-03T19:38:23Z</time></trkpt>
<trkpt lat="35.043743" lon="-85.065407"><ele>367.3</ele><time>2026-08-03T19:38:26Z</time></trkpt>
<trkpt lat="35.043765" lon="-85.065381"><ele>367.6</ele><time>2026-08-03T19:38:29Z</time></trkpt>
<trkpt lat="35.04379" lon="-85.065365"><ele>367.6</ele><time>2026-08-03T19:38:32Z</time></trkpt>
<trkpt lat="35.043819" lon="-85.065344"><ele>368.5</ele><time>2026-08-03T19:38:36Z</time></trkpt>
<trkpt lat="35.043818" lon="-85.065344"><ele>368.2</ele><time>2026-08-03T19:38:37Z</time></trkpt>
<trkpt lat="35.043817" lon="-85.065344"><ele>368.2</ele><time>2026-08-03T19:38:43Z</time></trkpt>
<trkpt lat="35.043817" lon="-85.06534"><ele>367.6</ele><time>2026-08-03T19:38:44Z</time></trkpt>
<trkpt lat="35.04384" lon="-85.065306"><ele>366.7</ele><time>2026-08-03T19:38:48Z</time></trkpt>
<trkpt lat="35.043866" lon="-85.065293"><ele>366.4</ele><time>2026-08-03T19:38:51Z</time></trkpt>
<trkpt lat="35.043895" lon="-85.065282"><ele>365.8</ele><time>2026-08-03T19:38:54Z</time></trkpt>
<trkpt lat="35.043926" lon="-85.065262"><ele>364.8</ele><time>2026-08-03T19:38:57Z</time></trkpt>
<trkpt lat="35.043962" lon="-85.06525"><ele>363.9</ele><time>2026-08-03T19:39:00Z</time></trkpt>
<trkpt lat="35.043997" lon="-85.065241"><ele>363.3</ele><time>2026-08-03T19:39:03Z</time></trkpt>
<trkpt lat="35.044035" lon="-85.065236"><ele>362.7</ele><time>2026-08-03T19:39:06Z</time></trkpt>
<trkpt lat="35.04407" lon="-85.065218"><ele>361.2</ele><time>2026-08-03T19:39:09Z</time></trkpt>
<trkpt lat="35.044105" lon="-85.065201"><ele>360.9</ele><time>2026-08-03T19:39:12Z</time></trkpt>
<trkpt lat="35.044136" lon="-85.065184"><ele>361.2</ele><time>2026-08-03T19:39:15Z</time></trkpt>
<trkpt lat="35.044171" lon="-85.065173"><ele>361.2</ele><time>2026-08-03T19:39:18Z</time></trkpt>
<trkpt lat="35.044205" lon="-85.065159"><ele>361.8</ele><time>2026-08-03T19:39:21Z</time></trkpt>
<trkpt lat="35.044237" lon="-85.065132"><ele>360.6</ele><time>2026-08-03T19:39:24Z</time></trkpt>
<trkpt lat="35.044266" lon="-85.065114"><ele>359.1</ele><time>2026-08-03T19:39:26Z</time></trkpt>
<trkpt lat="35.044295" lon="-85.065104"><ele>358.7</ele><time>2026-08-03T19:39:28Z</time></trkpt>
<trkpt lat="35.044331" lon="-85.065084"><ele>357.5</ele><time>2026-08-03T19:39:31Z</time></trkpt>
<trkpt lat="35.044369" lon="-85.065077"><ele>356.6</ele><time>2026-08-03T19:39:34Z</time></trkpt>
<trkpt lat="35.044409" lon="-85.065084"><ele>356.9</ele><time>2026-08-03T19:39:37Z</time></trkpt>
<trkpt lat="35.044442" lon="-85.065064"><ele>356.6</ele><time>2026-08-03T19:39:40Z</time></trkpt>
<trkpt lat="35.044464" lon="-85.065025"><ele>355.4</ele><time>2026-08-03T19:39:43Z</time></trkpt>
<trkpt lat="35.044495" lon="-85.065"><ele>354.8</ele><time>2026-08-03T19:39:46Z</time></trkpt>
<trkpt lat="35.044531" lon="-85.06498"><ele>354.2</ele><time>2026-08-03T19:39:49Z</time></trkpt>
<trkpt lat="35.044562" lon="-85.064978"><ele>353.6</ele><time>2026-08-03T19:39:51Z</time></trkpt>
<trkpt lat="35.044589" lon="-85.064975"><ele>353.3</ele><time>2026-08-03T19:39:53Z</time></trkpt>
<trkpt lat="35.044622" lon="-85.064963"><ele>353.9</ele><time>2026-08-03T19:39:56Z</time></trkpt>
<trkpt lat="35.044651" lon="-85.064955"><ele>354.8</ele><time>2026-08-03T19:39:58Z</time></trkpt>
<trkpt lat="35.04468" lon="-85.064943"><ele>353.6</ele><time>2026-08-03T19:40:01Z</time></trkpt>
<trkpt lat="35.044712" lon="-85.064936"><ele>354.2</ele><time>2026-08-03T19:40:04Z</time></trkpt>
<trkpt lat="35.044715" lon="-85.064881"><ele>353.3</ele><time>2026-08-03T19:40:07Z</time></trkpt>
<trkpt lat="35.04468" lon="-85.064863"><ele>353.3</ele><time>2026-08-03T19:40:10Z</time></trkpt>
<trkpt lat="35.044669" lon="-85.064869"><ele>353.6</ele><time>2026-08-03T19:40:11Z</time></trkpt>
<trkpt lat="35.044663" lon="-85.064875"><ele>353.6</ele><time>2026-08-03T19:40:12Z</time></trkpt>
<trkpt lat="35.044657" lon="-85.06488"><ele>353.6</ele><time>2026-08-03T19:40:17Z</time></trkpt>
<trkpt lat="35.044652" lon="-85.064882"><ele>353.6</ele><time>2026-08-03T19:40:18Z</time></trkpt>
<trkpt lat="35.044629" lon="-85.064858"><ele>353.6</ele><time>2026-08-03T19:40:21Z</time></trkpt>
<trkpt lat="35.044597" lon="-85.064843"><ele>353.0</ele><time>2026-08-03T19:40:24Z</time></trkpt>
<trkpt lat="35.044572" lon="-85.064822"><ele>350.5</ele><time>2026-08-03T19:40:27Z</time></trkpt>
<trkpt lat="35.044547" lon="-85.064802"><ele>349.9</ele><time>2026-08-03T19:40:30Z</time></trkpt>
<trkpt lat="35.044512" lon="-85.064794"><ele>349.9</ele><time>2026-08-03T19:40:33Z</time></trkpt>
<trkpt lat="35.044477" lon="-85.064799"><ele>350.5</ele><time>2026-08-03T19:40:36Z</time></trkpt>
<trkpt lat="35.044439" lon="-85.064803"><ele>349.9</ele><time>2026-08-03T19:40:39Z</time></trkpt>
<trkpt lat="35.044405" lon="-85.064798"><ele>349.9</ele><time>2026-08-03T19:40:42Z</time></trkpt>
<trkpt lat="35.044371" lon="-85.064788"><ele>352.3</ele><time>2026-08-03T19:40:45Z</time></trkpt>
<trkpt lat="35.044338" lon="-85.064772"><ele>350.2</ele><time>2026-08-03T19:40:48Z</time></trkpt>
<trkpt lat="35.044312" lon="-85.06476"><ele>350.5</ele><time>2026-08-03T19:40:50Z</time></trkpt>
<trkpt lat="35.044275" lon="-85.064755"><ele>350.2</ele><time>2026-08-03T19:40:53Z</time></trkpt>
<trkpt lat="35.04424" lon="-85.064743"><ele>348.4</ele><time>2026-08-03T19:40:56Z</time></trkpt>
<trkpt lat="35.044202" lon="-85.064737"><ele>348.7</ele><time>2026-08-03T19:40:59Z</time></trkpt>
<trkpt lat="35.044167" lon="-85.064734"><ele>349.0</ele><time>2026-08-03T19:41:02Z</time></trkpt>
<trkpt lat="35.044135" lon="-85.06473"><ele>348.7</ele><time>2026-08-03T19:41:05Z</time></trkpt>
<trkpt lat="35.044104" lon="-85.064723"><ele>345.0</ele><time>2026-08-03T19:41:08Z</time></trkpt>
<trkpt lat="35.04407" lon="-85.064705"><ele>343.8</ele><time>2026-08-03T19:41:11Z</time></trkpt>
<trkpt lat="35.044036" lon="-85.064693"><ele>343.2</ele><time>2026-08-03T19:41:14Z</time></trkpt>
<trkpt lat="35.043999" lon="-85.064699"><ele>343.2</ele><time>2026-08-03T19:41:17Z</time></trkpt>
<trkpt lat="35.043963" lon="-85.064701"><ele>344.7</ele><time>2026-08-03T19:41:20Z</time></trkpt>
<trkpt lat="35.043927" lon="-85.064693"><ele>344.7</ele><time>2026-08-03T19:41:23Z</time></trkpt>
<trkpt lat="35.043889" lon="-85.064697"><ele>344.7</ele><time>2026-08-03T19:41:26Z</time></trkpt>
<trkpt lat="35.043849" lon="-85.064701"><ele>344.4</ele><time>2026-08-03T19:41:29Z</time></trkpt>
<trkpt lat="35.04381" lon="-85.064711"><ele>343.8</ele><time>2026-08-03T19:41:32Z</time></trkpt>
<trkpt lat="35.043772" lon="-85.064727"><ele>345.0</ele><time>2026-08-03T19:41:35Z</time></trkpt>
<trkpt lat="35.043739" lon="-85.064755"><ele>345.0</ele><time>2026-08-03T19:41:38Z</time></trkpt>
<trkpt lat="35.043718" lon="-85.064778"><ele>345.0</ele><time>2026-08-03T19:41:40Z</time></trkpt>
<trkpt lat="35.043694" lon="-85.064796"><ele>344.1</ele><time>2026-08-03T19:41:42Z</time></trkpt>
<trkpt lat="35.04366" lon="-85.064812"><ele>344.4</ele><time>2026-08-03T19:41:45Z</time></trkpt>
<trkpt lat="35.043624" lon="-85.064815"><ele>342.6</ele><time>2026-08-03T19:41:48Z</time></trkpt>
<trkpt lat="35.043585" lon="-85.064817"><ele>341.1</ele><time>2026-08-03T19:41:51Z</time></trkpt>
<trkpt lat="35.043557" lon="-85.064826"><ele>341.4</ele><time>2026-08-03T19:41:53Z</time></trkpt>
<trkpt lat="35.043529" lon="-85.064839"><ele>340.8</ele><time>2026-08-03T19:41:55Z</time></trkpt>
<trkpt lat="35.043504" lon="-85.064856"><ele>338.9</ele><time>2026-08-03T19:41:57Z</time></trkpt>
<trkpt lat="35.04348" lon="-85.064874"><ele>338.9</ele><time>2026-08-03T19:41:59Z</time></trkpt>
<trkpt lat="35.043453" lon="-85.064886"><ele>339.5</ele><time>2026-08-03T19:42:01Z</time></trkpt>
<trkpt lat="35.043416" lon="-85.064895"><ele>339.9</ele><time>2026-08-03T19:42:04Z</time></trkpt>
<trkpt lat="35.043379" lon="-85.064904"><ele>340.8</ele><time>2026-08-03T19:42:07Z</time></trkpt>
<trkpt lat="35.043353" lon="-85.064915"><ele>340.5</ele><time>2026-08-03T19:42:09Z</time></trkpt>
<trkpt lat="35.043315" lon="-85.064929"><ele>339.9</ele><time>2026-08-03T19:42:12Z</time></trkpt>
<trkpt lat="35.043288" lon="-85.064941"><ele>338.9</ele><time>2026-08-03T19:42:14Z</time></trkpt>
<trkpt lat="35.043252" lon="-85.064963"><ele>337.4</ele><time>2026-08-03T19:42:17Z</time></trkpt>
<trkpt lat="35.043225" lon="-85.064999"><ele>338.0</ele><time>2026-08-03T19:42:20Z</time></trkpt>
<trkpt lat="35.0432" lon="-85.065036"><ele>339.9</ele><time>2026-08-03T19:42:23Z</time></trkpt>
<trkpt lat="35.043171" lon="-85.065044"><ele>340.5</ele><time>2026-08-03T19:42:25Z</time></trkpt>
<trkpt lat="35.043139" lon="-85.065042"><ele>340.5</ele><time>2026-08-03T19:42:27Z</time></trkpt>
<trkpt lat="35.043112" lon="-85.065047"><ele>339.9</ele><time>2026-08-03T19:42:29Z</time></trkpt>
<trkpt lat="35.043076" lon="-85.065051"><ele>341.1</ele><time>2026-08-03T19:42:32Z</time></trkpt>
<trkpt lat="35.043041" lon="-85.065057"><ele>342.3</ele><time>2026-08-03T19:42:35Z</time></trkpt>
<trkpt lat="35.043007" lon="-85.06508"><ele>342.6</ele><time>2026-08-03T19:42:38Z</time></trkpt>
<trkpt lat="35.04298" lon="-85.065091"><ele>343.5</ele><time>2026-08-03T19:42:40Z</time></trkpt>
<trkpt lat="35.042943" lon="-85.065107"><ele>344.4</ele><time>2026-08-03T19:42:43Z</time></trkpt>
<trkpt lat="35.042913" lon="-85.065131"><ele>345.0</ele><time>2026-08-03T19:42:46Z</time></trkpt>
<trkpt lat="35.042883" lon="-85.065156"><ele>345.6</ele><time>2026-08-03T19:42:49Z</time></trkpt>
<trkpt lat="35.042849" lon="-85.065179"><ele>348.1</ele><time>2026-08-03T19:42:52Z</time></trkpt>
<trkpt lat="35.042822" lon="-85.065187"><ele>349.6</ele><time>2026-08-03T19:42:55Z</time></trkpt>
<trkpt lat="35.042785" lon="-85.0652"><ele>349.6</ele><time>2026-08-03T19:42:59Z</time></trkpt>
<trkpt lat="35.042751" lon="-85.065212"><ele>349.6</ele><time>2026-08-03T19:43:02Z</time></trkpt>
<trkpt lat="35.042717" lon="-85.065223"><ele>349.9</ele><time>2026-08-03T19:43:05Z</time></trkpt>
<trkpt lat="35.042678" lon="-85.065223"><ele>348.1</ele><time>2026-08-03T19:43:08Z</time></trkpt>
<trkpt lat="35.042642" lon="-85.065225"><ele>347.5</ele><time>2026-08-03T19:43:11Z</time></trkpt>
<trkpt lat="35.042608" lon="-85.06524"><ele>348.4</ele><time>2026-08-03T19:43:14Z</time></trkpt>
<trkpt lat="35.042573" lon="-85.065262"><ele>349.3</ele><time>2026-08-03T19:43:17Z</time></trkpt>
<trkpt lat="35.042548" lon="-85.065277"><ele>345.9</ele><time>2026-08-03T19:43:19Z</time></trkpt>
<trkpt lat="35.042518" lon="-85.065303"><ele>342.9</ele><time>2026-08-03T19:43:22Z</time></trkpt>
<trkpt lat="35.042492" lon="-85.065331"><ele>343.2</ele><time>2026-08-03T19:43:25Z</time></trkpt>
<trkpt lat="35.042466" lon="-85.065363"><ele>344.1</ele><time>2026-08-03T19:43:28Z</time></trkpt>
<trkpt lat="35.042434" lon="-85.065376"><ele>344.7</ele><time>2026-08-03T19:43:31Z</time></trkpt>
<trkpt lat="35.042421" lon="-85.065337"><ele>345.6</ele><time>2026-08-03T19:43:35Z</time></trkpt>
<trkpt lat="35.04243" lon="-85.065291"><ele>346.6</ele><time>2026-08-03T19:43:38Z</time></trkpt>
<trkpt lat="35.042442" lon="-85.065246"><ele>348.1</ele><time>2026-08-03T19:43:41Z</time></trkpt>
<trkpt lat="35.042438" lon="-85.065203"><ele>348.7</ele><time>2026-08-03T19:43:44Z</time></trkpt>
<trkpt lat="35.042424" lon="-85.065166"><ele>348.7</ele><time>2026-08-03T19:43:47Z</time></trkpt>
<trkpt lat="35.042401" lon="-85.065147"><ele>348.4</ele><time>2026-08-03T19:43:50Z</time></trkpt>
<trkpt lat="35.042388" lon="-85.065116"><ele>349.3</ele><time>2026-08-03T19:43:53Z</time></trkpt>
<trkpt lat="35.042371" lon="-85.065081"><ele>349.3</ele><time>2026-08-03T19:43:56Z</time></trkpt>
<trkpt lat="35.042352" lon="-85.065044"><ele>347.5</ele><time>2026-08-03T19:43:59Z</time></trkpt>
<trkpt lat="35.042333" lon="-85.065007"><ele>350.8</ele><time>2026-08-03T19:44:02Z</time></trkpt>
<trkpt lat="35.042316" lon="-85.064974"><ele>352.0</ele><time>2026-08-03T19:44:05Z</time></trkpt>
<trkpt lat="35.042293" lon="-85.06495"><ele>350.5</ele><time>2026-08-03T19:44:08Z</time></trkpt>
<trkpt lat="35.042287" lon="-85.064912"><ele>351.4</ele><time>2026-08-03T19:44:12Z</time></trkpt>
<trkpt lat="35.042257" lon="-85.064897"><ele>349.9</ele><time>2026-08-03T19:44:16Z</time></trkpt>
<trkpt lat="35.042245" lon="-85.064862"><ele>351.4</ele><time>2026-08-03T19:44:20Z</time></trkpt>
<trkpt lat="35.042232" lon="-85.064825"><ele>350.8</ele><time>2026-08-03T19:44:24Z</time></trkpt>
<trkpt lat="35.042232" lon="-85.064785"><ele>353.0</ele><time>2026-08-03T19:44:28Z</time></trkpt>
<trkpt lat="35.042235" lon="-85.064751"><ele>352.7</ele><time>2026-08-03T19:44:31Z</time></trkpt>
<trkpt lat="35.042239" lon="-85.064712"><ele>352.3</ele><time>2026-08-03T19:44:34Z</time></trkpt>
<trkpt lat="35.042231" lon="-85.06467"><ele>351.4</ele><time>2026-08-03T19:44:38Z</time></trkpt>
<trkpt lat="35.042235" lon="-85.064627"><ele>352.7</ele><time>2026-08-03T19:44:41Z</time></trkpt>
<trkpt lat="35.042229" lon="-85.064589"><ele>354.5</ele><time>2026-08-03T19:44:44Z</time></trkpt>
<trkpt lat="35.042234" lon="-85.064554"><ele>352.0</ele><time>2026-08-03T19:44:47Z</time></trkpt>
<trkpt lat="35.042247" lon="-85.064518"><ele>350.5</ele><time>2026-08-03T19:44:50Z</time></trkpt>
<trkpt lat="35.042275" lon="-85.064506"><ele>349.3</ele><time>2026-08-03T19:44:52Z</time></trkpt>
<trkpt lat="35.042303" lon="-85.06452"><ele>347.2</ele><time>2026-08-03T19:44:54Z</time></trkpt>
<trkpt lat="35.042328" lon="-85.064537"><ele>344.1</ele><time>2026-08-03T19:44:56Z</time></trkpt>
<trkpt lat="35.042361" lon="-85.064565"><ele>341.4</ele><time>2026-08-03T19:44:59Z</time></trkpt>
<trkpt lat="35.042393" lon="-85.064589"><ele>340.8</ele><time>2026-08-03T19:45:02Z</time></trkpt>
<trkpt lat="35.042429" lon="-85.064607"><ele>340.8</ele><time>2026-08-03T19:45:05Z</time></trkpt>
<trkpt lat="35.042464" lon="-85.064623"><ele>339.5</ele><time>2026-08-03T19:45:08Z</time></trkpt>
<trkpt lat="35.0425" lon="-85.064638"><ele>338.6</ele><time>2026-08-03T19:45:11Z</time></trkpt>
<trkpt lat="35.042535" lon="-85.06465"><ele>338.9</ele><time>2026-08-03T19:45:14Z</time></trkpt>
<trkpt lat="35.042572" lon="-85.064665"><ele>341.4</ele><time>2026-08-03T19:45:17Z</time></trkpt>
<trkpt lat="35.042608" lon="-85.064665"><ele>338.3</ele><time>2026-08-03T19:45:20Z</time></trkpt>
<trkpt lat="35.042641" lon="-85.064667"><ele>337.4</ele><time>2026-08-03T19:45:23Z</time></trkpt>
<trkpt lat="35.042673" lon="-85.064668"><ele>338.0</ele><time>2026-08-03T19:45:26Z</time></trkpt>
<trkpt lat="35.042709" lon="-85.064671"><ele>338.3</ele><time>2026-08-03T19:45:29Z</time></trkpt>
<trkpt lat="35.042736" lon="-85.064679"><ele>336.5</ele><time>2026-08-03T19:45:31Z</time></trkpt>
<trkpt lat="35.042774" lon="-85.064677"><ele>335.9</ele><time>2026-08-03T19:45:34Z</time></trkpt>
<trkpt lat="35.04281" lon="-85.064689"><ele>336.2</ele><time>2026-08-03T19:45:37Z</time></trkpt>
<trkpt lat="35.042843" lon="-85.064701"><ele>337.7</ele><time>2026-08-03T19:45:40Z</time></trkpt>
<trkpt lat="35.04288" lon="-85.06471"><ele>339.5</ele><time>2026-08-03T19:45:43Z</time></trkpt>
<trkpt lat="35.042915" lon="-85.064718"><ele>340.8</ele><time>2026-08-03T19:45:46Z</time></trkpt>
<trkpt lat="35.042948" lon="-85.064725"><ele>340.8</ele><time>2026-08-03T19:45:49Z</time></trkpt>
<trkpt lat="35.042983" lon="-85.064732"><ele>340.8</ele><time>2026-08-03T19:45:52Z</time></trkpt>
<trkpt lat="35.043022" lon="-85.064736"><ele>340.5</ele><time>2026-08-03T19:45:55Z</time></trkpt>
<trkpt lat="35.043051" lon="-85.064731"><ele>338.0</ele><time>2026-08-03T19:45:57Z</time></trkpt>
<trkpt lat="35.043083" lon="-85.064731"><ele>338.0</ele><time>2026-08-03T19:46:00Z</time></trkpt>
<trkpt lat="35.043117" lon="-85.064733"><ele>337.4</ele><time>2026-08-03T19:46:03Z</time></trkpt>
<trkpt lat="35.043156" lon="-85.064734"><ele>335.0</ele><time>2026-08-03T19:46:06Z</time></trkpt>
<trkpt lat="35.043193" lon="-85.064724"><ele>333.5</ele><time>2026-08-03T19:46:09Z</time></trkpt>
<trkpt lat="35.043229" lon="-85.064717"><ele>335.9</ele><time>2026-08-03T19:46:12Z</time></trkpt>
<trkpt lat="35.04326" lon="-85.064705"><ele>337.1</ele><time>2026-08-03T19:46:15Z</time></trkpt>
<trkpt lat="35.043288" lon="-85.064694"><ele>336.8</ele><time>2026-08-03T19:46:18Z</time></trkpt>
<trkpt lat="35.043314" lon="-85.064681"><ele>336.2</ele><time>2026-08-03T19:46:21Z</time></trkpt>
<trkpt lat="35.043346" lon="-85.06467"><ele>335.0</ele><time>2026-08-03T19:46:24Z</time></trkpt>
<trkpt lat="35.043374" lon="-85.064659"><ele>336.5</ele><time>2026-08-03T19:46:27Z</time></trkpt>
<trkpt lat="35.043406" lon="-85.064648"><ele>339.2</ele><time>2026-08-03T19:46:30Z</time></trkpt>
<trkpt lat="35.043434" lon="-85.06463"><ele>338.0</ele><time>2026-08-03T19:46:33Z</time></trkpt>
<trkpt lat="35.043465" lon="-85.064612"><ele>340.2</ele><time>2026-08-03T19:46:36Z</time></trkpt>
<trkpt lat="35.04349" lon="-85.064597"><ele>339.2</ele><time>2026-08-03T19:46:38Z</time></trkpt>
<trkpt lat="35.043526" lon="-85.064585"><ele>336.8</ele><time>2026-08-03T19:46:41Z</time></trkpt>
<trkpt lat="35.043552" lon="-85.064574"><ele>336.5</ele><time>2026-08-03T19:46:43Z</time></trkpt>
<trkpt lat="35.043588" lon="-85.064562"><ele>336.8</ele><time>2026-08-03T19:46:46Z</time></trkpt>
<trkpt lat="35.043624" lon="-85.064556"><ele>334.7</ele><time>2026-08-03T19:46:49Z</time></trkpt>
<trkpt lat="35.043655" lon="-85.064542"><ele>331.3</ele><time>2026-08-03T19:46:52Z</time></trkpt>
<trkpt lat="35.043689" lon="-85.064536"><ele>331.3</ele><time>2026-08-03T19:46:55Z</time></trkpt>
<trkpt lat="35.043723" lon="-85.064529"><ele>331.3</ele><time>2026-08-03T19:46:58Z</time></trkpt>
<trkpt lat="35.043752" lon="-85.064506"><ele>328.9</ele><time>2026-08-03T19:47:01Z</time></trkpt>
<trkpt lat="35.043786" lon="-85.06449"><ele>330.4</ele><time>2026-08-03T19:47:04Z</time></trkpt>
<trkpt lat="35.043819" lon="-85.064465"><ele>329.8</ele><time>2026-08-03T19:47:07Z</time></trkpt>
<trkpt lat="35.043852" lon="-85.064448"><ele>331.3</ele><time>2026-08-03T19:47:10Z</time></trkpt>
<trkpt lat="35.043883" lon="-85.064426"><ele>333.1</ele><time>2026-08-03T19:47:13Z</time></trkpt>
<trkpt lat="35.043918" lon="-85.064411"><ele>333.8</ele><time>2026-08-03T19:47:16Z</time></trkpt>
<trkpt lat="35.043951" lon="-85.064389"><ele>334.4</ele><time>2026-08-03T19:47:19Z</time></trkpt>
<trkpt lat="35.043984" lon="-85.064368"><ele>334.1</ele><time>2026-08-03T19:47:22Z</time></trkpt>
<trkpt lat="35.044018" lon="-85.064348"><ele>334.4</ele><time>2026-08-03T19:47:25Z</time></trkpt>
<trkpt lat="35.044051" lon="-85.064331"><ele>335.3</ele><time>2026-08-03T19:47:28Z</time></trkpt>
<trkpt lat="35.044087" lon="-85.064313"><ele>336.2</ele><time>2026-08-03T19:47:31Z</time></trkpt>
<trkpt lat="35.044117" lon="-85.064291"><ele>335.9</ele><time>2026-08-03T19:47:34Z</time></trkpt>
<trkpt lat="35.04415" lon="-85.064273"><ele>335.6</ele><time>2026-08-03T19:47:37Z</time></trkpt>
<trkpt lat="35.044185" lon="-85.064265"><ele>335.9</ele><time>2026-08-03T19:47:40Z</time></trkpt>
<trkpt lat="35.044219" lon="-85.064256"><ele>336.5</ele><time>2026-08-03T19:47:43Z</time></trkpt>
<trkpt lat="35.044251" lon="-85.06427"><ele>337.7</ele><time>2026-08-03T19:47:46Z</time></trkpt>
<trkpt lat="35.044285" lon="-85.064286"><ele>338.3</ele><time>2026-08-03T19:47:49Z</time></trkpt>
<trkpt lat="35.044311" lon="-85.064296"><ele>339.5</ele><time>2026-08-03T19:47:52Z</time></trkpt>
<trkpt lat="35.044337" lon="-85.064278"><ele>339.5</ele><time>2026-08-03T19:47:55Z</time></trkpt>
<trkpt lat="35.044361" lon="-85.064255"><ele>338.6</ele><time>2026-08-03T19:47:58Z</time></trkpt>
<trkpt lat="35.044384" lon="-85.064226"><ele>337.1</ele><time>2026-08-03T19:48:01Z</time></trkpt>
<trkpt lat="35.044414" lon="-85.064206"><ele>337.4</ele><time>2026-08-03T19:48:04Z</time></trkpt>
<trkpt lat="35.044444" lon="-85.06419"><ele>336.8</ele><time>2026-08-03T19:48:07Z</time></trkpt>
<trkpt lat="35.044471" lon="-85.064173"><ele>336.5</ele><time>2026-08-03T19:48:10Z</time></trkpt>
<trkpt lat="35.044501" lon="-85.064153"><ele>333.8</ele><time>2026-08-03T19:48:13Z</time></trkpt>
<trkpt lat="35.044529" lon="-85.064131"><ele>333.1</ele><time>2026-08-03T19:48:16Z</time></trkpt>
<trkpt lat="35.044554" lon="-85.064106"><ele>332.5</ele><time>2026-08-03T19:48:19Z</time></trkpt>
<trkpt lat="35.044574" lon="-85.064078"><ele>333.5</ele><time>2026-08-03T19:48:22Z</time></trkpt>
<trkpt lat="35.044599" lon="-85.064061"><ele>333.5</ele><time>2026-08-03T19:48:25Z</time></trkpt>
<trkpt lat="35.044625" lon="-85.064049"><ele>334.4</ele><time>2026-08-03T19:48:28Z</time></trkpt>
<trkpt lat="35.044653" lon="-85.064035"><ele>335.3</ele><time>2026-08-03T19:48:31Z</time></trkpt>
<trkpt lat="35.044684" lon="-85.064023"><ele>333.5</ele><time>2026-08-03T19:48:34Z</time></trkpt>
<trkpt lat="35.044717" lon="-85.06401"><ele>332.5</ele><time>2026-08-03T19:48:37Z</time></trkpt>
<trkpt lat="35.044746" lon="-85.063992"><ele>332.8</ele><time>2026-08-03T19:48:40Z</time></trkpt>
<trkpt lat="35.044774" lon="-85.06397"><ele>332.8</ele><time>2026-08-03T19:48:43Z</time></trkpt>
<trkpt lat="35.044807" lon="-85.063953"><ele>331.3</ele><time>2026-08-03T19:48:46Z</time></trkpt>
<trkpt lat="35.044843" lon="-85.063951"><ele>330.7</ele><time>2026-08-03T19:48:49Z</time></trkpt>
<trkpt lat="35.044874" lon="-85.063936"><ele>331.6</ele><time>2026-08-03T19:48:53Z</time></trkpt>
<trkpt lat="35.044875" lon="-85.063935"><ele>331.6</ele><time>2026-08-03T19:48:54Z</time></trkpt>
<trkpt lat="35.044875" lon="-85.063934"><ele>331.6</ele><time>2026-08-03T19:48:58Z</time></trkpt>
<trkpt lat="35.044877" lon="-85.06393"><ele>331.6</ele><time>2026-08-03T19:48:59Z</time></trkpt>
<trkpt lat="35.0449" lon="-85.063898"><ele>329.8</ele><time>2026-08-03T19:49:03Z</time></trkpt>
<trkpt lat="35.04493" lon="-85.063874"><ele>329.5</ele><time>2026-08-03T19:49:07Z</time></trkpt>
<trkpt lat="35.04496" lon="-85.063866"><ele>328.6</ele><time>2026-08-03T19:49:10Z</time></trkpt>
<trkpt lat="35.04499" lon="-85.063848"><ele>328.9</ele><time>2026-08-03T19:49:13Z</time></trkpt>
<trkpt lat="35.045019" lon="-85.063833"><ele>329.2</ele><time>2026-08-03T19:49:16Z</time></trkpt>
<trkpt lat="35.045055" lon="-85.06383"><ele>329.8</ele><time>2026-08-03T19:49:19Z</time></trkpt>
<trkpt lat="35.045089" lon="-85.063819"><ele>328.9</ele><time>2026-08-03T19:49:22Z</time></trkpt>
<trkpt lat="35.045108" lon="-85.06378"><ele>327.7</ele><time>2026-08-03T19:49:25Z</time></trkpt>
<trkpt lat="35.045133" lon="-85.06375"><ele>328.0</ele><time>2026-08-03T19:49:28Z</time></trkpt>
<trkpt lat="35.045159" lon="-85.06372"><ele>327.1</ele><time>2026-08-03T19:49:31Z</time></trkpt>
<trkpt lat="35.045185" lon="-85.063698"><ele>327.7</ele><time>2026-08-03T19:49:34Z</time></trkpt>
<trkpt lat="35.045215" lon="-85.063693"><ele>328.6</ele><time>2026-08-03T19:49:37Z</time></trkpt>
<trkpt lat="35.04525" lon="-85.063696"><ele>328.0</ele><time>2026-08-03T19:49:41Z</time></trkpt>
<trkpt lat="35.045284" lon="-85.063697"><ele>329.8</ele><time>2026-08-03T19:49:46Z</time></trkpt>
<trkpt lat="35.045314" lon="-85.06369"><ele>330.4</ele><time>2026-08-03T19:49:50Z</time></trkpt>
<trkpt lat="35.045345" lon="-85.063678"><ele>329.8</ele><time>2026-08-03T19:49:55Z</time></trkpt>
<trkpt lat="35.045373" lon="-85.063668"><ele>331.3</ele><time>2026-08-03T19:50:00Z</time></trkpt>
<trkpt lat="35.045402" lon="-85.063665"><ele>330.7</ele><time>2026-08-03T19:50:04Z</time></trkpt>
<trkpt lat="35.045434" lon="-85.063651"><ele>330.1</ele><time>2026-08-03T19:50:09Z</time></trkpt>
<trkpt lat="35.045461" lon="-85.063627"><ele>330.1</ele><time>2026-08-03T19:50:13Z</time></trkpt>
<trkpt lat="35.045495" lon="-85.063638"><ele>331.3</ele><time>2026-08-03T19:50:17Z</time></trkpt>
<trkpt lat="35.045521" lon="-85.063654"><ele>332.2</ele><time>2026-08-03T19:50:20Z</time></trkpt>
<trkpt lat="35.045549" lon="-85.063639"><ele>332.8</ele><time>2026-08-03T19:50:23Z</time></trkpt>
<trkpt lat="35.045577" lon="-85.06362"><ele>330.4</ele><time>2026-08-03T19:50:26Z</time></trkpt>
<trkpt lat="35.045604" lon="-85.063603"><ele>331.0</ele><time>2026-08-03T19:50:29Z</time></trkpt>
<trkpt lat="35.045631" lon="-85.063586"><ele>331.6</ele><time>2026-08-03T19:50:32Z</time></trkpt>
<trkpt lat="35.045662" lon="-85.063571"><ele>331.9</ele><time>2026-08-03T19:50:35Z</time></trkpt>
<trkpt lat="35.04569" lon="-85.06354"><ele>331.3</ele><time>2026-08-03T19:50:39Z</time></trkpt>
<trkpt lat="35.045706" lon="-85.063507"><ele>333.5</ele><time>2026-08-03T19:50:42Z</time></trkpt>
<trkpt lat="35.045717" lon="-85.063501"><ele>334.4</ele><time>2026-08-03T19:50:43Z</time></trkpt>
<trkpt lat="35.045716" lon="-85.063501"><ele>334.4</ele><time>2026-08-03T19:50:44Z</time></trkpt>
<trkpt lat="35.045723" lon="-85.063491"><ele>335.3</ele><time>2026-08-03T19:50:45Z</time></trkpt>
<trkpt lat="35.045751" lon="-85.06347"><ele>335.3</ele><time>2026-08-03T19:50:48Z</time></trkpt>
<trkpt lat="35.045776" lon="-85.063445"><ele>333.8</ele><time>2026-08-03T19:50:51Z</time></trkpt>
<trkpt lat="35.045808" lon="-85.063434"><ele>332.2</ele><time>2026-08-03T19:50:54Z</time></trkpt>
<trkpt lat="35.04584" lon="-85.063425"><ele>331.6</ele><time>2026-08-03T19:50:57Z</time></trkpt>
<trkpt lat="35.045868" lon="-85.063421"><ele>331.6</ele><time>2026-08-03T19:51:00Z</time></trkpt>
<trkpt lat="35.045898" lon="-85.063417"><ele>332.2</ele><time>2026-08-03T19:51:03Z</time></trkpt>
<trkpt lat="35.045927" lon="-85.06341"><ele>332.2</ele><time>2026-08-03T19:51:06Z</time></trkpt>
<trkpt lat="35.04596" lon="-85.063399"><ele>331.6</ele><time>2026-08-03T19:51:09Z</time></trkpt>
<trkpt lat="35.045988" lon="-85.063388"><ele>330.4</ele><time>2026-08-03T19:51:12Z</time></trkpt>
<trkpt lat="35.046016" lon="-85.063375"><ele>330.1</ele><time>2026-08-03T19:51:15Z</time></trkpt>
<trkpt lat="35.046048" lon="-85.063363"><ele>331.0</ele><time>2026-08-03T19:51:19Z</time></trkpt>
<trkpt lat="35.046074" lon="-85.063339"><ele>329.8</ele><time>2026-08-03T19:51:22Z</time></trkpt>
<trkpt lat="35.046108" lon="-85.063326"><ele>331.3</ele><time>2026-08-03T19:51:25Z</time></trkpt>
<trkpt lat="35.046143" lon="-85.063309"><ele>330.4</ele><time>2026-08-03T19:51:28Z</time></trkpt>
<trkpt lat="35.046174" lon="-85.063297"><ele>330.1</ele><time>2026-08-03T19:51:31Z</time></trkpt>
<trkpt lat="35.046207" lon="-85.063283"><ele>330.7</ele><time>2026-08-03T19:51:34Z</time></trkpt>
<trkpt lat="35.046242" lon="-85.063271"><ele>328.9</ele><time>2026-08-03T19:51:37Z</time></trkpt>
<trkpt lat="35.046278" lon="-85.06326"><ele>329.2</ele><time>2026-08-03T19:51:40Z</time></trkpt>
<trkpt lat="35.046314" lon="-85.063256"><ele>331.0</ele><time>2026-08-03T19:51:43Z</time></trkpt>
<trkpt lat="35.046348" lon="-85.063251"><ele>330.1</ele><time>2026-08-03T19:51:46Z</time></trkpt>
<trkpt lat="35.046378" lon="-85.063228"><ele>329.5</ele><time>2026-08-03T19:51:49Z</time></trkpt>
<trkpt lat="35.046407" lon="-85.063198"><ele>329.2</ele><time>2026-08-03T19:51:52Z</time></trkpt>
<trkpt lat="35.046439" lon="-85.063184"><ele>329.2</ele><time>2026-08-03T19:51:55Z</time></trkpt>
<trkpt lat="35.046471" lon="-85.063179"><ele>329.8</ele><time>2026-08-03T19:51:58Z</time></trkpt>
<trkpt lat="35.046505" lon="-85.063168"><ele>330.7</ele><time>2026-08-03T19:52:01Z</time></trkpt>
<trkpt lat="35.04654" lon="-85.063169"><ele>332.2</ele><time>2026-08-03T19:52:04Z</time></trkpt>
<trkpt lat="35.046573" lon="-85.063168"><ele>332.8</ele><time>2026-08-03T19:52:07Z</time></trkpt>
<trkpt lat="35.046603" lon="-85.063157"><ele>332.8</ele><time>2026-08-03T19:52:10Z</time></trkpt>
<trkpt lat="35.046635" lon="-85.063146"><ele>332.8</ele><time>2026-08-03T19:52:13Z</time></trkpt>
<trkpt lat="35.046666" lon="-85.063125"><ele>335.0</ele><time>2026-08-03T19:52:16Z</time></trkpt>
<trkpt lat="35.046694" lon="-85.0631"><ele>335.6</ele><time>2026-08-03T19:52:19Z</time></trkpt>
<trkpt lat="35.046718" lon="-85.063072"><ele>334.7</ele><time>2026-08-03T19:52:22Z</time></trkpt>
<trkpt lat="35.046751" lon="-85.063043"><ele>336.2</ele><time>2026-08-03T19:52:25Z</time></trkpt>
<trkpt lat="35.046786" lon="-85.063043"><ele>336.2</ele><time>2026-08-03T19:52:27Z</time></trkpt>
<trkpt lat="35.046823" lon="-85.063043"><ele>336.8</ele><time>2026-08-03T19:52:30Z</time></trkpt>
<trkpt lat="35.046858" lon="-85.063035"><ele>337.1</ele><time>2026-08-03T19:52:33Z</time></trkpt>
<trkpt lat="35.046889" lon="-85.063011"><ele>335.9</ele><time>2026-08-03T19:52:36Z</time></trkpt>
<trkpt lat="35.046916" lon="-85.062976"><ele>335.0</ele><time>2026-08-03T19:52:39Z</time></trkpt>
<trkpt lat="35.046944" lon="-85.06295"><ele>335.6</ele><time>2026-08-03T19:52:42Z</time></trkpt>
<trkpt lat="35.046978" lon="-85.062937"><ele>335.6</ele><time>2026-08-03T19:52:45Z</time></trkpt>
<trkpt lat="35.047014" lon="-85.062927"><ele>335.3</ele><time>2026-08-03T19:52:48Z</time></trkpt>
<trkpt lat="35.047051" lon="-85.062914"><ele>336.5</ele><time>2026-08-03T19:52:51Z</time></trkpt>
<trkpt lat="35.047088" lon="-85.062895"><ele>338.0</ele><time>2026-08-03T19:52:54Z</time></trkpt>
<trkpt lat="35.047128" lon="-85.062883"><ele>338.0</ele><time>2026-08-03T19:52:57Z</time></trkpt>
<trkpt lat="35.047162" lon="-85.06286"><ele>338.9</ele><time>2026-08-03T19:53:00Z</time></trkpt>
<trkpt lat="35.047191" lon="-85.062833"><ele>338.3</ele><time>2026-08-03T19:53:03Z</time></trkpt>
<trkpt lat="35.047225" lon="-85.062818"><ele>338.6</ele><time>2026-08-03T19:53:06Z</time></trkpt>
<trkpt lat="35.047256" lon="-85.062793"><ele>338.3</ele><time>2026-08-03T19:53:09Z</time></trkpt>
<trkpt lat="35.047281" lon="-85.062773"><ele>338.0</ele><time>2026-08-03T19:53:12Z</time></trkpt>
<trkpt lat="35.047309" lon="-85.062759"><ele>338.0</ele><time>2026-08-03T19:53:15Z</time></trkpt>
<trkpt lat="35.047339" lon="-85.062751"><ele>337.4</ele><time>2026-08-03T19:53:18Z</time></trkpt>
<trkpt lat="35.047368" lon="-85.06275"><ele>338.3</ele><time>2026-08-03T19:53:21Z</time></trkpt>
<trkpt lat="35.047396" lon="-85.062745"><ele>338.6</ele><time>2026-08-03T19:53:24Z</time></trkpt>
<trkpt lat="35.047429" lon="-85.06274"><ele>338.6</ele><time>2026-08-03T19:53:27Z</time></trkpt>
<trkpt lat="35.047459" lon="-85.062734"><ele>338.9</ele><time>2026-08-03T19:53:30Z</time></trkpt>
<trkpt lat="35.047492" lon="-85.062729"><ele>338.3</ele><time>2026-08-03T19:53:34Z</time></trkpt>
<trkpt lat="35.047525" lon="-85.062727"><ele>338.3</ele><time>2026-08-03T19:53:38Z</time></trkpt>
<trkpt lat="35.04755" lon="-85.0627"><ele>337.4</ele><time>2026-08-03T19:53:42Z</time></trkpt>
<trkpt lat="35.047571" lon="-85.062679"><ele>337.7</ele><time>2026-08-03T19:53:45Z</time></trkpt>
<trkpt lat="35.047597" lon="-85.062656"><ele>337.1</ele><time>2026-08-03T19:53:48Z</time></trkpt>
<trkpt lat="35.047625" lon="-85.062634"><ele>337.4</ele><time>2026-08-03T19:53:51Z</time></trkpt>
<trkpt lat="35.047646" lon="-85.062607"><ele>336.5</ele><time>2026-08-03T19:53:54Z</time></trkpt>
<trkpt lat="35.047662" lon="-85.062577"><ele>336.8</ele><time>2026-08-03T19:53:57Z</time></trkpt>
<trkpt lat="35.047679" lon="-85.06255"><ele>337.4</ele><time>2026-08-03T19:54:00Z</time></trkpt>
<trkpt lat="35.047706" lon="-85.062529"><ele>336.5</ele><time>2026-08-03T19:54:03Z</time></trkpt>
<trkpt lat="35.047733" lon="-85.062506"><ele>335.3</ele><time>2026-08-03T19:54:06Z</time></trkpt>
<trkpt lat="35.047764" lon="-85.062486"><ele>333.1</ele><time>2026-08-03T19:54:09Z</time></trkpt>
<trkpt lat="35.047794" lon="-85.062476"><ele>334.1</ele><time>2026-08-03T19:54:12Z</time></trkpt>
<trkpt lat="35.047824" lon="-85.062463"><ele>333.8</ele><time>2026-08-03T19:54:15Z</time></trkpt>
<trkpt lat="35.047857" lon="-85.062453"><ele>333.8</ele><time>2026-08-03T19:54:18Z</time></trkpt>
<trkpt lat="35.047891" lon="-85.062444"><ele>333.8</ele><time>2026-08-03T19:54:21Z</time></trkpt>
<trkpt lat="35.047924" lon="-85.062433"><ele>334.1</ele><time>2026-08-03T19:54:24Z</time></trkpt>
<trkpt lat="35.047957" lon="-85.062418"><ele>335.9</ele><time>2026-08-03T19:54:27Z</time></trkpt>
<trkpt lat="35.047984" lon="-85.062397"><ele>335.9</ele><time>2026-08-03T19:54:30Z</time></trkpt>
<trkpt lat="35.048019" lon="-85.062377"><ele>334.4</ele><time>2026-08-03T19:54:33Z</time></trkpt>
<trkpt lat="35.048054" lon="-85.062359"><ele>331.6</ele><time>2026-08-03T19:54:36Z</time></trkpt>
<trkpt lat="35.048086" lon="-85.062342"><ele>331.6</ele><time>2026-08-03T19:54:39Z</time></trkpt>
<trkpt lat="35.048117" lon="-85.062324"><ele>331.9</ele><time>2026-08-03T19:54:42Z</time></trkpt>
<trkpt lat="35.048147" lon="-85.062301"><ele>331.9</ele><time>2026-08-03T19:54:45Z</time></trkpt>
<trkpt lat="35.048179" lon="-85.062285"><ele>332.8</ele><time>2026-08-03T19:54:48Z</time></trkpt>
<trkpt lat="35.048213" lon="-85.062274"><ele>334.7</ele><time>2026-08-03T19:54:51Z</time></trkpt>
<trkpt lat="35.048243" lon="-85.062248"><ele>331.0</ele><time>2026-08-03T19:54:54Z</time></trkpt>
<trkpt lat="35.048265" lon="-85.062225"><ele>329.2</ele><time>2026-08-03T19:54:56Z</time></trkpt>
<trkpt lat="35.048289" lon="-85.062207"><ele>328.6</ele><time>2026-08-03T19:54:58Z</time></trkpt>
<trkpt lat="35.048312" lon="-85.062187"><ele>328.6</ele><time>2026-08-03T19:55:00Z</time></trkpt>
<trkpt lat="35.048346" lon="-85.06216"><ele>328.3</ele><time>2026-08-03T19:55:03Z</time></trkpt>
<trkpt lat="35.048378" lon="-85.062136"><ele>328.3</ele><time>2026-08-03T19:55:06Z</time></trkpt>
<trkpt lat="35.048407" lon="-85.062108"><ele>328.3</ele><time>2026-08-03T19:55:09Z</time></trkpt>
<trkpt lat="35.048434" lon="-85.062078"><ele>327.4</ele><time>2026-08-03T19:55:12Z</time></trkpt>
<trkpt lat="35.048457" lon="-85.062045"><ele>325.8</ele><time>2026-08-03T19:55:15Z</time></trkpt>
<trkpt lat="35.048486" lon="-85.062014"><ele>325.2</ele><time>2026-08-03T19:55:18Z</time></trkpt>
<trkpt lat="35.048522" lon="-85.061999"><ele>326.1</ele><time>2026-08-03T19:55:21Z</time></trkpt>
<trkpt lat="35.048548" lon="-85.061989"><ele>326.1</ele><time>2026-08-03T19:55:23Z</time></trkpt>
<trkpt lat="35.048586" lon="-85.061973"><ele>324.6</ele><time>2026-08-03T19:55:26Z</time></trkpt>
<trkpt lat="35.048618" lon="-85.061946"><ele>325.2</ele><time>2026-08-03T19:55:29Z</time></trkpt>
<trkpt lat="35.048649" lon="-85.061923"><ele>323.4</ele><time>2026-08-03T19:55:32Z</time></trkpt>
<trkpt lat="35.048682" lon="-85.061901"><ele>323.7</ele><time>2026-08-03T19:55:35Z</time></trkpt>
<trkpt lat="35.048716" lon="-85.061889"><ele>324.3</ele><time>2026-08-03T19:55:38Z</time></trkpt>
<trkpt lat="35.048754" lon="-85.061881"><ele>324.3</ele><time>2026-08-03T19:55:41Z</time></trkpt>
<trkpt lat="35.048788" lon="-85.061878"><ele>323.7</ele><time>2026-08-03T19:55:44Z</time></trkpt>
<trkpt lat="35.04882" lon="-85.06188"><ele>324.3</ele><time>2026-08-03T19:55:47Z</time></trkpt>
<trkpt lat="35.048852" lon="-85.061877"><ele>325.2</ele><time>2026-08-03T19:55:50Z</time></trkpt>
<trkpt lat="35.048883" lon="-85.06187"><ele>325.5</ele><time>2026-08-03T19:55:53Z</time></trkpt>
<trkpt lat="35.048912" lon="-85.061853"><ele>326.1</ele><time>2026-08-03T19:55:56Z</time></trkpt>
<trkpt lat="35.048945" lon="-85.061831"><ele>325.5</ele><time>2026-08-03T19:56:00Z</time></trkpt>
<trkpt lat="35.048968" lon="-85.061812"><ele>325.8</ele><time>2026-08-03T19:56:03Z</time></trkpt>
<trkpt lat="35.048993" lon="-85.061796"><ele>325.2</ele><time>2026-08-03T19:56:06Z</time></trkpt>
<trkpt lat="35.049012" lon="-85.061764"><ele>323.1</ele><time>2026-08-03T19:56:09Z</time></trkpt>
<trkpt lat="35.049031" lon="-85.061726"><ele>322.8</ele><time>2026-08-03T19:56:12Z</time></trkpt>
<trkpt lat="35.049052" lon="-85.06169"><ele>321.9</ele><time>2026-08-03T19:56:15Z</time></trkpt>
<trkpt lat="35.049085" lon="-85.06167"><ele>322.5</ele><time>2026-08-03T19:56:18Z</time></trkpt>
<trkpt lat="35.049115" lon="-85.061664"><ele>322.2</ele><time>2026-08-03T19:56:21Z</time></trkpt>
<trkpt lat="35.049146" lon="-85.061654"><ele>322.8</ele><time>2026-08-03T19:56:24Z</time></trkpt>
<trkpt lat="35.049179" lon="-85.061642"><ele>323.7</ele><time>2026-08-03T19:56:27Z</time></trkpt>
<trkpt lat="35.049216" lon="-85.061648"><ele>324.9</ele><time>2026-08-03T19:56:30Z</time></trkpt>
<trkpt lat="35.049249" lon="-85.061635"><ele>324.6</ele><time>2026-08-03T19:56:33Z</time></trkpt>
<trkpt lat="35.049282" lon="-85.061613"><ele>324.6</ele><time>2026-08-03T19:56:36Z</time></trkpt>
<trkpt lat="35.049314" lon="-85.061596"><ele>325.2</ele><time>2026-08-03T19:56:39Z</time></trkpt>
<trkpt lat="35.049341" lon="-85.06157"><ele>324.3</ele><time>2026-08-03T19:56:42Z</time></trkpt>
<trkpt lat="35.049374" lon="-85.061553"><ele>325.2</ele><time>2026-08-03T19:56:45Z</time></trkpt>
<trkpt lat="35.049406" lon="-85.06153"><ele>324.6</ele><time>2026-08-03T19:56:48Z</time></trkpt>
<trkpt lat="35.049434" lon="-85.0615"><ele>324.6</ele><time>2026-08-03T19:56:51Z</time></trkpt>
<trkpt lat="35.049462" lon="-85.061476"><ele>324.3</ele><time>2026-08-03T19:56:54Z</time></trkpt>
<trkpt lat="35.049493" lon="-85.061452"><ele>322.2</ele><time>2026-08-03T19:56:57Z</time></trkpt>
<trkpt lat="35.049525" lon="-85.061432"><ele>321.9</ele><time>2026-08-03T19:57:00Z</time></trkpt>
<trkpt lat="35.049556" lon="-85.061408"><ele>322.8</ele><time>2026-08-03T19:57:03Z</time></trkpt>
<trkpt lat="35.049589" lon="-85.061386"><ele>323.4</ele><time>2026-08-03T19:57:06Z</time></trkpt>
<trkpt lat="35.049624" lon="-85.061364"><ele>322.2</ele><time>2026-08-03T19:57:09Z</time></trkpt>
<trkpt lat="35.049658" lon="-85.061347"><ele>321.9</ele><time>2026-08-03T19:57:12Z</time></trkpt>
<trkpt lat="35.049692" lon="-85.061333"><ele>322.8</ele><time>2026-08-03T19:57:15Z</time></trkpt>
<trkpt lat="35.049719" lon="-85.061303"><ele>322.8</ele><time>2026-08-03T19:57:18Z</time></trkpt>
<trkpt lat="35.049756" lon="-85.061292"><ele>322.8</ele><time>2026-08-03T19:57:21Z</time></trkpt>
<trkpt lat="35.049794" lon="-85.061289"><ele>321.6</ele><time>2026-08-03T19:57:24Z</time></trkpt>
<trkpt lat="35.049821" lon="-85.061284"><ele>321.9</ele><time>2026-08-03T19:57:26Z</time></trkpt>
<trkpt lat="35.049855" lon="-85.061259"><ele>321.9</ele><time>2026-08-03T19:57:29Z</time></trkpt>
<trkpt lat="35.049882" lon="-85.061247"><ele>324.0</ele><time>2026-08-03T19:57:32Z</time></trkpt>
<trkpt lat="35.049922" lon="-85.061228"><ele>324.0</ele><time>2026-08-03T19:57:35Z</time></trkpt>
<trkpt lat="35.049951" lon="-85.061215"><ele>322.2</ele><time>2026-08-03T19:57:37Z</time></trkpt>
<trkpt lat="35.049989" lon="-85.061199"><ele>321.9</ele><time>2026-08-03T19:57:39Z</time></trkpt>
<trkpt lat="35.050017" lon="-85.06119"><ele>320.3</ele><time>2026-08-03T19:57:41Z</time></trkpt>
<trkpt lat="35.050037" lon="-85.061167"><ele>319.7</ele><time>2026-08-03T19:57:43Z</time></trkpt>
<trkpt lat="35.050059" lon="-85.061146"><ele>318.8</ele><time>2026-08-03T19:57:45Z</time></trkpt>
<trkpt lat="35.050095" lon="-85.061144"><ele>319.1</ele><time>2026-08-03T19:57:48Z</time></trkpt>
<trkpt lat="35.050124" lon="-85.061152"><ele>319.4</ele><time>2026-08-03T19:57:50Z</time></trkpt>
<trkpt lat="35.050151" lon="-85.06116"><ele>320.0</ele><time>2026-08-03T19:57:52Z</time></trkpt>
<trkpt lat="35.05019" lon="-85.061148"><ele>318.8</ele><time>2026-08-03T19:57:55Z</time></trkpt>
<trkpt lat="35.050219" lon="-85.061146"><ele>319.4</ele><time>2026-08-03T19:57:57Z</time></trkpt>
<trkpt lat="35.050249" lon="-85.061144"><ele>321.0</ele><time>2026-08-03T19:57:59Z</time></trkpt>
<trkpt lat="35.05028" lon="-85.061142"><ele>321.6</ele><time>2026-08-03T19:58:01Z</time></trkpt>
<trkpt lat="35.050317" lon="-85.061133"><ele>321.9</ele><time>2026-08-03T19:58:04Z</time></trkpt>
<trkpt lat="35.050359" lon="-85.061134"><ele>322.8</ele><time>2026-08-03T19:58:07Z</time></trkpt>
<trkpt lat="35.050395" lon="-85.061145"><ele>322.5</ele><time>2026-08-03T19:58:10Z</time></trkpt>
<trkpt lat="35.050433" lon="-85.061142"><ele>321.9</ele><time>2026-08-03T19:58:13Z</time></trkpt>
<trkpt lat="35.050471" lon="-85.061137"><ele>322.5</ele><time>2026-08-03T19:58:16Z</time></trkpt>
<trkpt lat="35.0505" lon="-85.061108"><ele>324.0</ele><time>2026-08-03T19:58:19Z</time></trkpt>
<trkpt lat="35.05053" lon="-85.061092"><ele>324.9</ele><time>2026-08-03T19:58:22Z</time></trkpt>
<trkpt lat="35.050562" lon="-85.061094"><ele>326.7</ele><time>2026-08-03T19:58:25Z</time></trkpt>
<trkpt lat="35.050592" lon="-85.061105"><ele>324.9</ele><time>2026-08-03T19:58:28Z</time></trkpt>
<trkpt lat="35.050619" lon="-85.061113"><ele>323.1</ele><time>2026-08-03T19:58:31Z</time></trkpt>
<trkpt lat="35.050645" lon="-85.061102"><ele>322.5</ele><time>2026-08-03T19:58:34Z</time></trkpt>
<trkpt lat="35.050669" lon="-85.061076"><ele>324.0</ele><time>2026-08-03T19:58:37Z</time></trkpt>
<trkpt lat="35.050686" lon="-85.061036"><ele>323.7</ele><time>2026-08-03T19:58:40Z</time></trkpt>
<trkpt lat="35.050706" lon="-85.060997"><ele>323.7</ele><time>2026-08-03T19:58:43Z</time></trkpt>
<trkpt lat="35.050727" lon="-85.060957"><ele>324.6</ele><time>2026-08-03T19:58:46Z</time></trkpt>
<trkpt lat="35.050756" lon="-85.060922"><ele>324.9</ele><time>2026-08-03T19:58:49Z</time></trkpt>
<trkpt lat="35.050793" lon="-85.060909"><ele>325.2</ele><time>2026-08-03T19:58:52Z</time></trkpt>
<trkpt lat="35.050829" lon="-85.060913"><ele>325.8</ele><time>2026-08-03T19:58:55Z</time></trkpt>
<trkpt lat="35.050856" lon="-85.06089"><ele>324.0</ele><time>2026-08-03T19:58:58Z</time></trkpt>
<trkpt lat="35.050872" lon="-85.060847"><ele>322.8</ele><time>2026-08-03T19:59:01Z</time></trkpt>
<trkpt lat="35.050895" lon="-85.060827"><ele>323.1</ele><time>2026-08-03T19:59:03Z</time></trkpt>
<trkpt lat="35.050922" lon="-85.060794"><ele>321.9</ele><time>2026-08-03T19:59:06Z</time></trkpt>
<trkpt lat="35.050947" lon="-85.060758"><ele>324.3</ele><time>2026-08-03T19:59:09Z</time></trkpt>
<trkpt lat="35.050963" lon="-85.060723"><ele>324.3</ele><time>2026-08-03T19:59:12Z</time></trkpt>
<trkpt lat="35.050982" lon="-85.060689"><ele>326.7</ele><time>2026-08-03T19:59:15Z</time></trkpt>
<trkpt lat="35.051014" lon="-85.060672"><ele>326.4</ele><time>2026-08-03T19:59:19Z</time></trkpt>
<trkpt lat="35.051043" lon="-85.060662"><ele>326.4</ele><time>2026-08-03T19:59:22Z</time></trkpt>
<trkpt lat="35.051077" lon="-85.060658"><ele>326.7</ele><time>2026-08-03T19:59:25Z</time></trkpt>
<trkpt lat="35.051105" lon="-85.060648"><ele>327.4</ele><time>2026-08-03T19:59:28Z</time></trkpt>
<trkpt lat="35.051129" lon="-85.060627"><ele>327.7</ele><time>2026-08-03T19:59:31Z</time></trkpt>
<trkpt lat="35.051143" lon="-85.060596"><ele>324.9</ele><time>2026-08-03T19:59:34Z</time></trkpt>
<trkpt lat="35.051134" lon="-85.060557"><ele>323.1</ele><time>2026-08-03T19:59:37Z</time></trkpt>
<trkpt lat="35.051111" lon="-85.060521"><ele>324.0</ele><time>2026-08-03T19:59:40Z</time></trkpt>
<trkpt lat="35.051078" lon="-85.060499"><ele>324.6</ele><time>2026-08-03T19:59:43Z</time></trkpt>
<trkpt lat="35.05104" lon="-85.060497"><ele>324.6</ele><time>2026-08-03T19:59:46Z</time></trkpt>
<trkpt lat="35.051009" lon="-85.060517"><ele>325.2</ele><time>2026-08-03T19:59:49Z</time></trkpt>
<trkpt lat="35.050979" lon="-85.060544"><ele>325.8</ele><time>2026-08-03T19:59:52Z</time></trkpt>
<trkpt lat="35.050951" lon="-85.060566"><ele>326.4</ele><time>2026-08-03T19:59:55Z</time></trkpt>
<trkpt lat="35.050921" lon="-85.060569"><ele>325.8</ele><time>2026-08-03T19:59:58Z</time></trkpt>
<trkpt lat="35.050886" lon="-85.060567"><ele>324.9</ele><time>2026-08-03T20:00:01Z</time></trkpt>
<trkpt lat="35.050859" lon="-85.06058"><ele>324.9</ele><time>2026-08-03T20:00:03Z</time></trkpt>
<trkpt lat="35.050836" lon="-85.060603"><ele>325.2</ele><time>2026-08-03T20:00:05Z</time></trkpt>
<trkpt lat="35.050817" lon="-85.060645"><ele>324.9</ele><time>2026-08-03T20:00:08Z</time></trkpt>
<trkpt lat="35.050799" lon="-85.060682"><ele>322.8</ele><time>2026-08-03T20:00:11Z</time></trkpt>
<trkpt lat="35.050768" lon="-85.06068"><ele>322.5</ele><time>2026-08-03T20:00:14Z</time></trkpt>
<trkpt lat="35.050735" lon="-85.060697"><ele>321.9</ele><time>2026-08-03T20:00:17Z</time></trkpt>
<trkpt lat="35.0507" lon="-85.060717"><ele>322.5</ele><time>2026-08-03T20:00:20Z</time></trkpt>
<trkpt lat="35.050668" lon="-85.060738"><ele>322.2</ele><time>2026-08-03T20:00:23Z</time></trkpt>
<trkpt lat="35.050634" lon="-85.060751"><ele>321.3</ele><time>2026-08-03T20:00:26Z</time></trkpt>
<trkpt lat="35.050598" lon="-85.060756"><ele>320.6</ele><time>2026-08-03T20:00:29Z</time></trkpt>
<trkpt lat="35.050561" lon="-85.060768"><ele>321.0</ele><time>2026-08-03T20:00:32Z</time></trkpt>
<trkpt lat="35.050524" lon="-85.060783"><ele>320.0</ele><time>2026-08-03T20:00:35Z</time></trkpt>
<trkpt lat="35.050489" lon="-85.060799"><ele>320.3</ele><time>2026-08-03T20:00:38Z</time></trkpt>
<trkpt lat="35.050454" lon="-85.060821"><ele>321.6</ele><time>2026-08-03T20:00:41Z</time></trkpt>
<trkpt lat="35.050435" lon="-85.060861"><ele>321.3</ele><time>2026-08-03T20:00:44Z</time></trkpt>
<trkpt lat="35.050411" lon="-85.060883"><ele>321.9</ele><time>2026-08-03T20:00:46Z</time></trkpt>
<trkpt lat="35.050372" lon="-85.060896"><ele>319.7</ele><time>2026-08-03T20:00:49Z</time></trkpt>
<trkpt lat="35.050347" lon="-85.060912"><ele>320.3</ele><time>2026-08-03T20:00:51Z</time></trkpt>
<trkpt lat="35.050312" lon="-85.060928"><ele>319.7</ele><time>2026-08-03T20:00:54Z</time></trkpt>
<trkpt lat="35.050276" lon="-85.060932"><ele>316.1</ele><time>2026-08-03T20:00:57Z</time></trkpt>
<trkpt lat="35.050238" lon="-85.060943"><ele>316.7</ele><time>2026-08-03T20:01:00Z</time></trkpt>
<trkpt lat="35.050212" lon="-85.060932"><ele>315.5</ele><time>2026-08-03T20:01:02Z</time></trkpt>
<trkpt lat="35.050176" lon="-85.060914"><ele>315.8</ele><time>2026-08-03T20:01:05Z</time></trkpt>
<trkpt lat="35.050147" lon="-85.060914"><ele>315.8</ele><time>2026-08-03T20:01:07Z</time></trkpt>
<trkpt lat="35.05012" lon="-85.06092"><ele>316.7</ele><time>2026-08-03T20:01:09Z</time></trkpt>
<trkpt lat="35.050085" lon="-85.060902"><ele>317.3</ele><time>2026-08-03T20:01:12Z</time></trkpt>
<trkpt lat="35.050063" lon="-85.060871"><ele>317.0</ele><time>2026-08-03T20:01:15Z</time></trkpt>
<trkpt lat="35.050036" lon="-85.060843"><ele>317.0</ele><time>2026-08-03T20:01:18Z</time></trkpt>
<trkpt lat="35.050009" lon="-85.060816"><ele>316.4</ele><time>2026-08-03T20:01:21Z</time></trkpt>
<trkpt lat="35.049977" lon="-85.060795"><ele>313.6</ele><time>2026-08-03T20:01:24Z</time></trkpt>
<trkpt lat="35.04995" lon="-85.060803"><ele>314.2</ele><time>2026-08-03T20:01:26Z</time></trkpt>
<trkpt lat="35.049912" lon="-85.060824"><ele>314.2</ele><time>2026-08-03T20:01:29Z</time></trkpt>
<trkpt lat="35.049875" lon="-85.060834"><ele>314.9</ele><time>2026-08-03T20:01:32Z</time></trkpt>
<trkpt lat="35.049844" lon="-85.060807"><ele>313.0</ele><time>2026-08-03T20:01:35Z</time></trkpt>
<trkpt lat="35.049848" lon="-85.060773"><ele>313.9</ele><time>2026-08-03T20:01:37Z</time></trkpt>
<trkpt lat="35.049869" lon="-85.060751"><ele>312.7</ele><time>2026-08-03T20:01:39Z</time></trkpt>
<trkpt lat="35.049906" lon="-85.060734"><ele>311.5</ele><time>2026-08-03T20:01:42Z</time></trkpt>
<trkpt lat="35.049934" lon="-85.060727"><ele>310.3</ele><time>2026-08-03T20:01:44Z</time></trkpt>
<trkpt lat="35.049961" lon="-85.06072"><ele>311.5</ele><time>2026-08-03T20:01:46Z</time></trkpt>
<trkpt lat="35.049989" lon="-85.060723"><ele>311.2</ele><time>2026-08-03T20:01:48Z</time></trkpt>
<trkpt lat="35.050029" lon="-85.060723"><ele>311.5</ele><time>2026-08-03T20:01:51Z</time></trkpt>
<trkpt lat="35.050065" lon="-85.060718"><ele>312.7</ele><time>2026-08-03T20:01:54Z</time></trkpt>
<trkpt lat="35.050103" lon="-85.060722"><ele>311.2</ele><time>2026-08-03T20:01:57Z</time></trkpt>
<trkpt lat="35.05014" lon="-85.06073"><ele>312.4</ele><time>2026-08-03T20:02:00Z</time></trkpt>
<trkpt lat="35.050179" lon="-85.060731"><ele>313.0</ele><time>2026-08-03T20:02:03Z</time></trkpt>
<trkpt lat="35.050216" lon="-85.060717"><ele>310.0</ele><time>2026-08-03T20:02:06Z</time></trkpt>
<trkpt lat="35.050257" lon="-85.060712"><ele>310.9</ele><time>2026-08-03T20:02:09Z</time></trkpt>
<trkpt lat="35.050294" lon="-85.060696"><ele>311.5</ele><time>2026-08-03T20:02:12Z</time></trkpt>
<trkpt lat="35.05033" lon="-85.060684"><ele>311.2</ele><time>2026-08-03T20:02:15Z</time></trkpt>
<trkpt lat="35.050367" lon="-85.06067"><ele>312.4</ele><time>2026-08-03T20:02:18Z</time></trkpt>
<trkpt lat="35.050402" lon="-85.060671"><ele>314.2</ele><time>2026-08-03T20:02:21Z</time></trkpt>
<trkpt lat="35.050431" lon="-85.060663"><ele>314.6</ele><time>2026-08-03T20:02:24Z</time></trkpt>
<trkpt lat="35.050465" lon="-85.060658"><ele>315.8</ele><time>2026-08-03T20:02:27Z</time></trkpt>
<trkpt lat="35.0505" lon="-85.060649"><ele>316.1</ele><time>2026-08-03T20:02:30Z</time></trkpt>
<trkpt lat="35.050537" lon="-85.060643"><ele>315.5</ele><time>2026-08-03T20:02:33Z</time></trkpt>
<trkpt lat="35.050572" lon="-85.060631"><ele>316.4</ele><time>2026-08-03T20:02:36Z</time></trkpt>
<trkpt lat="35.050608" lon="-85.060611"><ele>315.5</ele><time>2026-08-03T20:02:39Z</time></trkpt>
<trkpt lat="35.050643" lon="-85.060591"><ele>314.9</ele><time>2026-08-03T20:02:42Z</time></trkpt>
<trkpt lat="35.050664" lon="-85.060569"><ele>313.0</ele><time>2026-08-03T20:02:44Z</time></trkpt>
<trkpt lat="35.050692" lon="-85.060536"><ele>312.1</ele><time>2026-08-03T20:02:47Z</time></trkpt>
<trkpt lat="35.050725" lon="-85.060508"><ele>312.4</ele><time>2026-08-03T20:02:50Z</time></trkpt>
<trkpt lat="35.050752" lon="-85.060475"><ele>313.0</ele><time>2026-08-03T20:02:53Z</time></trkpt>
<trkpt lat="35.050772" lon="-85.060435"><ele>313.0</ele><time>2026-08-03T20:02:56Z</time></trkpt>
<trkpt lat="35.050793" lon="-85.060396"><ele>313.6</ele><time>2026-08-03T20:02:59Z</time></trkpt>
<trkpt lat="35.050821" lon="-85.060361"><ele>313.0</ele><time>2026-08-03T20:03:02Z</time></trkpt>
<trkpt lat="35.050844" lon="-85.060336"><ele>311.8</ele><time>2026-08-03T20:03:04Z</time></trkpt>
<trkpt lat="35.050869" lon="-85.060318"><ele>310.0</ele><time>2026-08-03T20:03:06Z</time></trkpt>
<trkpt lat="35.050898" lon="-85.060287"><ele>308.5</ele><time>2026-08-03T20:03:09Z</time></trkpt>
<trkpt lat="35.050927" lon="-85.060254"><ele>307.8</ele><time>2026-08-03T20:03:12Z</time></trkpt>
<trkpt lat="35.050955" lon="-85.060223"><ele>307.8</ele><time>2026-08-03T20:03:15Z</time></trkpt>
<trkpt lat="35.050979" lon="-85.060204"><ele>308.5</ele><time>2026-08-03T20:03:17Z</time></trkpt>
<trkpt lat="35.051006" lon="-85.060192"><ele>307.8</ele><time>2026-08-03T20:03:19Z</time></trkpt>
<trkpt lat="35.051033" lon="-85.060184"><ele>308.2</ele><time>2026-08-03T20:03:21Z</time></trkpt>
<trkpt lat="35.051069" lon="-85.060164"><ele>309.4</ele><time>2026-08-03T20:03:24Z</time></trkpt>
<trkpt lat="35.051094" lon="-85.060149"><ele>309.7</ele><time>2026-08-03T20:03:26Z</time></trkpt>
<trkpt lat="35.051098" lon="-85.060116"><ele>309.7</ele><time>2026-08-03T20:03:28Z</time></trkpt>
<trkpt lat="35.05109" lon="-85.060084"><ele>308.8</ele><time>2026-08-03T20:03:30Z</time></trkpt>
<trkpt lat="35.051084" lon="-85.060044"><ele>309.4</ele><time>2026-08-03T20:03:32Z</time></trkpt>
<trkpt lat="35.051096" lon="-85.060008"><ele>311.2</ele><time>2026-08-03T20:03:34Z</time></trkpt>
<trkpt lat="35.051122" lon="-85.059972"><ele>311.2</ele><time>2026-08-03T20:03:37Z</time></trkpt>
<trkpt lat="35.051136" lon="-85.059936"><ele>311.5</ele><time>2026-08-03T20:03:40Z</time></trkpt>
<trkpt lat="35.051158" lon="-85.059901"><ele>310.3</ele><time>2026-08-03T20:03:43Z</time></trkpt>
<trkpt lat="35.05117" lon="-85.05986"><ele>311.2</ele><time>2026-08-03T20:03:46Z</time></trkpt>
<trkpt lat="35.051178" lon="-85.059815"><ele>312.1</ele><time>2026-08-03T20:03:49Z</time></trkpt>
<trkpt lat="35.051187" lon="-85.059771"><ele>311.8</ele><time>2026-08-03T20:03:52Z</time></trkpt>
<trkpt lat="35.051195" lon="-85.059725"><ele>310.9</ele><time>2026-08-03T20:03:55Z</time></trkpt>
<trkpt lat="35.051197" lon="-85.05968"><ele>312.4</ele><time>2026-08-03T20:03:58Z</time></trkpt>
<trkpt lat="35.051217" lon="-85.059645"><ele>313.3</ele><time>2026-08-03T20:04:01Z</time></trkpt>
<trkpt lat="35.051234" lon="-85.059607"><ele>315.8</ele><time>2026-08-03T20:04:04Z</time></trkpt>
<trkpt lat="35.051243" lon="-85.059566"><ele>316.7</ele><time>2026-08-03T20:04:07Z</time></trkpt>
<trkpt lat="35.051217" lon="-85.059544"><ele>317.0</ele><time>2026-08-03T20:04:09Z</time></trkpt>
<trkpt lat="35.051187" lon="-85.05956"><ele>315.5</ele><time>2026-08-03T20:04:11Z</time></trkpt>
<trkpt lat="35.051161" lon="-85.059573"><ele>314.9</ele><time>2026-08-03T20:04:13Z</time></trkpt>
<trkpt lat="35.05113" lon="-85.0596"><ele>313.0</ele><time>2026-08-03T20:04:16Z</time></trkpt>
<trkpt lat="35.051111" lon="-85.059637"><ele>312.1</ele><time>2026-08-03T20:04:19Z</time></trkpt>
<trkpt lat="35.051095" lon="-85.059679"><ele>310.3</ele><time>2026-08-03T20:04:22Z</time></trkpt>
<trkpt lat="35.051059" lon="-85.059687"><ele>310.6</ele><time>2026-08-03T20:04:25Z</time></trkpt>
<trkpt lat="35.051021" lon="-85.059699"><ele>310.3</ele><time>2026-08-03T20:04:28Z</time></trkpt>
<trkpt lat="35.050984" lon="-85.059718"><ele>309.4</ele><time>2026-08-03T20:04:31Z</time></trkpt>
<trkpt lat="35.050948" lon="-85.059738"><ele>309.7</ele><time>2026-08-03T20:04:34Z</time></trkpt>
<trkpt lat="35.050915" lon="-85.05976"><ele>309.1</ele><time>2026-08-03T20:04:37Z</time></trkpt>
<trkpt lat="35.050889" lon="-85.05979"><ele>309.1</ele><time>2026-08-03T20:04:40Z</time></trkpt>
<trkpt lat="35.050857" lon="-85.059817"><ele>307.2</ele><time>2026-08-03T20:04:43Z</time></trkpt>
<trkpt lat="35.050819" lon="-85.059826"><ele>306.0</ele><time>2026-08-03T20:04:46Z</time></trkpt>
<trkpt lat="35.050782" lon="-85.059843"><ele>305.7</ele><time>2026-08-03T20:04:49Z</time></trkpt>
<trkpt lat="35.05075" lon="-85.059866"><ele>306.6</ele><time>2026-08-03T20:04:52Z</time></trkpt>
<trkpt lat="35.050716" lon="-85.059887"><ele>307.5</ele><time>2026-08-03T20:04:55Z</time></trkpt>
<trkpt lat="35.050689" lon="-85.059898"><ele>307.8</ele><time>2026-08-03T20:04:57Z</time></trkpt>
<trkpt lat="35.050653" lon="-85.059918"><ele>307.8</ele><time>2026-08-03T20:05:00Z</time></trkpt>
<trkpt lat="35.05062" lon="-85.059942"><ele>307.2</ele><time>2026-08-03T20:05:03Z</time></trkpt>
<trkpt lat="35.05059" lon="-85.059972"><ele>305.1</ele><time>2026-08-03T20:05:06Z</time></trkpt>
<trkpt lat="35.050564" lon="-85.060004"><ele>303.0</ele><time>2026-08-03T20:05:09Z</time></trkpt>
<trkpt lat="35.050538" lon="-85.06003"><ele>302.4</ele><time>2026-08-03T20:05:12Z</time></trkpt>
<trkpt lat="35.050511" lon="-85.060061"><ele>300.8</ele><time>2026-08-03T20:05:15Z</time></trkpt>
<trkpt lat="35.050487" lon="-85.060099"><ele>300.2</ele><time>2026-08-03T20:05:18Z</time></trkpt>
<trkpt lat="35.050468" lon="-85.060124"><ele>299.0</ele><time>2026-08-03T20:05:20Z</time></trkpt>
<trkpt lat="35.050456" lon="-85.060156"><ele>299.0</ele><time>2026-08-03T20:05:22Z</time></trkpt>
<trkpt lat="35.050428" lon="-85.060192"><ele>299.3</ele><time>2026-08-03T20:05:25Z</time></trkpt>
<trkpt lat="35.050405" lon="-85.060212"><ele>299.0</ele><time>2026-08-03T20:05:27Z</time></trkpt>
<trkpt lat="35.050374" lon="-85.060236"><ele>299.3</ele><time>2026-08-03T20:05:30Z</time></trkpt>
<trkpt lat="35.050344" lon="-85.060267"><ele>298.1</ele><time>2026-08-03T20:05:33Z</time></trkpt>
<trkpt lat="35.050328" lon="-85.060298"><ele>297.8</ele><time>2026-08-03T20:05:35Z</time></trkpt>
<trkpt lat="35.050312" lon="-85.060341"><ele>297.2</ele><time>2026-08-03T20:05:38Z</time></trkpt>
<trkpt lat="35.050285" lon="-85.060372"><ele>300.8</ele><time>2026-08-03T20:05:41Z</time></trkpt>
<trkpt lat="35.050262" lon="-85.06039"><ele>302.1</ele><time>2026-08-03T20:05:43Z</time></trkpt>
<trkpt lat="35.050237" lon="-85.060405"><ele>302.7</ele><time>2026-08-03T20:05:45Z</time></trkpt>
<trkpt lat="35.050209" lon="-85.060414"><ele>303.0</ele><time>2026-08-03T20:05:47Z</time></trkpt>
<trkpt lat="35.050171" lon="-85.060419"><ele>303.0</ele><time>2026-08-03T20:05:50Z</time></trkpt>
<trkpt lat="35.050131" lon="-85.060421"><ele>303.0</ele><time>2026-08-03T20:05:53Z</time></trkpt>
<trkpt lat="35.050092" lon="-85.060422"><ele>302.7</ele><time>2026-08-03T20:05:56Z</time></trkpt>
<trkpt lat="35.050065" lon="-85.060428"><ele>303.9</ele><time>2026-08-03T20:05:58Z</time></trkpt>
<trkpt lat="35.050025" lon="-85.060431"><ele>303.9</ele><time>2026-08-03T20:06:01Z</time></trkpt>
<trkpt lat="35.04999" lon="-85.060438"><ele>305.1</ele><time>2026-08-03T20:06:04Z</time></trkpt>
<trkpt lat="35.049956" lon="-85.060456"><ele>305.4</ele><time>2026-08-03T20:06:07Z</time></trkpt>
<trkpt lat="35.049934" lon="-85.060495"><ele>303.3</ele><time>2026-08-03T20:06:10Z</time></trkpt>
<trkpt lat="35.049922" lon="-85.060541"><ele>302.4</ele><time>2026-08-03T20:06:13Z</time></trkpt>
<trkpt lat="35.049892" lon="-85.060572"><ele>303.3</ele><time>2026-08-03T20:06:16Z</time></trkpt>
<trkpt lat="35.049862" lon="-85.060598"><ele>303.6</ele><time>2026-08-03T20:06:19Z</time></trkpt>
<trkpt lat="35.049837" lon="-85.060635"><ele>304.2</ele><time>2026-08-03T20:06:22Z</time></trkpt>
<trkpt lat="35.049808" lon="-85.060662"><ele>303.9</ele><time>2026-08-03T20:06:25Z</time></trkpt>
<trkpt lat="35.049773" lon="-85.060684"><ele>304.8</ele><time>2026-08-03T20:06:28Z</time></trkpt>
<trkpt lat="35.049746" lon="-85.060695"><ele>305.7</ele><time>2026-08-03T20:06:30Z</time></trkpt>
<trkpt lat="35.049709" lon="-85.060714"><ele>306.3</ele><time>2026-08-03T20:06:33Z</time></trkpt>
<trkpt lat="35.04967" lon="-85.060724"><ele>305.1</ele><time>2026-08-03T20:06:36Z</time></trkpt>
<trkpt lat="35.04964" lon="-85.060751"><ele>305.7</ele><time>2026-08-03T20:06:39Z</time></trkpt>
<trkpt lat="35.049608" lon="-85.060782"><ele>305.4</ele><time>2026-08-03T20:06:42Z</time></trkpt>
<trkpt lat="35.04958" lon="-85.060816"><ele>306.3</ele><time>2026-08-03T20:06:45Z</time></trkpt>
<trkpt lat="35.049558" lon="-85.060854"><ele>306.3</ele><time>2026-08-03T20:06:48Z</time></trkpt>
<trkpt lat="35.049552" lon="-85.060888"><ele>305.4</ele><time>2026-08-03T20:06:50Z</time></trkpt>
<trkpt lat="35.049547" lon="-85.060921"><ele>305.1</ele><time>2026-08-03T20:06:52Z</time></trkpt>
<trkpt lat="35.049522" lon="-85.060958"><ele>305.1</ele><time>2026-08-03T20:06:55Z</time></trkpt>
<trkpt lat="35.049498" lon="-85.060986"><ele>305.1</ele><time>2026-08-03T20:06:58Z</time></trkpt>
<trkpt lat="35.049472" lon="-85.061022"><ele>306.0</ele><time>2026-08-03T20:07:01Z</time></trkpt>
<trkpt lat="35.049443" lon="-85.061058"><ele>308.8</ele><time>2026-08-03T20:07:04Z</time></trkpt>
<trkpt lat="35.049418" lon="-85.061096"><ele>310.3</ele><time>2026-08-03T20:07:07Z</time></trkpt>
<trkpt lat="35.049401" lon="-85.061123"><ele>310.6</ele><time>2026-08-03T20:07:09Z</time></trkpt>
<trkpt lat="35.04938" lon="-85.061146"><ele>310.0</ele><time>2026-08-03T20:07:11Z</time></trkpt>
<trkpt lat="35.049343" lon="-85.061167"><ele>310.9</ele><time>2026-08-03T20:07:14Z</time></trkpt>
<trkpt lat="35.049305" lon="-85.061178"><ele>310.0</ele><time>2026-08-03T20:07:17Z</time></trkpt>
<trkpt lat="35.049266" lon="-85.06119"><ele>310.3</ele><time>2026-08-03T20:07:20Z</time></trkpt>
<trkpt lat="35.049229" lon="-85.061204"><ele>311.5</ele><time>2026-08-03T20:07:23Z</time></trkpt>
<trkpt lat="35.049196" lon="-85.061228"><ele>313.0</ele><time>2026-08-03T20:07:26Z</time></trkpt>
<trkpt lat="35.049162" lon="-85.061247"><ele>312.1</ele><time>2026-08-03T20:07:29Z</time></trkpt>
<trkpt lat="35.049138" lon="-85.061263"><ele>310.9</ele><time>2026-08-03T20:07:31Z</time></trkpt>
<trkpt lat="35.049105" lon="-85.061284"><ele>309.4</ele><time>2026-08-03T20:07:34Z</time></trkpt>
<trkpt lat="35.04907" lon="-85.061309"><ele>309.1</ele><time>2026-08-03T20:07:37Z</time></trkpt>
<trkpt lat="35.049031" lon="-85.061322"><ele>310.6</ele><time>2026-08-03T20:07:40Z</time></trkpt>
<trkpt lat="35.049003" lon="-85.061323"><ele>313.6</ele><time>2026-08-03T20:07:42Z</time></trkpt>
<trkpt lat="35.048966" lon="-85.061322"><ele>314.2</ele><time>2026-08-03T20:07:45Z</time></trkpt>
<trkpt lat="35.048929" lon="-85.061319"><ele>314.2</ele><time>2026-08-03T20:07:48Z</time></trkpt>
<trkpt lat="35.048891" lon="-85.061321"><ele>314.9</ele><time>2026-08-03T20:07:51Z</time></trkpt>
<trkpt lat="35.048855" lon="-85.061331"><ele>317.9</ele><time>2026-08-03T20:07:54Z</time></trkpt>
<trkpt lat="35.048816" lon="-85.061339"><ele>319.1</ele><time>2026-08-03T20:07:57Z</time></trkpt>
<trkpt lat="35.048787" lon="-85.061342"><ele>321.6</ele><time>2026-08-03T20:08:00Z</time></trkpt>
<trkpt lat="35.048756" lon="-85.061343"><ele>320.3</ele><time>2026-08-03T20:08:04Z</time></trkpt>
<trkpt lat="35.048723" lon="-85.06133"><ele>319.4</ele><time>2026-08-03T20:08:07Z</time></trkpt>
<trkpt lat="35.048692" lon="-85.061317"><ele>318.2</ele><time>2026-08-03T20:08:11Z</time></trkpt>
<trkpt lat="35.048671" lon="-85.061286"><ele>319.7</ele><time>2026-08-03T20:08:14Z</time></trkpt>
<trkpt lat="35.048645" lon="-85.061267"><ele>319.1</ele><time>2026-08-03T20:08:16Z</time></trkpt>
<trkpt lat="35.048618" lon="-85.061257"><ele>318.2</ele><time>2026-08-03T20:08:18Z</time></trkpt>
<trkpt lat="35.048585" lon="-85.061253"><ele>318.2</ele><time>2026-08-03T20:08:21Z</time></trkpt>
<trkpt lat="35.048575" lon="-85.061257"><ele>318.2</ele><time>2026-08-03T20:08:23Z</time></trkpt>
<trkpt lat="35.048574" lon="-85.061259"><ele>318.2</ele><time>2026-08-03T20:08:24Z</time></trkpt>
<trkpt lat="35.048563" lon="-85.061265"><ele>318.2</ele><time>2026-08-03T20:08:25Z</time></trkpt>
<trkpt lat="35.048558" lon="-85.06128"><ele>317.3</ele><time>2026-08-03T20:08:26Z</time></trkpt>
<trkpt lat="35.048555" lon="-85.061286"><ele>317.3</ele><time>2026-08-03T20:08:29Z</time></trkpt>
<trkpt lat="35.04855" lon="-85.061286"><ele>317.6</ele><time>2026-08-03T20:08:30Z</time></trkpt>
<trkpt lat="35.048521" lon="-85.061292"><ele>316.4</ele><time>2026-08-03T20:08:33Z</time></trkpt>
<trkpt lat="35.048487" lon="-85.061295"><ele>314.2</ele><time>2026-08-03T20:08:35Z</time></trkpt>
<trkpt lat="35.04845" lon="-85.061288"><ele>314.6</ele><time>2026-08-03T20:08:38Z</time></trkpt>
<trkpt lat="35.048431" lon="-85.061264"><ele>313.3</ele><time>2026-08-03T20:08:40Z</time></trkpt>
<trkpt lat="35.048413" lon="-85.061236"><ele>313.0</ele><time>2026-08-03T20:08:42Z</time></trkpt>
<trkpt lat="35.048384" lon="-85.061207"><ele>310.9</ele><time>2026-08-03T20:08:45Z</time></trkpt>
<trkpt lat="35.048364" lon="-85.061183"><ele>309.7</ele><time>2026-08-03T20:08:47Z</time></trkpt>
<trkpt lat="35.048367" lon="-85.061142"><ele>311.2</ele><time>2026-08-03T20:08:50Z</time></trkpt>
<trkpt lat="35.048384" lon="-85.061143"><ele>308.8</ele><time>2026-08-03T20:08:51Z</time></trkpt>
<trkpt lat="35.048406" lon="-85.061159"><ele>306.6</ele><time>2026-08-03T20:08:52Z</time></trkpt>
<trkpt lat="35.048412" lon="-85.061164"><ele>306.6</ele><time>2026-08-03T20:08:58Z</time></trkpt>
<trkpt lat="35.048409" lon="-85.061161"><ele>307.2</ele><time>2026-08-03T20:08:59Z</time></trkpt>
<trkpt lat="35.048403" lon="-85.06116"><ele>306.9</ele><time>2026-08-03T20:09:00Z</time></trkpt>
<trkpt lat="35.048402" lon="-85.061166"><ele>307.2</ele><time>2026-08-03T20:09:01Z</time></trkpt>
<trkpt lat="35.048403" lon="-85.061167"><ele>307.2</ele><time>2026-08-03T20:09:02Z</time></trkpt>
<trkpt lat="35.048405" lon="-85.061175"><ele>307.5</ele><time>2026-08-03T20:09:03Z</time></trkpt>
<trkpt lat="35.048405" lon="-85.061178"><ele>308.2</ele><time>2026-08-03T20:09:04Z</time></trkpt>
<trkpt lat="35.048405" lon="-85.061179"><ele>308.5</ele><time>2026-08-03T20:09:05Z</time></trkpt>
<trkpt lat="35.04841" lon="-85.061192"><ele>308.2</ele><time>2026-08-03T20:09:06Z</time></trkpt>
<trkpt lat="35.04845" lon="-85.061186"><ele>309.4</ele><time>2026-08-03T20:09:07Z</time></trkpt>
<trkpt lat="35.048422" lon="-85.061196"><ele>309.7</ele><time>2026-08-03T20:09:08Z</time></trkpt>
<trkpt lat="35.048406" lon="-85.0612"><ele>310.3</ele><time>2026-08-03T20:09:14Z</time></trkpt>
<trkpt lat="35.048407" lon="-85.061198"><ele>310.6</ele><time>2026-08-03T20:09:15Z</time></trkpt>
<trkpt lat="35.048379" lon="-85.061174"><ele>309.7</ele><time>2026-08-03T20:09:19Z</time></trkpt>
<trkpt lat="35.048354" lon="-85.061154"><ele>310.0</ele><time>2026-08-03T20:09:22Z</time></trkpt>
<trkpt lat="35.048325" lon="-85.061122"><ele>310.9</ele><time>2026-08-03T20:09:26Z</time></trkpt>
<trkpt lat="35.04831" lon="-85.061078"><ele>311.8</ele><time>2026-08-03T20:09:29Z</time></trkpt>
<trkpt lat="35.048285" lon="-85.061053"><ele>312.4</ele><time>2026-08-03T20:09:31Z</time></trkpt>
<trkpt lat="35.048256" lon="-85.061049"><ele>311.2</ele><time>2026-08-03T20:09:33Z</time></trkpt>
<trkpt lat="35.04822" lon="-85.061032"><ele>312.1</ele><time>2026-08-03T20:09:36Z</time></trkpt>
<trkpt lat="35.048198" lon="-85.060994"><ele>315.5</ele><time>2026-08-03T20:09:39Z</time></trkpt>
<trkpt lat="35.04817" lon="-85.060971"><ele>316.7</ele><time>2026-08-03T20:09:41Z</time></trkpt>
<trkpt lat="35.048152" lon="-85.060941"><ele>315.2</ele><time>2026-08-03T20:09:43Z</time></trkpt>
<trkpt lat="35.048138" lon="-85.060907"><ele>315.5</ele><time>2026-08-03T20:09:45Z</time></trkpt>
<trkpt lat="35.048115" lon="-85.060871"><ele>316.7</ele><time>2026-08-03T20:09:48Z</time></trkpt>
<trkpt lat="35.048098" lon="-85.060834"><ele>316.4</ele><time>2026-08-03T20:09:51Z</time></trkpt>
<trkpt lat="35.048086" lon="-85.060791"><ele>315.5</ele><time>2026-08-03T20:09:54Z</time></trkpt>
<trkpt lat="35.048072" lon="-85.060755"><ele>316.1</ele><time>2026-08-03T20:09:57Z</time></trkpt>
<trkpt lat="35.048068" lon="-85.060716"><ele>317.0</ele><time>2026-08-03T20:10:00Z</time></trkpt>
<trkpt lat="35.04807" lon="-85.060681"><ele>315.5</ele><time>2026-08-03T20:10:03Z</time></trkpt>
<trkpt lat="35.048067" lon="-85.060643"><ele>317.6</ele><time>2026-08-03T20:10:06Z</time></trkpt>
<trkpt lat="35.048066" lon="-85.060607"><ele>318.8</ele><time>2026-08-03T20:10:09Z</time></trkpt>
<trkpt lat="35.048049" lon="-85.06057"><ele>317.9</ele><time>2026-08-03T20:10:12Z</time></trkpt>
<trkpt lat="35.048023" lon="-85.060544"><ele>317.9</ele><time>2026-08-03T20:10:15Z</time></trkpt>
<trkpt lat="35.047994" lon="-85.060517"><ele>316.7</ele><time>2026-08-03T20:10:18Z</time></trkpt>
<trkpt lat="35.047962" lon="-85.0605"><ele>315.8</ele><time>2026-08-03T20:10:21Z</time></trkpt>
<trkpt lat="35.047927" lon="-85.06049"><ele>315.8</ele><time>2026-08-03T20:10:24Z</time></trkpt>
<trkpt lat="35.047891" lon="-85.060486"><ele>317.3</ele><time>2026-08-03T20:10:27Z</time></trkpt>
<trkpt lat="35.047858" lon="-85.060483"><ele>317.6</ele><time>2026-08-03T20:10:30Z</time></trkpt>
<trkpt lat="35.047822" lon="-85.060477"><ele>318.5</ele><time>2026-08-03T20:10:33Z</time></trkpt>
<trkpt lat="35.047787" lon="-85.060463"><ele>319.1</ele><time>2026-08-03T20:10:36Z</time></trkpt>
<trkpt lat="35.04775" lon="-85.060457"><ele>321.6</ele><time>2026-08-03T20:10:39Z</time></trkpt>
<trkpt lat="35.047715" lon="-85.06044"><ele>322.8</ele><time>2026-08-03T20:10:42Z</time></trkpt>
<trkpt lat="35.047678" lon="-85.060425"><ele>324.3</ele><time>2026-08-03T20:10:45Z</time></trkpt>
<trkpt lat="35.047651" lon="-85.060415"><ele>324.9</ele><time>2026-08-03T20:10:47Z</time></trkpt>
<trkpt lat="35.047617" lon="-85.060404"><ele>324.3</ele><time>2026-08-03T20:10:50Z</time></trkpt>
<trkpt lat="35.047582" lon="-85.06038"><ele>325.5</ele><time>2026-08-03T20:10:53Z</time></trkpt>
<trkpt lat="35.047561" lon="-85.060343"><ele>327.4</ele><time>2026-08-03T20:10:56Z</time></trkpt>
<trkpt lat="35.047561" lon="-85.060297"><ele>328.6</ele><time>2026-08-03T20:10:59Z</time></trkpt>
<trkpt lat="35.04758" lon="-85.060261"><ele>326.7</ele><time>2026-08-03T20:11:02Z</time></trkpt>
<trkpt lat="35.047603" lon="-85.060227"><ele>326.1</ele><time>2026-08-03T20:11:05Z</time></trkpt>
<trkpt lat="35.04761" lon="-85.06018"><ele>323.7</ele><time>2026-08-03T20:11:08Z</time></trkpt>
<trkpt lat="35.047603" lon="-85.060136"><ele>324.3</ele><time>2026-08-03T20:11:11Z</time></trkpt>
<trkpt lat="35.04759" lon="-85.060095"><ele>324.3</ele><time>2026-08-03T20:11:14Z</time></trkpt>
<trkpt lat="35.047573" lon="-85.060058"><ele>324.6</ele><time>2026-08-03T20:11:17Z</time></trkpt>
<trkpt lat="35.04756" lon="-85.06002"><ele>324.0</ele><time>2026-08-03T20:11:20Z</time></trkpt>
<trkpt lat="35.04755" lon="-85.059977"><ele>324.3</ele><time>2026-08-03T20:11:23Z</time></trkpt>
<trkpt lat="35.047544" lon="-85.059932"><ele>325.2</ele><time>2026-08-03T20:11:26Z</time></trkpt>
<trkpt lat="35.047541" lon="-85.059886"><ele>325.5</ele><time>2026-08-03T20:11:29Z</time></trkpt>
<trkpt lat="35.047554" lon="-85.059839"><ele>324.0</ele><time>2026-08-03T20:11:32Z</time></trkpt>
<trkpt lat="35.047569" lon="-85.059807"><ele>324.9</ele><time>2026-08-03T20:11:34Z</time></trkpt>
<trkpt lat="35.047588" lon="-85.059766"><ele>324.9</ele><time>2026-08-03T20:11:37Z</time></trkpt>
<trkpt lat="35.047604" lon="-85.059722"><ele>325.8</ele><time>2026-08-03T20:11:40Z</time></trkpt>
<trkpt lat="35.047603" lon="-85.059672"><ele>326.4</ele><time>2026-08-03T20:11:43Z</time></trkpt>
<trkpt lat="35.04759" lon="-85.05964"><ele>327.4</ele><time>2026-08-03T20:11:45Z</time></trkpt>
<trkpt lat="35.047564" lon="-85.0596"><ele>327.7</ele><time>2026-08-03T20:11:48Z</time></trkpt>
<trkpt lat="35.047544" lon="-85.059576"><ele>328.0</ele><time>2026-08-03T20:11:50Z</time></trkpt>
<trkpt lat="35.047516" lon="-85.059543"><ele>327.4</ele><time>2026-08-03T20:11:53Z</time></trkpt>
<trkpt lat="35.047501" lon="-85.059503"><ele>328.6</ele><time>2026-08-03T20:11:56Z</time></trkpt>
<trkpt lat="35.04749" lon="-85.05946"><ele>330.1</ele><time>2026-08-03T20:11:59Z</time></trkpt>
<trkpt lat="35.047491" lon="-85.059424"><ele>330.1</ele><time>2026-08-03T20:12:01Z</time></trkpt>
<trkpt lat="35.04748" lon="-85.059379"><ele>331.0</ele><time>2026-08-03T20:12:04Z</time></trkpt>
<trkpt lat="35.047472" lon="-85.059335"><ele>331.3</ele><time>2026-08-03T20:12:07Z</time></trkpt>
<trkpt lat="35.047463" lon="-85.059291"><ele>332.5</ele><time>2026-08-03T20:12:10Z</time></trkpt>
<trkpt lat="35.047459" lon="-85.059249"><ele>331.9</ele><time>2026-08-03T20:12:13Z</time></trkpt>
<trkpt lat="35.047451" lon="-85.059208"><ele>333.1</ele><time>2026-08-03T20:12:16Z</time></trkpt>
<trkpt lat="35.047446" lon="-85.059164"><ele>334.7</ele><time>2026-08-03T20:12:19Z</time></trkpt>
<trkpt lat="35.047442" lon="-85.059121"><ele>335.0</ele><time>2026-08-03T20:12:22Z</time></trkpt>
<trkpt lat="35.047438" lon="-85.059079"><ele>335.3</ele><time>2026-08-03T20:12:25Z</time></trkpt>
<trkpt lat="35.04744" lon="-85.059037"><ele>335.6</ele><time>2026-08-03T20:12:28Z</time></trkpt>
<trkpt lat="35.047454" lon="-85.058991"><ele>336.2</ele><time>2026-08-03T20:12:31Z</time></trkpt>
<trkpt lat="35.047469" lon="-85.058953"><ele>337.1</ele><time>2026-08-03T20:12:34Z</time></trkpt>
<trkpt lat="35.047494" lon="-85.058922"><ele>334.7</ele><time>2026-08-03T20:12:37Z</time></trkpt>
<trkpt lat="35.047527" lon="-85.058906"><ele>334.7</ele><time>2026-08-03T20:12:40Z</time></trkpt>
<trkpt lat="35.047559" lon="-85.058932"><ele>334.1</ele><time>2026-08-03T20:12:43Z</time></trkpt>
<trkpt lat="35.047582" lon="-85.058969"><ele>331.9</ele><time>2026-08-03T20:12:46Z</time></trkpt>
<trkpt lat="35.0476" lon="-85.058994"><ele>331.6</ele><time>2026-08-03T20:12:48Z</time></trkpt>
<trkpt lat="35.047613" lon="-85.059024"><ele>332.8</ele><time>2026-08-03T20:12:50Z</time></trkpt>
<trkpt lat="35.047635" lon="-85.059064"><ele>331.9</ele><time>2026-08-03T20:12:53Z</time></trkpt>
<trkpt lat="35.047656" lon="-85.059108"><ele>332.5</ele><time>2026-08-03T20:12:56Z</time></trkpt>
<trkpt lat="35.047671" lon="-85.059138"><ele>333.1</ele><time>2026-08-03T20:12:58Z</time></trkpt>
<trkpt lat="35.047691" lon="-85.059166"><ele>333.5</ele><time>2026-08-03T20:13:00Z</time></trkpt>
<trkpt lat="35.047714" lon="-85.059185"><ele>333.1</ele><time>2026-08-03T20:13:02Z</time></trkpt>
<trkpt lat="35.047734" lon="-85.059208"><ele>333.8</ele><time>2026-08-03T20:13:04Z</time></trkpt>
<trkpt lat="35.047768" lon="-85.059235"><ele>334.1</ele><time>2026-08-03T20:13:07Z</time></trkpt>
<trkpt lat="35.047794" lon="-85.059249"><ele>333.8</ele><time>2026-08-03T20:13:09Z</time></trkpt>
<trkpt lat="35.047816" lon="-85.059269"><ele>333.1</ele><time>2026-08-03T20:13:11Z</time></trkpt>
<trkpt lat="35.047844" lon="-85.059297"><ele>332.8</ele><time>2026-08-03T20:13:14Z</time></trkpt>
<trkpt lat="35.047862" lon="-85.059324"><ele>333.5</ele><time>2026-08-03T20:13:16Z</time></trkpt>
<trkpt lat="35.047883" lon="-85.05935"><ele>334.7</ele><time>2026-08-03T20:13:18Z</time></trkpt>
<trkpt lat="35.047905" lon="-85.059374"><ele>335.0</ele><time>2026-08-03T20:13:20Z</time></trkpt>
<trkpt lat="35.047925" lon="-85.059398"><ele>334.4</ele><time>2026-08-03T20:13:22Z</time></trkpt>
<trkpt lat="35.047941" lon="-85.059426"><ele>335.0</ele><time>2026-08-03T20:13:24Z</time></trkpt>
<trkpt lat="35.047967" lon="-85.059463"><ele>334.7</ele><time>2026-08-03T20:13:27Z</time></trkpt>
<trkpt lat="35.047995" lon="-85.0595"><ele>335.6</ele><time>2026-08-03T20:13:30Z</time></trkpt>
<trkpt lat="35.048011" lon="-85.059528"><ele>337.4</ele><time>2026-08-03T20:13:32Z</time></trkpt>
<trkpt lat="35.048025" lon="-85.059557"><ele>337.4</ele><time>2026-08-03T20:13:34Z</time></trkpt>
<trkpt lat="35.048045" lon="-85.059597"><ele>338.9</ele><time>2026-08-03T20:13:37Z</time></trkpt>
<trkpt lat="35.048066" lon="-85.059634"><ele>338.6</ele><time>2026-08-03T20:13:40Z</time></trkpt>
<trkpt lat="35.048092" lon="-85.059661"><ele>338.9</ele><time>2026-08-03T20:13:43Z</time></trkpt>
<trkpt lat="35.048121" lon="-85.059683"><ele>338.6</ele><time>2026-08-03T20:13:46Z</time></trkpt>
<trkpt lat="35.048156" lon="-85.059696"><ele>339.2</ele><time>2026-08-03T20:13:49Z</time></trkpt>
<trkpt lat="35.048188" lon="-85.059716"><ele>340.5</ele><time>2026-08-03T20:13:52Z</time></trkpt>
<trkpt lat="35.048221" lon="-85.059723"><ele>339.5</ele><time>2026-08-03T20:13:55Z</time></trkpt>
<trkpt lat="35.048254" lon="-85.059734"><ele>339.9</ele><time>2026-08-03T20:13:58Z</time></trkpt>
<trkpt lat="35.048283" lon="-85.059748"><ele>339.2</ele><time>2026-08-03T20:14:01Z</time></trkpt>
<trkpt lat="35.048316" lon="-85.059757"><ele>340.2</ele><time>2026-08-03T20:14:04Z</time></trkpt>
<trkpt lat="35.048346" lon="-85.059741"><ele>339.5</ele><time>2026-08-03T20:14:07Z</time></trkpt>
<trkpt lat="35.048361" lon="-85.059707"><ele>337.7</ele><time>2026-08-03T20:14:09Z</time></trkpt>
<trkpt lat="35.048371" lon="-85.059674"><ele>337.1</ele><time>2026-08-03T20:14:11Z</time></trkpt>
<trkpt lat="35.048374" lon="-85.059626"><ele>335.9</ele><time>2026-08-03T20:14:14Z</time></trkpt>
<trkpt lat="35.048365" lon="-85.059592"><ele>335.3</ele><time>2026-08-03T20:14:16Z</time></trkpt>
<trkpt lat="35.048349" lon="-85.059548"><ele>335.0</ele><time>2026-08-03T20:14:19Z</time></trkpt>
<trkpt lat="35.048346" lon="-85.059505"><ele>335.6</ele><time>2026-08-03T20:14:22Z</time></trkpt>
<trkpt lat="35.048343" lon="-85.059445"><ele>333.1</ele><time>2026-08-03T20:14:25Z</time></trkpt>
<trkpt lat="35.048319" lon="-85.059399"><ele>334.1</ele><time>2026-08-03T20:14:27Z</time></trkpt>
<trkpt lat="35.048289" lon="-85.059382"><ele>334.4</ele><time>2026-08-03T20:14:29Z</time></trkpt>
<trkpt lat="35.04826" lon="-85.059374"><ele>333.1</ele><time>2026-08-03T20:14:31Z</time></trkpt>
<trkpt lat="35.048225" lon="-85.059357"><ele>333.1</ele><time>2026-08-03T20:14:34Z</time></trkpt>
<trkpt lat="35.048196" lon="-85.059327"><ele>333.5</ele><time>2026-08-03T20:14:37Z</time></trkpt>
<trkpt lat="35.048166" lon="-85.059293"><ele>332.5</ele><time>2026-08-03T20:14:40Z</time></trkpt>
<trkpt lat="35.048138" lon="-85.059257"><ele>332.5</ele><time>2026-08-03T20:14:43Z</time></trkpt>
<trkpt lat="35.04812" lon="-85.059231"><ele>332.2</ele><time>2026-08-03T20:14:45Z</time></trkpt>
<trkpt lat="35.048107" lon="-85.059182"><ele>331.9</ele><time>2026-08-03T20:14:48Z</time></trkpt>
<trkpt lat="35.048095" lon="-85.059152"><ele>331.9</ele><time>2026-08-03T20:14:50Z</time></trkpt>
<trkpt lat="35.04806" lon="-85.059131"><ele>331.0</ele><time>2026-08-03T20:14:54Z</time></trkpt>
<trkpt lat="35.048034" lon="-85.05912"><ele>331.3</ele><time>2026-08-03T20:14:56Z</time></trkpt>
<trkpt lat="35.048026" lon="-85.05908"><ele>332.2</ele><time>2026-08-03T20:14:59Z</time></trkpt>
<trkpt lat="35.048024" lon="-85.059041"><ele>332.8</ele><time>2026-08-03T20:15:02Z</time></trkpt>
<trkpt lat="35.048003" lon="-85.059003"><ele>332.8</ele><time>2026-08-03T20:15:05Z</time></trkpt>
<trkpt lat="35.047971" lon="-85.058978"><ele>331.9</ele><time>2026-08-03T20:15:08Z</time></trkpt>
<trkpt lat="35.047941" lon="-85.05895"><ele>331.3</ele><time>2026-08-03T20:15:11Z</time></trkpt>
<trkpt lat="35.047909" lon="-85.058941"><ele>330.7</ele><time>2026-08-03T20:15:14Z</time></trkpt>
<trkpt lat="35.047877" lon="-85.058935"><ele>331.9</ele><time>2026-08-03T20:15:17Z</time></trkpt>
<trkpt lat="35.047857" lon="-85.058911"><ele>330.7</ele><time>2026-08-03T20:15:20Z</time></trkpt>
<trkpt lat="35.047854" lon="-85.058874"><ele>331.0</ele><time>2026-08-03T20:15:23Z</time></trkpt>
<trkpt lat="35.047853" lon="-85.058825"><ele>331.6</ele><time>2026-08-03T20:15:26Z</time></trkpt>
<trkpt lat="35.047852" lon="-85.058783"><ele>330.7</ele><time>2026-08-03T20:15:29Z</time></trkpt>
<trkpt lat="35.047842" lon="-85.058745"><ele>330.4</ele><time>2026-08-03T20:15:32Z</time></trkpt>
<trkpt lat="35.047818" lon="-85.058715"><ele>329.2</ele><time>2026-08-03T20:15:35Z</time></trkpt>
<trkpt lat="35.047791" lon="-85.058691"><ele>328.9</ele><time>2026-08-03T20:15:38Z</time></trkpt>
<trkpt lat="35.047778" lon="-85.058656"><ele>328.0</ele><time>2026-08-03T20:15:41Z</time></trkpt>
<trkpt lat="35.047777" lon="-85.058619"><ele>328.0</ele><time>2026-08-03T20:15:44Z</time></trkpt>
<trkpt lat="35.047785" lon="-85.058574"><ele>329.2</ele><time>2026-08-03T20:15:47Z</time></trkpt>
<trkpt lat="35.047783" lon="-85.058526"><ele>330.4</ele><time>2026-08-03T20:15:50Z</time></trkpt>
<trkpt lat="35.047784" lon="-85.058491"><ele>332.2</ele><time>2026-08-03T20:15:53Z</time></trkpt>
<trkpt lat="35.047783" lon="-85.058452"><ele>332.8</ele><time>2026-08-03T20:15:56Z</time></trkpt>
<trkpt lat="35.047786" lon="-85.05841"><ele>332.2</ele><time>2026-08-03T20:15:59Z</time></trkpt>
<trkpt lat="35.047778" lon="-85.058371"><ele>331.3</ele><time>2026-08-03T20:16:02Z</time></trkpt>
<trkpt lat="35.047762" lon="-85.058335"><ele>330.7</ele><time>2026-08-03T20:16:05Z</time></trkpt>
<trkpt lat="35.047739" lon="-85.058303"><ele>330.7</ele><time>2026-08-03T20:16:08Z</time></trkpt>
<trkpt lat="35.047718" lon="-85.058273"><ele>330.1</ele><time>2026-08-03T20:16:11Z</time></trkpt>
<trkpt lat="35.047692" lon="-85.05825"><ele>331.3</ele><time>2026-08-03T20:16:14Z</time></trkpt>
<trkpt lat="35.047674" lon="-85.058221"><ele>329.8</ele><time>2026-08-03T20:16:17Z</time></trkpt>
<trkpt lat="35.047665" lon="-85.058182"><ele>328.3</ele><time>2026-08-03T20:16:20Z</time></trkpt>
<trkpt lat="35.047654" lon="-85.058144"><ele>326.7</ele><time>2026-08-03T20:16:23Z</time></trkpt>
<trkpt lat="35.047631" lon="-85.058117"><ele>326.1</ele><time>2026-08-03T20:16:26Z</time></trkpt>
<trkpt lat="35.0476" lon="-85.058093"><ele>326.4</ele><time>2026-08-03T20:16:29Z</time></trkpt>
<trkpt lat="35.047574" lon="-85.058068"><ele>325.5</ele><time>2026-08-03T20:16:32Z</time></trkpt>
<trkpt lat="35.047554" lon="-85.058033"><ele>326.1</ele><time>2026-08-03T20:16:35Z</time></trkpt>
<trkpt lat="35.047545" lon="-85.057992"><ele>325.8</ele><time>2026-08-03T20:16:38Z</time></trkpt>
<trkpt lat="35.047557" lon="-85.057959"><ele>325.2</ele><time>2026-08-03T20:16:41Z</time></trkpt>
<trkpt lat="35.047566" lon="-85.057925"><ele>324.6</ele><time>2026-08-03T20:16:44Z</time></trkpt>
<trkpt lat="35.04756" lon="-85.057883"><ele>322.8</ele><time>2026-08-03T20:16:47Z</time></trkpt>
<trkpt lat="35.047525" lon="-85.057823"><ele>323.1</ele><time>2026-08-03T20:16:50Z</time></trkpt>
<trkpt lat="35.04751" lon="-85.057794"><ele>323.7</ele><time>2026-08-03T20:16:52Z</time></trkpt>
<trkpt lat="35.047503" lon="-85.057747"><ele>324.9</ele><time>2026-08-03T20:16:54Z</time></trkpt>
<trkpt lat="35.047481" lon="-85.057712"><ele>325.5</ele><time>2026-08-03T20:16:57Z</time></trkpt>
<trkpt lat="35.047466" lon="-85.057673"><ele>326.1</ele><time>2026-08-03T20:17:00Z</time></trkpt>
<trkpt lat="35.047473" lon="-85.057633"><ele>326.4</ele><time>2026-08-03T20:17:03Z</time></trkpt>
<trkpt lat="35.047495" lon="-85.0576"><ele>324.3</ele><time>2026-08-03T20:17:07Z</time></trkpt>
<trkpt lat="35.047493" lon="-85.057558"><ele>324.0</ele><time>2026-08-03T20:17:10Z</time></trkpt>
<trkpt lat="35.047487" lon="-85.057511"><ele>324.0</ele><time>2026-08-03T20:17:13Z</time></trkpt>
<trkpt lat="35.047475" lon="-85.057481"><ele>324.0</ele><time>2026-08-03T20:17:15Z</time></trkpt>
<trkpt lat="35.047461" lon="-85.057435"><ele>323.7</ele><time>2026-08-03T20:17:18Z</time></trkpt>
<trkpt lat="35.047443" lon="-85.057404"><ele>324.0</ele><time>2026-08-03T20:17:20Z</time></trkpt>
<trkpt lat="35.047419" lon="-85.057383"><ele>324.9</ele><time>2026-08-03T20:17:22Z</time></trkpt>
<trkpt lat="35.047401" lon="-85.057348"><ele>324.3</ele><time>2026-08-03T20:17:25Z</time></trkpt>
<trkpt lat="35.0474" lon="-85.057307"><ele>324.0</ele><time>2026-08-03T20:17:28Z</time></trkpt>
<trkpt lat="35.0474" lon="-85.05726"><ele>323.7</ele><time>2026-08-03T20:17:31Z</time></trkpt>
<trkpt lat="35.04739" lon="-85.057226"><ele>324.6</ele><time>2026-08-03T20:17:33Z</time></trkpt>
<trkpt lat="35.047374" lon="-85.057196"><ele>323.7</ele><time>2026-08-03T20:17:35Z</time></trkpt>
<trkpt lat="35.047357" lon="-85.057155"><ele>324.3</ele><time>2026-08-03T20:17:38Z</time></trkpt>
<trkpt lat="35.047357" lon="-85.057109"><ele>322.5</ele><time>2026-08-03T20:17:41Z</time></trkpt>
<trkpt lat="35.047379" lon="-85.057083"><ele>318.2</ele><time>2026-08-03T20:17:44Z</time></trkpt>
<trkpt lat="35.047384" lon="-85.057039"><ele>318.5</ele><time>2026-08-03T20:17:47Z</time></trkpt>
<trkpt lat="35.047364" lon="-85.057001"><ele>319.7</ele><time>2026-08-03T20:17:50Z</time></trkpt>
<trkpt lat="35.047333" lon="-85.056976"><ele>318.5</ele><time>2026-08-03T20:17:53Z</time></trkpt>
<trkpt lat="35.047298" lon="-85.056955"><ele>317.9</ele><time>2026-08-03T20:17:56Z</time></trkpt>
<trkpt lat="35.04727" lon="-85.056953"><ele>317.6</ele><time>2026-08-03T20:17:58Z</time></trkpt>
<trkpt lat="35.047232" lon="-85.056944"><ele>317.3</ele><time>2026-08-03T20:18:01Z</time></trkpt>
<trkpt lat="35.047197" lon="-85.056951"><ele>317.3</ele><time>2026-08-03T20:18:04Z</time></trkpt>
<trkpt lat="35.04717" lon="-85.056983"><ele>317.9</ele><time>2026-08-03T20:18:07Z</time></trkpt>
<trkpt lat="35.047138" lon="-85.057014"><ele>318.5</ele><time>2026-08-03T20:18:10Z</time></trkpt>
<trkpt lat="35.047101" lon="-85.057029"><ele>317.9</ele><time>2026-08-03T20:18:13Z</time></trkpt>
<trkpt lat="35.047063" lon="-85.057032"><ele>318.8</ele><time>2026-08-03T20:18:16Z</time></trkpt>
<trkpt lat="35.047023" lon="-85.057045"><ele>318.5</ele><time>2026-08-03T20:18:19Z</time></trkpt>
<trkpt lat="35.04699" lon="-85.057071"><ele>317.3</ele><time>2026-08-03T20:18:22Z</time></trkpt>
<trkpt lat="35.046965" lon="-85.057107"><ele>318.5</ele><time>2026-08-03T20:18:25Z</time></trkpt>
<trkpt lat="35.046948" lon="-85.05715"><ele>317.3</ele><time>2026-08-03T20:18:28Z</time></trkpt>
<trkpt lat="35.046933" lon="-85.057179"><ele>316.7</ele><time>2026-08-03T20:18:30Z</time></trkpt>
<trkpt lat="35.046918" lon="-85.057208"><ele>314.9</ele><time>2026-08-03T20:18:32Z</time></trkpt>
<trkpt lat="35.046896" lon="-85.057248"><ele>315.8</ele><time>2026-08-03T20:18:35Z</time></trkpt>
<trkpt lat="35.046878" lon="-85.057287"><ele>316.7</ele><time>2026-08-03T20:18:38Z</time></trkpt>
<trkpt lat="35.046855" lon="-85.057324"><ele>317.0</ele><time>2026-08-03T20:18:41Z</time></trkpt>
<trkpt lat="35.046826" lon="-85.057336"><ele>316.4</ele><time>2026-08-03T20:18:44Z</time></trkpt>
<trkpt lat="35.046791" lon="-85.057335"><ele>317.6</ele><time>2026-08-03T20:18:47Z</time></trkpt>
<trkpt lat="35.046757" lon="-85.057342"><ele>320.0</ele><time>2026-08-03T20:18:50Z</time></trkpt>
<trkpt lat="35.04673" lon="-85.057354"><ele>321.0</ele><time>2026-08-03T20:18:52Z</time></trkpt>
<trkpt lat="35.046702" lon="-85.057369"><ele>320.6</ele><time>2026-08-03T20:18:54Z</time></trkpt>
<trkpt lat="35.04668" lon="-85.057405"><ele>322.8</ele><time>2026-08-03T20:18:57Z</time></trkpt>
<trkpt lat="35.046654" lon="-85.057426"><ele>323.7</ele><time>2026-08-03T20:19:00Z</time></trkpt>
<trkpt lat="35.046623" lon="-85.05742"><ele>324.0</ele><time>2026-08-03T20:19:03Z</time></trkpt>
<trkpt lat="35.046589" lon="-85.057396"><ele>323.4</ele><time>2026-08-03T20:19:06Z</time></trkpt>
<trkpt lat="35.046555" lon="-85.057376"><ele>323.1</ele><time>2026-08-03T20:19:09Z</time></trkpt>
<trkpt lat="35.046517" lon="-85.057367"><ele>323.1</ele><time>2026-08-03T20:19:12Z</time></trkpt>
<trkpt lat="35.046481" lon="-85.057376"><ele>322.2</ele><time>2026-08-03T20:19:15Z</time></trkpt>
<trkpt lat="35.046446" lon="-85.057388"><ele>323.4</ele><time>2026-08-03T20:19:18Z</time></trkpt>
<trkpt lat="35.04641" lon="-85.057402"><ele>323.7</ele><time>2026-08-03T20:19:21Z</time></trkpt>
<trkpt lat="35.046375" lon="-85.057406"><ele>324.9</ele><time>2026-08-03T20:19:24Z</time></trkpt>
<trkpt lat="35.046347" lon="-85.057399"><ele>324.6</ele><time>2026-08-03T20:19:27Z</time></trkpt>
<trkpt lat="35.046325" lon="-85.05737"><ele>324.0</ele><time>2026-08-03T20:19:30Z</time></trkpt>
<trkpt lat="35.046298" lon="-85.057342"><ele>323.7</ele><time>2026-08-03T20:19:33Z</time></trkpt>
<trkpt lat="35.046267" lon="-85.05732"><ele>323.7</ele><time>2026-08-03T20:19:36Z</time></trkpt>
<trkpt lat="35.046232" lon="-85.057309"><ele>323.7</ele><time>2026-08-03T20:19:39Z</time></trkpt>
<trkpt lat="35.046204" lon="-85.05731"><ele>323.7</ele><time>2026-08-03T20:19:41Z</time></trkpt>
<trkpt lat="35.046164" lon="-85.057313"><ele>323.7</ele><time>2026-08-03T20:19:44Z</time></trkpt>
<trkpt lat="35.046124" lon="-85.057317"><ele>324.0</ele><time>2026-08-03T20:19:47Z</time></trkpt>
<trkpt lat="35.046088" lon="-85.057329"><ele>324.0</ele><time>2026-08-03T20:19:50Z</time></trkpt>
<trkpt lat="35.046054" lon="-85.05736"><ele>323.4</ele><time>2026-08-03T20:19:53Z</time></trkpt>
<trkpt lat="35.046026" lon="-85.057369"><ele>323.4</ele><time>2026-08-03T20:19:55Z</time></trkpt>
<trkpt lat="35.045991" lon="-85.057391"><ele>324.3</ele><time>2026-08-03T20:19:58Z</time></trkpt>
<trkpt lat="35.045957" lon="-85.057384"><ele>324.0</ele><time>2026-08-03T20:20:01Z</time></trkpt>
<trkpt lat="35.045933" lon="-85.057355"><ele>324.9</ele><time>2026-08-03T20:20:04Z</time></trkpt>
<trkpt lat="35.045911" lon="-85.057323"><ele>326.7</ele><time>2026-08-03T20:20:07Z</time></trkpt>
<trkpt lat="35.045889" lon="-85.057285"><ele>325.8</ele><time>2026-08-03T20:20:10Z</time></trkpt>
<trkpt lat="35.045866" lon="-85.057248"><ele>325.8</ele><time>2026-08-03T20:20:13Z</time></trkpt>
<trkpt lat="35.04583" lon="-85.057231"><ele>325.2</ele><time>2026-08-03T20:20:16Z</time></trkpt>
<trkpt lat="35.045792" lon="-85.057223"><ele>324.0</ele><time>2026-08-03T20:20:19Z</time></trkpt>
<trkpt lat="35.045766" lon="-85.057187"><ele>323.7</ele><time>2026-08-03T20:20:22Z</time></trkpt>
<trkpt lat="35.045746" lon="-85.057148"><ele>324.9</ele><time>2026-08-03T20:20:25Z</time></trkpt>
<trkpt lat="35.045732" lon="-85.057106"><ele>324.6</ele><time>2026-08-03T20:20:28Z</time></trkpt>
<trkpt lat="35.045718" lon="-85.057071"><ele>325.8</ele><time>2026-08-03T20:20:31Z</time></trkpt>
<trkpt lat="35.045689" lon="-85.057047"><ele>325.2</ele><time>2026-08-03T20:20:34Z</time></trkpt>
<trkpt lat="35.045651" lon="-85.057034"><ele>323.7</ele><time>2026-08-03T20:20:37Z</time></trkpt>
<trkpt lat="35.045616" lon="-85.057028"><ele>321.0</ele><time>2026-08-03T20:20:40Z</time></trkpt>
<trkpt lat="35.04559" lon="-85.056999"><ele>320.3</ele><time>2026-08-03T20:20:43Z</time></trkpt>
<trkpt lat="35.045582" lon="-85.056952"><ele>319.4</ele><time>2026-08-03T20:20:46Z</time></trkpt>
<trkpt lat="35.045575" lon="-85.056904"><ele>319.4</ele><time>2026-08-03T20:20:49Z</time></trkpt>
<trkpt lat="35.045563" lon="-85.056859"><ele>320.3</ele><time>2026-08-03T20:20:52Z</time></trkpt>
<trkpt lat="35.045554" lon="-85.056813"><ele>321.0</ele><time>2026-08-03T20:20:55Z</time></trkpt>
<trkpt lat="35.045561" lon="-85.056781"><ele>321.0</ele><time>2026-08-03T20:20:57Z</time></trkpt>
<trkpt lat="35.045568" lon="-85.056741"><ele>320.6</ele><time>2026-08-03T20:21:00Z</time></trkpt>
<trkpt lat="35.04556" lon="-85.056696"><ele>317.6</ele><time>2026-08-03T20:21:03Z</time></trkpt>
<trkpt lat="35.045546" lon="-85.056665"><ele>318.2</ele><time>2026-08-03T20:21:05Z</time></trkpt>
<trkpt lat="35.045515" lon="-85.056636"><ele>316.7</ele><time>2026-08-03T20:21:08Z</time></trkpt>
<trkpt lat="35.045478" lon="-85.056624"><ele>316.7</ele><time>2026-08-03T20:21:11Z</time></trkpt>
<trkpt lat="35.045449" lon="-85.056626"><ele>316.4</ele><time>2026-08-03T20:21:13Z</time></trkpt>
<trkpt lat="35.045419" lon="-85.056635"><ele>315.5</ele><time>2026-08-03T20:21:15Z</time></trkpt>
<trkpt lat="35.045389" lon="-85.056639"><ele>314.9</ele><time>2026-08-03T20:21:17Z</time></trkpt>
<trkpt lat="35.045359" lon="-85.056642"><ele>315.2</ele><time>2026-08-03T20:21:19Z</time></trkpt>
<trkpt lat="35.045325" lon="-85.05664"><ele>314.6</ele><time>2026-08-03T20:21:21Z</time></trkpt>
<trkpt lat="35.045288" lon="-85.056648"><ele>313.9</ele><time>2026-08-03T20:21:24Z</time></trkpt>
<trkpt lat="35.045262" lon="-85.056618"><ele>311.5</ele><time>2026-08-03T20:21:27Z</time></trkpt>
<trkpt lat="35.045273" lon="-85.056576"><ele>310.3</ele><time>2026-08-03T20:21:30Z</time></trkpt>
<trkpt lat="35.045303" lon="-85.056551"><ele>310.9</ele><time>2026-08-03T20:21:33Z</time></trkpt>
<trkpt lat="35.045329" lon="-85.056538"><ele>310.0</ele><time>2026-08-03T20:21:35Z</time></trkpt>
<trkpt lat="35.045346" lon="-85.056511"><ele>310.6</ele><time>2026-08-03T20:21:37Z</time></trkpt>
<trkpt lat="35.045343" lon="-85.056477"><ele>310.6</ele><time>2026-08-03T20:21:39Z</time></trkpt>
<trkpt lat="35.045321" lon="-85.056456"><ele>310.6</ele><time>2026-08-03T20:21:41Z</time></trkpt>
<trkpt lat="35.045296" lon="-85.056442"><ele>310.0</ele><time>2026-08-03T20:21:43Z</time></trkpt>
<trkpt lat="35.045268" lon="-85.05644"><ele>309.7</ele><time>2026-08-03T20:21:45Z</time></trkpt>
<trkpt lat="35.045229" lon="-85.056445"><ele>306.6</ele><time>2026-08-03T20:21:48Z</time></trkpt>
<trkpt lat="35.045188" lon="-85.056444"><ele>306.3</ele><time>2026-08-03T20:21:51Z</time></trkpt>
<trkpt lat="35.045152" lon="-85.056443"><ele>307.8</ele><time>2026-08-03T20:21:54Z</time></trkpt>
<trkpt lat="35.045114" lon="-85.056457"><ele>309.7</ele><time>2026-08-03T20:21:57Z</time></trkpt>
<trkpt lat="35.045087" lon="-85.056455"><ele>309.7</ele><time>2026-08-03T20:21:59Z</time></trkpt>
<trkpt lat="35.04505" lon="-85.056453"><ele>309.7</ele><time>2026-08-03T20:22:02Z</time></trkpt>
<trkpt lat="35.045015" lon="-85.056464"><ele>309.7</ele><time>2026-08-03T20:22:05Z</time></trkpt>
<trkpt lat="35.044984" lon="-85.056488"><ele>309.4</ele><time>2026-08-03T20:22:08Z</time></trkpt>
<trkpt lat="35.044963" lon="-85.056511"><ele>310.0</ele><time>2026-08-03T20:22:11Z</time></trkpt>
<trkpt lat="35.044942" lon="-85.056534"><ele>310.3</ele><time>2026-08-03T20:22:14Z</time></trkpt>
<trkpt lat="35.044918" lon="-85.056568"><ele>310.3</ele><time>2026-08-03T20:22:18Z</time></trkpt>
<trkpt lat="35.04489" lon="-85.056601"><ele>306.0</ele><time>2026-08-03T20:22:22Z</time></trkpt>
<trkpt lat="35.044889" lon="-85.056648"><ele>304.8</ele><time>2026-08-03T20:22:25Z</time></trkpt>
<trkpt lat="35.044904" lon="-85.056679"><ele>303.6</ele><time>2026-08-03T20:22:27Z</time></trkpt>
<trkpt lat="35.044924" lon="-85.056705"><ele>302.7</ele><time>2026-08-03T20:22:29Z</time></trkpt>
<trkpt lat="35.04494" lon="-85.056745"><ele>301.4</ele><time>2026-08-03T20:22:32Z</time></trkpt>
<trkpt lat="35.044959" lon="-85.056786"><ele>301.8</ele><time>2026-08-03T20:22:35Z</time></trkpt>
<trkpt lat="35.044973" lon="-85.056833"><ele>300.8</ele><time>2026-08-03T20:22:38Z</time></trkpt>
<trkpt lat="35.044994" lon="-85.056878"><ele>300.8</ele><time>2026-08-03T20:22:41Z</time></trkpt>
<trkpt lat="35.045007" lon="-85.056908"><ele>302.1</ele><time>2026-08-03T20:22:43Z</time></trkpt>
<trkpt lat="35.04502" lon="-85.056939"><ele>302.4</ele><time>2026-08-03T20:22:45Z</time></trkpt>
<trkpt lat="35.045032" lon="-85.05697"><ele>301.8</ele><time>2026-08-03T20:22:47Z</time></trkpt>
<trkpt lat="35.045052" lon="-85.056998"><ele>300.8</ele><time>2026-08-03T20:22:49Z</time></trkpt>
<trkpt lat="35.045064" lon="-85.057032"><ele>302.1</ele><time>2026-08-03T20:22:51Z</time></trkpt>
<trkpt lat="35.045082" lon="-85.057058"><ele>303.0</ele><time>2026-08-03T20:22:53Z</time></trkpt>
<trkpt lat="35.045096" lon="-85.057089"><ele>303.6</ele><time>2026-08-03T20:22:55Z</time></trkpt>
<trkpt lat="35.045102" lon="-85.057124"><ele>304.8</ele><time>2026-08-03T20:22:57Z</time></trkpt>
<trkpt lat="35.045102" lon="-85.05716"><ele>304.8</ele><time>2026-08-03T20:22:59Z</time></trkpt>
<trkpt lat="35.045093" lon="-85.057191"><ele>304.2</ele><time>2026-08-03T20:23:01Z</time></trkpt>
<trkpt lat="35.045086" lon="-85.057237"><ele>305.1</ele><time>2026-08-03T20:23:04Z</time></trkpt>
<trkpt lat="35.045082" lon="-85.057286"><ele>304.8</ele><time>2026-08-03T20:23:07Z</time></trkpt>
<trkpt lat="35.045088" lon="-85.057335"><ele>305.1</ele><time>2026-08-03T20:23:10Z</time></trkpt>
<trkpt lat="35.045095" lon="-85.057369"><ele>305.1</ele><time>2026-08-03T20:23:12Z</time></trkpt>
<trkpt lat="35.045109" lon="-85.0574"><ele>304.2</ele><time>2026-08-03T20:23:14Z</time></trkpt>
<trkpt lat="35.045128" lon="-85.057426"><ele>303.6</ele><time>2026-08-03T20:23:16Z</time></trkpt>
<trkpt lat="35.045164" lon="-85.057447"><ele>305.1</ele><time>2026-08-03T20:23:19Z</time></trkpt>
<trkpt lat="35.04519" lon="-85.057461"><ele>306.0</ele><time>2026-08-03T20:23:21Z</time></trkpt>
<trkpt lat="35.045218" lon="-85.057473"><ele>306.6</ele><time>2026-08-03T20:23:23Z</time></trkpt>
<trkpt lat="35.045245" lon="-85.057479"><ele>306.6</ele><time>2026-08-03T20:23:25Z</time></trkpt>
<trkpt lat="35.045273" lon="-85.05749"><ele>306.3</ele><time>2026-08-03T20:23:27Z</time></trkpt>
<trkpt lat="35.045299" lon="-85.057502"><ele>305.7</ele><time>2026-08-03T20:23:29Z</time></trkpt>
<trkpt lat="35.045337" lon="-85.057515"><ele>305.1</ele><time>2026-08-03T20:23:32Z</time></trkpt>
<trkpt lat="35.045373" lon="-85.057531"><ele>306.0</ele><time>2026-08-03T20:23:35Z</time></trkpt>
<trkpt lat="35.045412" lon="-85.05754"><ele>308.8</ele><time>2026-08-03T20:23:38Z</time></trkpt>
<trkpt lat="35.045449" lon="-85.057558"><ele>309.7</ele><time>2026-08-03T20:23:41Z</time></trkpt>
<trkpt lat="35.045483" lon="-85.057581"><ele>308.8</ele><time>2026-08-03T20:23:44Z</time></trkpt>
<trkpt lat="35.045518" lon="-85.057608"><ele>309.1</ele><time>2026-08-03T20:23:47Z</time></trkpt>
<trkpt lat="35.045528" lon="-85.05764"><ele>309.7</ele><time>2026-08-03T20:23:49Z</time></trkpt>
<trkpt lat="35.045519" lon="-85.057678"><ele>310.9</ele><time>2026-08-03T20:23:51Z</time></trkpt>
<trkpt lat="35.045501" lon="-85.057715"><ele>310.6</ele><time>2026-08-03T20:23:54Z</time></trkpt>
<trkpt lat="35.045488" lon="-85.057749"><ele>310.3</ele><time>2026-08-03T20:23:57Z</time></trkpt>
<trkpt lat="35.045473" lon="-85.057789"><ele>308.5</ele><time>2026-08-03T20:24:00Z</time></trkpt>
<trkpt lat="35.045466" lon="-85.057829"><ele>307.5</ele><time>2026-08-03T20:24:03Z</time></trkpt>
<trkpt lat="35.045462" lon="-85.057869"><ele>307.2</ele><time>2026-08-03T20:24:06Z</time></trkpt>
<trkpt lat="35.045468" lon="-85.057916"><ele>307.2</ele><time>2026-08-03T20:24:09Z</time></trkpt>
<trkpt lat="35.045467" lon="-85.057959"><ele>309.4</ele><time>2026-08-03T20:24:12Z</time></trkpt>
<trkpt lat="35.045445" lon="-85.057989"><ele>307.8</ele><time>2026-08-03T20:24:15Z</time></trkpt>
<trkpt lat="35.045426" lon="-85.058027"><ele>305.7</ele><time>2026-08-03T20:24:18Z</time></trkpt>
<trkpt lat="35.045412" lon="-85.05807"><ele>306.0</ele><time>2026-08-03T20:24:21Z</time></trkpt>
<trkpt lat="35.0454" lon="-85.058101"><ele>306.9</ele><time>2026-08-03T20:24:23Z</time></trkpt>
<trkpt lat="35.045391" lon="-85.058148"><ele>307.8</ele><time>2026-08-03T20:24:26Z</time></trkpt>
<trkpt lat="35.045386" lon="-85.058195"><ele>306.0</ele><time>2026-08-03T20:24:29Z</time></trkpt>
<trkpt lat="35.04539" lon="-85.058244"><ele>305.1</ele><time>2026-08-03T20:24:32Z</time></trkpt>
<trkpt lat="35.045391" lon="-85.058294"><ele>304.5</ele><time>2026-08-03T20:24:35Z</time></trkpt>
<trkpt lat="35.045393" lon="-85.058327"><ele>304.8</ele><time>2026-08-03T20:24:37Z</time></trkpt>
<trkpt lat="35.045372" lon="-85.058363"><ele>304.5</ele><time>2026-08-03T20:24:40Z</time></trkpt>
<trkpt lat="35.045337" lon="-85.058352"><ele>304.2</ele><time>2026-08-03T20:24:43Z</time></trkpt>
<trkpt lat="35.045321" lon="-85.058323"><ele>304.2</ele><time>2026-08-03T20:24:45Z</time></trkpt>
<trkpt lat="35.045314" lon="-85.058288"><ele>304.8</ele><time>2026-08-03T20:24:47Z</time></trkpt>
<trkpt lat="35.045309" lon="-85.058255"><ele>305.1</ele><time>2026-08-03T20:24:49Z</time></trkpt>
<trkpt lat="35.04531" lon="-85.058221"><ele>305.4</ele><time>2026-08-03T20:24:51Z</time></trkpt>
<trkpt lat="35.045321" lon="-85.058189"><ele>304.8</ele><time>2026-08-03T20:24:53Z</time></trkpt>
<trkpt lat="35.045323" lon="-85.058155"><ele>304.8</ele><time>2026-08-03T20:24:55Z</time></trkpt>
<trkpt lat="35.045305" lon="-85.05813"><ele>304.5</ele><time>2026-08-03T20:24:57Z</time></trkpt>
<trkpt lat="35.045278" lon="-85.058116"><ele>303.3</ele><time>2026-08-03T20:24:59Z</time></trkpt>
<trkpt lat="35.045256" lon="-85.058078"><ele>302.7</ele><time>2026-08-03T20:25:02Z</time></trkpt>
<trkpt lat="35.045243" lon="-85.058047"><ele>303.0</ele><time>2026-08-03T20:25:04Z</time></trkpt>
<trkpt lat="35.045222" lon="-85.058025"><ele>303.9</ele><time>2026-08-03T20:25:06Z</time></trkpt>
<trkpt lat="35.045216" lon="-85.057986"><ele>304.5</ele><time>2026-08-03T20:25:08Z</time></trkpt>
<trkpt lat="35.04521" lon="-85.057952"><ele>304.5</ele><time>2026-08-03T20:25:10Z</time></trkpt>
<trkpt lat="35.045222" lon="-85.057919"><ele>305.1</ele><time>2026-08-03T20:25:12Z</time></trkpt>
<trkpt lat="35.045241" lon="-85.057883"><ele>305.1</ele><time>2026-08-03T20:25:15Z</time></trkpt>
<trkpt lat="35.04527" lon="-85.057851"><ele>304.2</ele><time>2026-08-03T20:25:18Z</time></trkpt>
<trkpt lat="35.045292" lon="-85.05783"><ele>303.0</ele><time>2026-08-03T20:25:21Z</time></trkpt>
<trkpt lat="35.045293" lon="-85.057789"><ele>304.5</ele><time>2026-08-03T20:25:23Z</time></trkpt>
<trkpt lat="35.045281" lon="-85.057739"><ele>302.7</ele><time>2026-08-03T20:25:25Z</time></trkpt>
<trkpt lat="35.045254" lon="-85.057715"><ele>304.2</ele><time>2026-08-03T20:25:27Z</time></trkpt>
<trkpt lat="35.045225" lon="-85.057703"><ele>304.5</ele><time>2026-08-03T20:25:29Z</time></trkpt>
<trkpt lat="35.045194" lon="-85.057701"><ele>303.9</ele><time>2026-08-03T20:25:31Z</time></trkpt>
<trkpt lat="35.045164" lon="-85.057691"><ele>302.7</ele><time>2026-08-03T20:25:33Z</time></trkpt>
<trkpt lat="35.045129" lon="-85.057691"><ele>302.1</ele><time>2026-08-03T20:25:35Z</time></trkpt>
<trkpt lat="35.045095" lon="-85.057693"><ele>302.4</ele><time>2026-08-03T20:25:37Z</time></trkpt>
<trkpt lat="35.045066" lon="-85.057693"><ele>300.5</ele><time>2026-08-03T20:25:39Z</time></trkpt>
<trkpt lat="35.045038" lon="-85.057691"><ele>301.4</ele><time>2026-08-03T20:25:41Z</time></trkpt>
<trkpt lat="35.045" lon="-85.057682"><ele>301.1</ele><time>2026-08-03T20:25:44Z</time></trkpt>
<trkpt lat="35.044964" lon="-85.057669"><ele>301.4</ele><time>2026-08-03T20:25:47Z</time></trkpt>
<trkpt lat="35.044924" lon="-85.057666"><ele>302.4</ele><time>2026-08-03T20:25:50Z</time></trkpt>
<trkpt lat="35.044897" lon="-85.057655"><ele>302.4</ele><time>2026-08-03T20:25:52Z</time></trkpt>
<trkpt lat="35.044863" lon="-85.057633"><ele>303.9</ele><time>2026-08-03T20:25:55Z</time></trkpt>
<trkpt lat="35.044831" lon="-85.057611"><ele>303.6</ele><time>2026-08-03T20:25:58Z</time></trkpt>
<trkpt lat="35.044808" lon="-85.057583"><ele>301.8</ele><time>2026-08-03T20:26:01Z</time></trkpt>
<trkpt lat="35.044791" lon="-85.057544"><ele>300.2</ele><time>2026-08-03T20:26:04Z</time></trkpt>
<trkpt lat="35.044766" lon="-85.057516"><ele>300.2</ele><time>2026-08-03T20:26:07Z</time></trkpt>
<trkpt lat="35.044736" lon="-85.057514"><ele>300.2</ele><time>2026-08-03T20:26:09Z</time></trkpt>
<trkpt lat="35.044707" lon="-85.057538"><ele>300.5</ele><time>2026-08-03T20:26:11Z</time></trkpt>
<trkpt lat="35.044695" lon="-85.057584"><ele>300.8</ele><time>2026-08-03T20:26:13Z</time></trkpt>
<trkpt lat="35.044705" lon="-85.057625"><ele>300.5</ele><time>2026-08-03T20:26:15Z</time></trkpt>
<trkpt lat="35.044728" lon="-85.057659"><ele>299.0</ele><time>2026-08-03T20:26:17Z</time></trkpt>
<trkpt lat="35.044748" lon="-85.057688"><ele>299.0</ele><time>2026-08-03T20:26:19Z</time></trkpt>
<trkpt lat="35.044768" lon="-85.057717"><ele>298.1</ele><time>2026-08-03T20:26:21Z</time></trkpt>
<trkpt lat="35.044779" lon="-85.057748"><ele>296.6</ele><time>2026-08-03T20:26:23Z</time></trkpt>
<trkpt lat="35.044774" lon="-85.057792"><ele>295.4</ele><time>2026-08-03T20:26:26Z</time></trkpt>
<trkpt lat="35.044739" lon="-85.057815"><ele>295.7</ele><time>2026-08-03T20:26:29Z</time></trkpt>
<trkpt lat="35.0447" lon="-85.057817"><ele>295.0</ele><time>2026-08-03T20:26:32Z</time></trkpt>
<trkpt lat="35.044674" lon="-85.057797"><ele>295.7</ele><time>2026-08-03T20:26:34Z</time></trkpt>
<trkpt lat="35.044643" lon="-85.057765"><ele>296.0</ele><time>2026-08-03T20:26:37Z</time></trkpt>
<trkpt lat="35.044624" lon="-85.05774"><ele>296.0</ele><time>2026-08-03T20:26:39Z</time></trkpt>
<trkpt lat="35.0446" lon="-85.0577"><ele>296.9</ele><time>2026-08-03T20:26:42Z</time></trkpt>
<trkpt lat="35.044595" lon="-85.057654"><ele>296.6</ele><time>2026-08-03T20:26:45Z</time></trkpt>
<trkpt lat="35.044595" lon="-85.057613"><ele>295.7</ele><time>2026-08-03T20:26:48Z</time></trkpt>
<trkpt lat="35.044583" lon="-85.057576"><ele>294.4</ele><time>2026-08-03T20:26:51Z</time></trkpt>
<trkpt lat="35.044568" lon="-85.057539"><ele>295.0</ele><time>2026-08-03T20:26:54Z</time></trkpt>
<trkpt lat="35.044548" lon="-85.057501"><ele>294.7</ele><time>2026-08-03T20:26:57Z</time></trkpt>
<trkpt lat="35.044532" lon="-85.05746"><ele>293.5</ele><time>2026-08-03T20:27:00Z</time></trkpt>
<trkpt lat="35.044505" lon="-85.057449"><ele>293.8</ele><time>2026-08-03T20:27:02Z</time></trkpt>
<trkpt lat="35.044477" lon="-85.057455"><ele>293.2</ele><time>2026-08-03T20:27:04Z</time></trkpt>
<trkpt lat="35.04445" lon="-85.057491"><ele>292.6</ele><time>2026-08-03T20:27:07Z</time></trkpt>
<trkpt lat="35.044453" lon="-85.057541"><ele>292.3</ele><time>2026-08-03T20:27:10Z</time></trkpt>
<trkpt lat="35.044465" lon="-85.057575"><ele>293.2</ele><time>2026-08-03T20:27:12Z</time></trkpt>
<trkpt lat="35.044478" lon="-85.057608"><ele>292.6</ele><time>2026-08-03T20:27:14Z</time></trkpt>
<trkpt lat="35.044492" lon="-85.057648"><ele>293.5</ele><time>2026-08-03T20:27:17Z</time></trkpt>
<trkpt lat="35.044502" lon="-85.057683"><ele>292.9</ele><time>2026-08-03T20:27:20Z</time></trkpt>
<trkpt lat="35.0445" lon="-85.05772"><ele>291.7</ele><time>2026-08-03T20:27:23Z</time></trkpt>
<trkpt lat="35.044505" lon="-85.05776"><ele>290.2</ele><time>2026-08-03T20:27:26Z</time></trkpt>
<trkpt lat="35.044507" lon="-85.057801"><ele>289.6</ele><time>2026-08-03T20:27:29Z</time></trkpt>
<trkpt lat="35.04451" lon="-85.057835"><ele>287.4</ele><time>2026-08-03T20:27:32Z</time></trkpt>
<trkpt lat="35.044512" lon="-85.057871"><ele>287.1</ele><time>2026-08-03T20:27:35Z</time></trkpt>
<trkpt lat="35.044519" lon="-85.057913"><ele>287.1</ele><time>2026-08-03T20:27:38Z</time></trkpt>
<trkpt lat="35.044539" lon="-85.05795"><ele>286.2</ele><time>2026-08-03T20:27:41Z</time></trkpt>
<trkpt lat="35.044567" lon="-85.057977"><ele>285.6</ele><time>2026-08-03T20:27:44Z</time></trkpt>
<trkpt lat="35.044596" lon="-85.058002"><ele>285.6</ele><time>2026-08-03T20:27:47Z</time></trkpt>
<trkpt lat="35.044597" lon="-85.058042"><ele>286.5</ele><time>2026-08-03T20:27:50Z</time></trkpt>
<trkpt lat="35.044576" lon="-85.058077"><ele>287.1</ele><time>2026-08-03T20:27:53Z</time></trkpt>
<trkpt lat="35.044544" lon="-85.058085"><ele>285.3</ele><time>2026-08-03T20:27:56Z</time></trkpt>
<trkpt lat="35.04451" lon="-85.05808"><ele>286.8</ele><time>2026-08-03T20:27:59Z</time></trkpt>
<trkpt lat="35.044482" lon="-85.058064"><ele>285.9</ele><time>2026-08-03T20:28:02Z</time></trkpt>
<trkpt lat="35.044453" lon="-85.058037"><ele>292.6</ele><time>2026-08-03T20:28:06Z</time></trkpt>
<trkpt lat="35.044454" lon="-85.058035"><ele>291.4</ele><time>2026-08-03T20:28:07Z</time></trkpt>
<trkpt lat="35.044455" lon="-85.058035"><ele>291.4</ele><time>2026-08-03T20:28:10Z</time></trkpt>
<trkpt lat="35.044457" lon="-85.05803"><ele>289.9</ele><time>2026-08-03T20:28:11Z</time></trkpt>
<trkpt lat="35.044443" lon="-85.058"><ele>291.4</ele><time>2026-08-03T20:28:14Z</time></trkpt>
<trkpt lat="35.044416" lon="-85.057967"><ele>291.1</ele><time>2026-08-03T20:28:17Z</time></trkpt>
<trkpt lat="35.044392" lon="-85.057925"><ele>291.1</ele><time>2026-08-03T20:28:20Z</time></trkpt>
<trkpt lat="35.04436" lon="-85.057932"><ele>289.6</ele><time>2026-08-03T20:28:22Z</time></trkpt>
<trkpt lat="35.044359" lon="-85.05794"><ele>289.3</ele><time>2026-08-03T20:28:23Z</time></trkpt>
<trkpt lat="35.044364" lon="-85.05794"><ele>288.3</ele><time>2026-08-03T20:28:24Z</time></trkpt>
<trkpt lat="35.044365" lon="-85.057904"><ele>285.3</ele><time>2026-08-03T20:28:28Z</time></trkpt>
<trkpt lat="35.044385" lon="-85.057879"><ele>286.8</ele><time>2026-08-03T20:28:31Z</time></trkpt>
<trkpt lat="35.044398" lon="-85.057841"><ele>285.6</ele><time>2026-08-03T20:28:35Z</time></trkpt>
<trkpt lat="35.044396" lon="-85.057796"><ele>285.3</ele><time>2026-08-03T20:28:39Z</time></trkpt>
<trkpt lat="35.044389" lon="-85.057757"><ele>284.4</ele><time>2026-08-03T20:28:42Z</time></trkpt>
<trkpt lat="35.044367" lon="-85.057728"><ele>283.5</ele><time>2026-08-03T20:28:45Z</time></trkpt>
<trkpt lat="35.044338" lon="-85.057711"><ele>284.7</ele><time>2026-08-03T20:28:48Z</time></trkpt>
<trkpt lat="35.044306" lon="-85.057702"><ele>285.9</ele><time>2026-08-03T20:28:51Z</time></trkpt>
<trkpt lat="35.04427" lon="-85.057687"><ele>285.3</ele><time>2026-08-03T20:28:54Z</time></trkpt>
<trkpt lat="35.044233" lon="-85.057679"><ele>285.9</ele><time>2026-08-03T20:28:57Z</time></trkpt>
<trkpt lat="35.044199" lon="-85.057672"><ele>285.6</ele><time>2026-08-03T20:29:01Z</time></trkpt>
<trkpt lat="35.044182" lon="-85.057645"><ele>286.2</ele><time>2026-08-03T20:29:04Z</time></trkpt>
<trkpt lat="35.044158" lon="-85.057627"><ele>286.8</ele><time>2026-08-03T20:29:07Z</time></trkpt>
<trkpt lat="35.044133" lon="-85.057602"><ele>285.3</ele><time>2026-08-03T20:29:10Z</time></trkpt>
<trkpt lat="35.044105" lon="-85.057577"><ele>282.9</ele><time>2026-08-03T20:29:13Z</time></trkpt>
<trkpt lat="35.044084" lon="-85.057545"><ele>280.4</ele><time>2026-08-03T20:29:16Z</time></trkpt>
<trkpt lat="35.044066" lon="-85.057511"><ele>278.6</ele><time>2026-08-03T20:29:19Z</time></trkpt>
<trkpt lat="35.044042" lon="-85.057476"><ele>278.3</ele><time>2026-08-03T20:29:23Z</time></trkpt>
<trkpt lat="35.04402" lon="-85.057449"><ele>280.7</ele><time>2026-08-03T20:29:26Z</time></trkpt>
<trkpt lat="35.044007" lon="-85.057408"><ele>279.2</ele><time>2026-08-03T20:29:29Z</time></trkpt>
<trkpt lat="35.043988" lon="-85.05738"><ele>279.2</ele><time>2026-08-03T20:29:32Z</time></trkpt>
<trkpt lat="35.043968" lon="-85.057356"><ele>278.6</ele><time>2026-08-03T20:29:35Z</time></trkpt>
<trkpt lat="35.043955" lon="-85.057326"><ele>280.4</ele><time>2026-08-03T20:29:38Z</time></trkpt>
<trkpt lat="35.043935" lon="-85.057302"><ele>281.0</ele><time>2026-08-03T20:29:41Z</time></trkpt>
<trkpt lat="35.043911" lon="-85.057284"><ele>283.2</ele><time>2026-08-03T20:29:44Z</time></trkpt>
<trkpt lat="35.043877" lon="-85.057273"><ele>282.2</ele><time>2026-08-03T20:29:47Z</time></trkpt>
<trkpt lat="35.043846" lon="-85.057251"><ele>279.2</ele><time>2026-08-03T20:29:50Z</time></trkpt>
<trkpt lat="35.043822" lon="-85.057214"><ele>277.7</ele><time>2026-08-03T20:29:53Z</time></trkpt>
<trkpt lat="35.043795" lon="-85.057185"><ele>276.8</ele><time>2026-08-03T20:29:56Z</time></trkpt>
<trkpt lat="35.043767" lon="-85.057152"><ele>276.5</ele><time>2026-08-03T20:29:59Z</time></trkpt>
<trkpt lat="35.04375" lon="-85.057125"><ele>278.9</ele><time>2026-08-03T20:30:01Z</time></trkpt>
<trkpt lat="35.043724" lon="-85.057094"><ele>279.8</ele><time>2026-08-03T20:30:04Z</time></trkpt>
<trkpt lat="35.043699" lon="-85.057066"><ele>278.9</ele><time>2026-08-03T20:30:07Z</time></trkpt>
<trkpt lat="35.043676" lon="-85.057027"><ele>278.6</ele><time>2026-08-03T20:30:10Z</time></trkpt>
<trkpt lat="35.043648" lon="-85.056998"><ele>279.5</ele><time>2026-08-03T20:30:13Z</time></trkpt>
<trkpt lat="35.043618" lon="-85.056968"><ele>278.6</ele><time>2026-08-03T20:30:16Z</time></trkpt>
<trkpt lat="35.043585" lon="-85.056943"><ele>278.6</ele><time>2026-08-03T20:30:19Z</time></trkpt>
<trkpt lat="35.04355" lon="-85.056924"><ele>276.8</ele><time>2026-08-03T20:30:22Z</time></trkpt>
<trkpt lat="35.043515" lon="-85.056905"><ele>276.5</ele><time>2026-08-03T20:30:25Z</time></trkpt>
<trkpt lat="35.043483" lon="-85.056878"><ele>277.4</ele><time>2026-08-03T20:30:28Z</time></trkpt>
<trkpt lat="35.043453" lon="-85.056845"><ele>276.8</ele><time>2026-08-03T20:30:31Z</time></trkpt>
<trkpt lat="35.043423" lon="-85.056815"><ele>277.4</ele><time>2026-08-03T20:30:34Z</time></trkpt>
<trkpt lat="35.043387" lon="-85.056797"><ele>276.8</ele><time>2026-08-03T20:30:37Z</time></trkpt>
<trkpt lat="35.043351" lon="-85.056782"><ele>275.2</ele><time>2026-08-03T20:30:40Z</time></trkpt>
<trkpt lat="35.043318" lon="-85.056766"><ele>274.3</ele><time>2026-08-03T20:30:43Z</time></trkpt>
<trkpt lat="35.043287" lon="-85.056736"><ele>275.8</ele><time>2026-08-03T20:30:46Z</time></trkpt>
<trkpt lat="35.043256" lon="-85.056709"><ele>278.0</ele><time>2026-08-03T20:30:49Z</time></trkpt>
<trkpt lat="35.04324" lon="-85.056668"><ele>277.1</ele><time>2026-08-03T20:30:52Z</time></trkpt>
<trkpt lat="35.043247" lon="-85.056622"><ele>274.6</ele><time>2026-08-03T20:30:55Z</time></trkpt>
<trkpt lat="35.043262" lon="-85.056578"><ele>273.1</ele><time>2026-08-03T20:30:58Z</time></trkpt>
<trkpt lat="35.043269" lon="-85.056532"><ele>273.4</ele><time>2026-08-03T20:31:01Z</time></trkpt>
<trkpt lat="35.043266" lon="-85.056489"><ele>274.3</ele><time>2026-08-03T20:31:04Z</time></trkpt>
<trkpt lat="35.043245" lon="-85.056448"><ele>273.1</ele><time>2026-08-03T20:31:07Z</time></trkpt>
<trkpt lat="35.043215" lon="-85.056413"><ele>271.3</ele><time>2026-08-03T20:31:10Z</time></trkpt>
<trkpt lat="35.043202" lon="-85.05638"><ele>270.7</ele><time>2026-08-03T20:31:12Z</time></trkpt>
<trkpt lat="35.0432" lon="-85.056345"><ele>270.1</ele><time>2026-08-03T20:31:14Z</time></trkpt>
<trkpt lat="35.043191" lon="-85.056301"><ele>270.7</ele><time>2026-08-03T20:31:17Z</time></trkpt>
<trkpt lat="35.043167" lon="-85.056266"><ele>269.4</ele><time>2026-08-03T20:31:20Z</time></trkpt>
<trkpt lat="35.043136" lon="-85.05624"><ele>267.0</ele><time>2026-08-03T20:31:23Z</time></trkpt>
<trkpt lat="35.043109" lon="-85.056204"><ele>265.5</ele><time>2026-08-03T20:31:26Z</time></trkpt>
<trkpt lat="35.043102" lon="-85.05617"><ele>264.0</ele><time>2026-08-03T20:31:28Z</time></trkpt>
<trkpt lat="35.043099" lon="-85.056123"><ele>263.0</ele><time>2026-08-03T20:31:31Z</time></trkpt>
<trkpt lat="35.04309" lon="-85.056088"><ele>261.8</ele><time>2026-08-03T20:31:34Z</time></trkpt>
<trkpt lat="35.043082" lon="-85.056045"><ele>262.7</ele><time>2026-08-03T20:31:37Z</time></trkpt>
<trkpt lat="35.043074" lon="-85.056011"><ele>264.0</ele><time>2026-08-03T20:31:39Z</time></trkpt>
<trkpt lat="35.043055" lon="-85.055974"><ele>265.8</ele><time>2026-08-03T20:31:42Z</time></trkpt>
<trkpt lat="35.043027" lon="-85.055944"><ele>266.1</ele><time>2026-08-03T20:31:45Z</time></trkpt>
<trkpt lat="35.043003" lon="-85.055907"><ele>265.2</ele><time>2026-08-03T20:31:48Z</time></trkpt>
<trkpt lat="35.042992" lon="-85.055877"><ele>264.3</ele><time>2026-08-03T20:31:50Z</time></trkpt>
<trkpt lat="35.042959" lon="-85.055848"><ele>262.4</ele><time>2026-08-03T20:31:53Z</time></trkpt>
<trkpt lat="35.042939" lon="-85.055812"><ele>262.7</ele><time>2026-08-03T20:31:56Z</time></trkpt>
<trkpt lat="35.042914" lon="-85.055777"><ele>262.1</ele><time>2026-08-03T20:31:59Z</time></trkpt>
<trkpt lat="35.042887" lon="-85.055749"><ele>261.8</ele><time>2026-08-03T20:32:02Z</time></trkpt>
<trkpt lat="35.042884" lon="-85.055715"><ele>262.4</ele><time>2026-08-03T20:32:04Z</time></trkpt>
<trkpt lat="35.042881" lon="-85.05568"><ele>263.0</ele><time>2026-08-03T20:32:06Z</time></trkpt>
<trkpt lat="35.042878" lon="-85.055646"><ele>263.0</ele><time>2026-08-03T20:32:08Z</time></trkpt>
<trkpt lat="35.042874" lon="-85.055612"><ele>263.0</ele><time>2026-08-03T20:32:10Z</time></trkpt>
<trkpt lat="35.042875" lon="-85.055577"><ele>263.0</ele><time>2026-08-03T20:32:12Z</time></trkpt>
<trkpt lat="35.042876" lon="-85.055543"><ele>262.4</ele><time>2026-08-03T20:32:14Z</time></trkpt>
<trkpt lat="35.042878" lon="-85.055509"><ele>263.0</ele><time>2026-08-03T20:32:16Z</time></trkpt>
<trkpt lat="35.042882" lon="-85.055473"><ele>263.3</ele><time>2026-08-03T20:32:18Z</time></trkpt>
<trkpt lat="35.042877" lon="-85.055438"><ele>262.7</ele><time>2026-08-03T20:32:20Z</time></trkpt>
<trkpt lat="35.042874" lon="-85.055405"><ele>264.3</ele><time>2026-08-03T20:32:22Z</time></trkpt>
<trkpt lat="35.042866" lon="-85.05536"><ele>263.3</ele><time>2026-08-03T20:32:25Z</time></trkpt>
<trkpt lat="35.042863" lon="-85.05532"><ele>263.7</ele><time>2026-08-03T20:32:28Z</time></trkpt>
<trkpt lat="35.042856" lon="-85.055279"><ele>265.5</ele><time>2026-08-03T20:32:31Z</time></trkpt>
<trkpt lat="35.042846" lon="-85.055231"><ele>267.0</ele><time>2026-08-03T20:32:34Z</time></trkpt>
<trkpt lat="35.042822" lon="-85.055185"><ele>267.0</ele><time>2026-08-03T20:32:37Z</time></trkpt>
<trkpt lat="35.042812" lon="-85.055153"><ele>265.2</ele><time>2026-08-03T20:32:39Z</time></trkpt>
<trkpt lat="35.04281" lon="-85.055119"><ele>262.4</ele><time>2026-08-03T20:32:41Z</time></trkpt>
<trkpt lat="35.042815" lon="-85.055074"><ele>262.4</ele><time>2026-08-03T20:32:44Z</time></trkpt>
<trkpt lat="35.042811" lon="-85.05503"><ele>262.4</ele><time>2026-08-03T20:32:47Z</time></trkpt>
<trkpt lat="35.042816" lon="-85.054983"><ele>263.0</ele><time>2026-08-03T20:32:50Z</time></trkpt>
<trkpt lat="35.042818" lon="-85.054936"><ele>262.7</ele><time>2026-08-03T20:32:53Z</time></trkpt>
<trkpt lat="35.042824" lon="-85.054894"><ele>261.8</ele><time>2026-08-03T20:32:56Z</time></trkpt>
<trkpt lat="35.042826" lon="-85.054849"><ele>262.4</ele><time>2026-08-03T20:32:59Z</time></trkpt>
<trkpt lat="35.04283" lon="-85.054801"><ele>261.5</ele><time>2026-08-03T20:33:02Z</time></trkpt>
<trkpt lat="35.042835" lon="-85.054756"><ele>260.9</ele><time>2026-08-03T20:33:05Z</time></trkpt>
<trkpt lat="35.042837" lon="-85.054709"><ele>259.4</ele><time>2026-08-03T20:33:08Z</time></trkpt>
<trkpt lat="35.04284" lon="-85.054661"><ele>258.8</ele><time>2026-08-03T20:33:11Z</time></trkpt>
<trkpt lat="35.042842" lon="-85.054627"><ele>259.1</ele><time>2026-08-03T20:33:13Z</time></trkpt>
<trkpt lat="35.042847" lon="-85.054581"><ele>259.7</ele><time>2026-08-03T20:33:16Z</time></trkpt>
<trkpt lat="35.042854" lon="-85.054533"><ele>258.8</ele><time>2026-08-03T20:33:19Z</time></trkpt>
<trkpt lat="35.042854" lon="-85.054488"><ele>258.8</ele><time>2026-08-03T20:33:22Z</time></trkpt>
<trkpt lat="35.04285" lon="-85.054454"><ele>259.7</ele><time>2026-08-03T20:33:24Z</time></trkpt>
<trkpt lat="35.042846" lon="-85.05442"><ele>259.7</ele><time>2026-08-03T20:33:26Z</time></trkpt>
<trkpt lat="35.042845" lon="-85.054369"><ele>258.5</ele><time>2026-08-03T20:33:29Z</time></trkpt>
<trkpt lat="35.042842" lon="-85.054331"><ele>258.5</ele><time>2026-08-03T20:33:31Z</time></trkpt>
<trkpt lat="35.042834" lon="-85.054299"><ele>258.5</ele><time>2026-08-03T20:33:33Z</time></trkpt>
<trkpt lat="35.042816" lon="-85.054256"><ele>257.6</ele><time>2026-08-03T20:33:36Z</time></trkpt>
<trkpt lat="35.042791" lon="-85.054215"><ele>257.9</ele><time>2026-08-03T20:33:39Z</time></trkpt>
<trkpt lat="35.042765" lon="-85.054178"><ele>257.9</ele><time>2026-08-03T20:33:42Z</time></trkpt>
<trkpt lat="35.042742" lon="-85.054137"><ele>258.8</ele><time>2026-08-03T20:33:45Z</time></trkpt>
<trkpt lat="35.042726" lon="-85.054107"><ele>258.8</ele><time>2026-08-03T20:33:47Z</time></trkpt>
<trkpt lat="35.042696" lon="-85.054091"><ele>259.4</ele><time>2026-08-03T20:33:50Z</time></trkpt>
</trkseg></trk></gpx>